ftp/pub/palmer/observations_modified/2019/July/AR190715_BASE.txt

Download

Sample DateTime	Unit Id	WS Avg 2min	WD Avg 2min	WGS 10min	WGD 10min	Air Temp	Rel Humidity	Dew Point	Pyranometer	Quantum	Air Pressure	Snow Level	Rainfall	PW Current	Visibility	CBase 1	CBase 2	CBase 3	Vert Vis
2019/07/15  00:00:00  BASE  0.6762   22   1.0878   26   -1.0  67    -6.3  0     0     1003.5   NA       0.0000   9999     5640  0     0    
2019/07/15  00:01:00  BASE  0.15876  18   1.0878   26   -1.3  70    -6.1  0     0     1003.5   NA       0.0000   9999     5680  0     0    
2019/07/15  00:02:00  BASE  0        17   1.0878   26   -1.4  72    -5.7  0     0     1003.5   NA       0.0000   9999     5680  0     0    
2019/07/15  00:03:00  BASE  0.05292  350  1.0878   26   -1.3  73    -5.5  0     0     1003.5   NA       0.0000   9999     5680  0     0    
2019/07/15  00:04:00  BASE  0.05292  320  1.0878   26   -1.1  73    -5.4  0     0     1003.5   NA       0.0000   9999     5770  0     0    
2019/07/15  00:05:00  BASE  0        316  1.0878   26   -0.9  71    -5.5  0     0     1003.4   NA       0.0000   9999     5740  0     0    
2019/07/15  00:06:00  BASE  0.15876  262  1.0878   26   -0.7  69    -5.7  0     0     1003.4   NA       0.0000   9999     5680  0     0    
2019/07/15  00:07:00  BASE  0.294    192  1.0878   26   -0.6  67    -6.0  0     0     1003.4   NA       0.0000   9999     5710  0     0    
2019/07/15  00:08:00  BASE  0.27636  144  1.0878   26   -0.6  66    -6.3  0     0     1003.4   NA       0.0000   9999     5740  0     0    
2019/07/15  00:09:00  BASE  0.2646   86   0.9996   87   -0.7  65    -6.4  0     0     1003.4   NA       0.0000   9999     5710  0     0    
2019/07/15  00:10:00  BASE  0.3234   356  0.9996   87   -0.7  66    -6.3  0     0     1003.4   NA       0.0000   9999     5710  0     0    
2019/07/15  00:11:00  BASE  0.68208  301  1.029    299  -0.6  65    -6.3  0     0     1003.4   NA       0.0000   9999     5740  0     0    
2019/07/15  00:12:00  BASE  0.84084  304  1.029    299  -0.5  65    -6.3  0     0     1003.4   NA       0.0000   9999     5770  0     0    
2019/07/15  00:13:00  BASE  0.3528   294  1.029    299  -0.4  64    -6.3  0     0     1003.4   NA       0.0000   9999     5840  0     0    
2019/07/15  00:14:00  BASE  0.45864  254  1.18188  223  -0.3  63    -6.5  0     0     1003.3   NA       0.0000   9999     5840  0     0    
2019/07/15  00:15:21  BASE  1.17012  221  1.35828  213  -0.4  63    -6.6  0     0     1003.3   NA       0.0000   9999     5870  0     0    
2019/07/15  00:16:00  BASE  1.27008  208  1.51116  198  -0.6  63    -6.8  0     0     1003.3   NA       0.0000   9999     5870  0     0    
2019/07/15  00:17:00  BASE  1.0584   202  1.51116  198  -0.9  65    -6.7  0     0     1003.3   NA       0.0000   9999     5870  0     0    
2019/07/15  00:18:00  BASE  0.96432  205  1.51116  198  -1.2  67    -6.5  0     0     1003.3   NA       0.0000   9999     5810  0     0    
2019/07/15  00:19:00  BASE  1.029    204  1.51116  198  -1.4  70    -6.3  0     0     1003.2   NA       0.0000   9999     5840  0     0    
2019/07/15  00:20:00  BASE  1.05252  211  1.51116  198  -1.6  72    -6.0  0     0     1003.2   NA       0.0000   9999     5870  0     0    
2019/07/15  00:21:00  BASE  1.12896  229  1.51116  198  -1.7  74    -5.7  0     0     1003.2   NA       0.0000   9999     5770  0     0    
2019/07/15  00:22:00  BASE  1.45824  252  1.87572  269  -1.7  76    -5.3  0     0     1003.2   NA       0.0000   9999     5740  0     0    
2019/07/15  00:23:00  BASE  1.90512  271  2.21088  278  -1.7  78    -5.0  0     0     1003.2   NA       0.0000   9999     5840  0     0    
2019/07/15  00:24:00  BASE  2.1756   279  2.35788  277  -1.6  79    -4.7  0     0     1003.2   NA       0.0000   9999     5810  0     0    
2019/07/15  00:25:00  BASE  2.1462   285  2.35788  277  -1.6  80    -4.5  0     0     1003.2   NA       0.0000   9999     5710  0     0    
2019/07/15  00:26:00  BASE  1.87572  299  2.35788  277  -1.5  81    -4.3  0     0     1003.2   NA       0.0000   9999     5640  0     0    
2019/07/15  00:27:00  BASE  1.45824  340  2.35788  277  -1.5  81    -4.4  0     0     1003.2   NA       0.0000   9999     5710  0     0    
2019/07/15  00:28:00  BASE  1.00548  5    2.35788  277  -1.6  81    -4.5  0     0     1003.2   NA       0.0000   9999     5740  0     0    
2019/07/15  00:29:00  BASE  0.5292   1    2.35788  277  -1.6  80    -4.6  0     0     1003.2   NA       0.0000   9999     5680  0     0    
2019/07/15  00:30:00  BASE  0.1176   23   2.35788  277  -1.7  81    -4.6  0     0     1003.1   NA       0.0000   9999     5740  0     0    
2019/07/15  00:31:00  BASE  0        46   2.35788  277  -1.6  81    -4.5  0     0     1003.0   NA       0.0000   9999     5770  0     0    
2019/07/15  00:32:00  BASE  0.4704   49   2.35788  277  -1.6  81    -4.5  0     0     1003.1   NA       0.0000   9999     5940  0     0    
2019/07/15  00:33:00  BASE  1.32888  51   2.35788  277  -1.4  80    -4.4  0     0     1003.2   NA       0.0000   9999     5840  0     0    
2019/07/15  00:34:00  BASE  1.95216  58   2.32848  68   -1.3  79    -4.5  0     0     1003.1   NA       0.0000   9999     5810  0     0    
2019/07/15  00:35:00  BASE  1.86396  51   2.32848  68   -1.3  78    -4.7  0     0     1003.0   NA       0.0000   9999     5840  0     0    
2019/07/15  00:36:00  BASE  0.82908  26   2.32848  68   -1.3  77    -4.8  0     0     1003.0   NA       0.0000   9999     5770  0     0    
2019/07/15  00:37:00  BASE  0.0588   299  2.32848  68   -1.2  77    -4.8  0     0     1002.9   NA       0.0000   9999     5740  0     0    
2019/07/15  00:38:00  BASE  0        240  2.32848  68   -1.1  75    -4.9  0     0     1002.9   NA       0.0000   9999     6000  0     0    
2019/07/15  00:39:00  BASE  0        210  2.32848  68   -0.9  74    -4.9  0     0     1002.9   NA       0.0000   9999     6400  0     0    
2019/07/15  00:40:00  BASE  0        152  2.32848  68   -0.6  73    -4.9  0     0     1002.9   NA       0.0000   9999     6200  0     0    
2019/07/15  00:41:00  BASE  0.11172  79   2.32848  68   -0.4  71    -5.0  0     0     1002.9   NA       0.0000   9999     5840  0     0    
2019/07/15  00:42:00  BASE  0.95256  33   2.32848  68   -0.3  69    -5.4  0     0     1002.9   NA       0.0000   9999     5870  0     0    
2019/07/15  00:43:00  BASE  1.59936  34   2.32848  68   -0.4  68    -5.6  0     0     1002.9   NA       0.0000   9999     0     0     0    
2019/07/15  00:44:00  BASE  1.176    49   2.0286   51   -0.5  68    -5.7  0     0     1002.9   NA       0.0000   9999     6040  0     0    
2019/07/15  00:45:00  BASE  0.47628  54   1.81692  23   -0.5  68    -5.7  0     0     1002.9   NA       0.0000   9999     5840  0     0    
2019/07/15  00:46:00  BASE  0.39984  58   1.81692  23   -0.6  68    -5.8  0     0     1002.9   NA       0.0000   9999     5840  0     0    
2019/07/15  00:47:00  BASE  0.91728  47   1.81692  23   -0.6  68    -5.7  0     0     1002.9   NA       0.0000   9999     5970  9680  0    
2019/07/15  00:48:00  BASE  1.12308  30   1.81692  23   -0.4  68    -5.7  0     0     1002.9   NA       0.0000   9999     5870  9610  0    
2019/07/15  00:49:00  BASE  0.92904  31   1.81692  23   -0.3  67    -5.7  0     0     1002.9   NA       0.0000   9999     5870  0     0    
2019/07/15  00:50:00  BASE  0.37632  36   1.81692  23   -0.2  66    -5.8  0     0     1002.9   NA       0.0000   9999     5870  0     0    
2019/07/15  00:51:00  BASE  0        32   1.81692  23   -0.1  65    -5.9  0     0     1002.9   NA       0.0000   9999     5870  0     0    
2019/07/15  00:52:00  BASE  0.0294   176  1.69344  39   -0.0  65    -5.9  0     0     1002.8   NA       0.0000   9999     9510  0     0    
2019/07/15  00:53:00  BASE  0.441    178  1.29948  28   0.1   64    -5.9  0     0     1002.8   NA       0.0000   9999     9580  0     0    
2019/07/15  00:54:00  BASE  0.78204  167  1.29948  28   0.1   64    -6.0  0     0     1002.8   NA       0.0000   9999     9610  0     0    
2019/07/15  00:55:00  BASE  0.37632  155  1.29948  28   0.2   63    -6.0  0     0     1002.8   NA       0.0000   9999     9650  0     0    
2019/07/15  00:56:00  BASE  0.05292  135  1.29948  28   0.1   63    -6.1  0     0     1002.8   NA       0.0000   9999     9680  0     0    
2019/07/15  00:57:00  BASE  0.49392  116  1.29948  28   -0.0  63    -6.2  0     0     1002.8   NA       0.0000   9999     5910  9650  0    
2019/07/15  00:58:00  BASE  0.882    109  1.029    101  -0.2  64    -6.2  0     0     1002.8   NA       0.0000   9999     9680  0     0    
2019/07/15  00:59:00  BASE  0.99372  132  1.57584  159  -0.4  65    -6.2  0     0     1002.8   NA       0.0000   9999     9710  0     0    
2019/07/15  01:00:00  BASE  1.2936   154  1.60524  159  -0.6  66    -6.2  0     0     1002.8   NA       0.0000   9999     9680  0     0    
2019/07/15  01:01:00  BASE  1.75812  157  2.45196  158  -0.8  67    -6.1  0     0     1002.8   NA       0.0000   9999     9680  0     0    
2019/07/15  01:02:00  BASE  2.16972  158  2.48136  172  -1.0  69    -6.0  0     0     1002.8   NA       0.0000   9999     9740  0     0    
2019/07/15  01:03:00  BASE  2.19324  158  2.54016  162  -1.3  70    -6.0  0     0     1002.8   NA       0.0000   9999     9740  0     0    
2019/07/15  01:04:00  BASE  1.78752  151  2.54016  162  -1.5  72    -5.9  0     0     1002.8   NA       0.0000   9999     9680  0     0    
2019/07/15  01:05:00  BASE  1.46412  149  2.54016  162  -1.6  74    -5.7  0     0     1002.8   NA       0.0000   9999     9780  0     0    
2019/07/15  01:06:00  BASE  1.55232  157  2.54016  162  -1.7  75    -5.5  0     0     1002.7   NA       0.0000   9999     9840  0     0    
2019/07/15  01:07:00  BASE  1.76988  167  2.54016  162  -1.8  77    -5.3  0     0     1002.7   NA       0.0000   9999     9780  0     0    
2019/07/15  01:08:00  BASE  1.98156  176  2.54016  162  -1.7  78    -4.9  0     0     1002.6   NA       0.0000   9999     9710  0     0    
2019/07/15  01:09:00  BASE  2.18148  176  2.54016  181  -1.5  79    -4.6  0     0     1002.6   NA       0.0000   9999     9650  0     0    
2019/07/15  01:10:00  BASE  2.21088  170  2.54016  159  -1.4  79    -4.5  0     0     1002.6   NA       0.0000   9999     9680  0     0    
2019/07/15  01:11:00  BASE  1.95216  167  2.54016  159  -1.3  79    -4.5  0     0     1002.6   NA       0.0000   9999     9840  0     0    
2019/07/15  01:12:00  BASE  1.84044  164  2.54016  159  -1.3  79    -4.4  0     0     1002.6   NA       0.0000   9999     5770  0     0    
2019/07/15  01:13:00  BASE  2.01684  162  2.54016  159  -1.2  79    -4.4  0     0     1002.5   NA       0.0000   9999     5770  9810  0    
2019/07/15  01:14:00  BASE  2.06976  166  2.56956  179  -1.2  79    -4.4  0     0     1002.4   NA       0.0000   9999     9710  0     0    
2019/07/15  01:15:00  BASE  2.06976  174  2.56956  179  -1.1  79    -4.3  0     0     1002.3   NA       0.0000   9999     9710  0     0    
2019/07/15  01:16:00  BASE  1.87572  189  2.56956  179  -1.0  79    -4.3  0     0     1002.4   NA       0.0000   9999     9740  0     0    
2019/07/15  01:17:00  BASE  1.86984  193  2.56956  179  -1.0  78    -4.2  0     0     1002.4   NA       0.0000   9999     5870  6790  9780 
2019/07/15  01:18:00  BASE  1.87572  176  2.56956  179  -0.9  78    -4.2  0     0     1002.3   NA       0.0000   9999     6730  9650  0    
2019/07/15  01:19:00  BASE  1.71108  187  2.56956  179  -0.9  78    -4.2  0     0     1002.3   NA       0.0000   9999     6690  9680  0    
2019/07/15  01:20:00  BASE  2.06388  204  2.87532  165  -0.9  79    -4.1  0     0     1002.2   NA       0.0000   9999     6100  9780  0    
2019/07/15  01:21:00  BASE  2.25792  202  2.87532  165  -0.8  79    -4.0  0     0     1002.2   NA       0.0000   9999     6040  0     0    
2019/07/15  01:22:00  BASE  1.6464   195  2.87532  165  -0.8  79    -4.0  0     0     1002.2   NA       0.0000   9999     6200  0     0    
2019/07/15  01:23:00  BASE  1.05252  189  2.87532  165  -0.9  79    -4.0  0     0     1002.2   NA       0.0000   9999     6000  9680  0    
2019/07/15  01:24:00  BASE  1.11132  207  2.87532  165  -1.0  80    -4.1  0     0     1002.2   NA       0.0000   9999     5970  6590  0    
2019/07/15  01:25:00  BASE  1.28772  211  2.87532  165  -1.0  80    -4.0  0     0     1002.2   NA       0.0000   9999     6500  9780  0    
2019/07/15  01:26:00  BASE  1.15836  218  2.87532  165  -1.1  81    -4.0  0     0     1002.2   NA       0.0000   9999     6460  9710  0    
2019/07/15  01:27:00  BASE  0.81732  201  2.87532  165  -1.1  81    -3.9  0     0     1002.3   NA       0.0000   9999     6040  0     0    
2019/07/15  01:28:00  BASE  0.67032  208  2.87532  165  -1.0  82    -3.8  0     0     1002.3   NA       0.0000   9999     6500  9780  0    
2019/07/15  01:29:00  BASE  1.5288   312  3.26928  313  -1.0  82    -3.6  0     0     1002.3   NA       0.0000   9999     6230  0     0    
2019/07/15  01:30:00  BASE  2.68716  316  4.2042   297  -1.0  82    -3.7  0     0     1002.3   NA       0.0000   9999     6270  0     0    
2019/07/15  01:31:00  BASE  3.89256  305  5.292    299  -1.0  82    -3.8  0     0     1002.3   NA       0.0000   9999     6070  0     0    
2019/07/15  01:32:00  BASE  4.41     304  5.292    299  -1.2  82    -3.9  0     0     1002.3   NA       0.0000   9999     6000  0     0    
2019/07/15  01:33:00  BASE  4.44528  335  6.2034   18   -1.2  82    -3.9  0     0     1002.3   NA       0.0000   9999     6400  6860  9710 
2019/07/15  01:34:00  BASE  4.76868  1    6.2034   18   -1.1  82    -3.7  0     0     1002.3   NA       0.0000   9999     6070  0     0    
2019/07/15  01:35:00  BASE  4.53936  7    6.2034   18   -1.1  83    -3.7  0     0     1002.4   NA       0.0000   9999     6100  0     0    
2019/07/15  01:36:00  BASE  4.4982   11   6.2034   18   -1.1  83    -3.6  0     0     1002.4   NA       0.0000   9999     6230  9880  0    
2019/07/15  01:37:00  BASE  4.12776  357  6.2034   18   -1.1  83    -3.6  0     0     1002.5   NA       0.0000   9999     6270  7870  0    
2019/07/15  01:38:00  BASE  2.95176  348  6.2034   18   -1.2  83    -3.7  0     0     1002.5   NA       0.0000   9999     6140  7870  0    
2019/07/15  01:39:00  BASE  1.86984  342  6.2034   18   -1.5  83    -4.0  0     0     1002.5   NA       0.0000   9999     5970  0     0    
2019/07/15  01:40:00  BASE  1.75224  323  6.2034   18   -1.7  83    -4.1  0     0     1002.3   NA       0.0000   9999     6630  7870  0    
2019/07/15  01:41:00  BASE  1.98744  305  6.2034   18   -1.8  84    -4.1  0     0     1002.3   NA       0.0000   9999     6300  7840  9880 
2019/07/15  01:42:00  BASE  1.8522   303  6.2034   18   -1.9  85    -4.1  0     0     1002.2   NA       0.0000   9999     6140  6760  0    
2019/07/15  01:43:00  BASE  1.77576  319  5.92704  14   -1.9  86    -3.9  0     0     1002.2   NA       0.0000   9999     6070  6790  0    
2019/07/15  01:44:00  BASE  1.69932  337  5.53308  6    -1.8  86    -3.7  0     0     1002.2   NA       0.0000   9999     6330  0     0    
2019/07/15  01:45:00  BASE  1.47     336  5.53308  6    -1.6  87    -3.6  0     0     1002.2   NA       0.0000   9999     9840  0     0    
2019/07/15  01:46:00  BASE  1.34064  327  4.263    350  -1.5  87    -3.5  0     0     1002.2   NA       0.0000   9999     6500  9880  0    
2019/07/15  01:47:00  BASE  1.53468  341  2.81064  321  -1.5  86    -3.5  0     0     1002.2   NA       0.0000   9999     6560  9880  0    
2019/07/15  01:48:00  BASE  2.10504  8    2.93412  27   -1.5  86    -3.5  0     0     1002.2   NA       0.0000   9999     6270  0     0    
2019/07/15  01:49:00  BASE  2.62836  18   3.1752   34   -1.5  86    -3.5  0     0     1002.2   NA       0.0000   9999     6200  0     0    
2019/07/15  01:50:00  BASE  2.69892  11   3.1752   34   -1.6  86    -3.6  0     0     1002.2   NA       0.0000   9999     6200  0     0    
2019/07/15  01:51:00  BASE  2.31672  358  3.1752   34   -1.6  86    -3.6  0     0     1002.1   NA       0.0000   9999     6040  0     0    
2019/07/15  01:52:00  BASE  1.68168  354  3.1752   34   -1.6  87    -3.5  0     0     1002.0   NA       0.0000   9999     5710  0     0    
2019/07/15  01:53:00  BASE  1.28772  9    3.1752   34   -1.6  87    -3.5  0     0     1002.0   NA       0.0000   9999     5940  0     0    
2019/07/15  01:54:00  BASE  1.3818   33   3.1752   34   -1.5  87    -3.4  0     0     1002.0   NA       0.0000   9999     5510  0     0    
2019/07/15  01:55:00  BASE  1.37004  29   3.1752   34   -1.4  87    -3.4  0     0     1002.0   NA       0.0000   9999     5740  0     0    
2019/07/15  01:56:00  BASE  1.53468  10   3.1752   34   -1.3  86    -3.3  0     0     1002.0   NA       0.0000   9999     5510  0     0    
2019/07/15  01:57:00  BASE  2.29908  7    3.1752   34   -1.2  86    -3.3  0     0     1002.0   NA       0.0000   9999     5450  0     0    
2019/07/15  01:58:00  BASE  2.89296  9    3.26928  20   -1.2  85    -3.4  0     0     1002.0   NA       0.0000   9999     5740  0     0    
2019/07/15  01:59:00  BASE  3.03996  14   3.35748  15   -1.2  84    -3.5  0     0     1002.0   NA       0.0000   9999     5640  0     0    
2019/07/15  02:00:00  BASE  2.71068  15   3.35748  15   -1.2  83    -3.6  0     0     1002.0   NA       0.0000   9999     5480  0     0    
2019/07/15  02:01:00  BASE  2.18736  14   3.35748  15   -1.3  83    -3.8  0     0     1002.0   NA       0.0000   9999     5540  0     0    
2019/07/15  02:02:00  BASE  2.29908  24   3.35748  15   -1.3  83    -3.9  0     0     1002.0   NA       0.0000   9999     5910  0     0    
2019/07/15  02:03:00  BASE  2.86944  30   3.35748  15   -1.4  83    -4.0  0     0     1002.0   NA       0.0000   9999     6040  0     0    
2019/07/15  02:04:00  BASE  2.88708  24   3.35748  15   -1.5  83    -4.0  0     0     1002.0   NA       0.0000   9999     5840  0     0    
2019/07/15  02:05:00  BASE  2.25204  21   3.35748  15   -1.5  84    -3.9  0     0     1001.9   NA       0.0000   9999     5640  0     0    
2019/07/15  02:06:00  BASE  1.65228  18   3.35748  15   -1.5  84    -3.9  0     0     1001.8   NA       0.0000   9999     5870  0     0    
2019/07/15  02:07:00  BASE  1.6464   20   3.35748  15   -1.5  84    -3.8  0     0     1001.8   NA       0.0000   9999     5970  0     0    
2019/07/15  02:08:00  BASE  2.06388  28   3.35748  15   -1.4  84    -3.7  0     0     1001.8   NA       0.0000   9999     5840  0     0    
2019/07/15  02:09:00  BASE  2.4108   36   3.26928  36   -1.4  84    -3.7  0     0     1001.9   NA       0.0000   9999     6000  0     0    
2019/07/15  02:10:00  BASE  2.43432  38   3.26928  36   -1.3  84    -3.7  0     0     1002.0   NA       0.0000   9999     5940  0     0    
2019/07/15  02:11:00  BASE  2.12856  39   3.26928  36   -1.2  83    -3.7  0     0     1002.0   NA       0.0000   9999     5910  0     0    
2019/07/15  02:12:00  BASE  1.95216  49   3.26928  36   -1.1  82    -3.8  0     0     1002.0   NA       0.0000   9999     6040  0     0    
2019/07/15  02:13:00  BASE  2.04624  52   2.96352  22   -0.9  80    -3.9  0     0     1002.0   NA       0.0000   9999     5970  0     0    
2019/07/15  02:14:00  BASE  2.11092  28   2.93412  34   -0.8  79    -4.0  0     0     1002.0   NA       0.0000   9999     5970  0     0    
2019/07/15  02:15:00  BASE  2.56956  360  3.29868  2    -0.7  77    -4.2  0     0     1001.9   NA       0.0000   9999     6100  0     0    
2019/07/15  02:16:00  BASE  3.06348  342  3.35748  335  -0.6  76    -4.3  0     0     1001.8   NA       0.0000   9999     5770  0     0    
2019/07/15  02:17:00  BASE  2.6754   337  3.35748  335  -0.6  75    -4.5  0     0     1001.8   NA       0.0000   9999     5610  0     0    
2019/07/15  02:18:00  BASE  1.80516  343  3.35748  335  -0.6  74    -4.6  0     0     1001.8   NA       0.0000   9999     5840  0     0    
2019/07/15  02:19:00  BASE  1.52292  346  3.35748  335  -0.7  74    -4.7  0     0     1001.8   NA       0.0000   9999     5680  0     0    
2019/07/15  02:20:00  BASE  1.86984  346  3.35748  335  -0.7  74    -4.7  0     0     1001.8   NA       0.0000   9999     5840  0     0    
2019/07/15  02:21:00  BASE  2.1462   345  3.35748  335  -0.8  74    -4.7  0     0     1001.7   NA       0.0000   9999     5610  0     0    
2019/07/15  02:22:00  BASE  2.25204  339  3.35748  335  -0.7  75    -4.6  0     0     1001.7   NA       0.0000   9999     5870  0     0    
2019/07/15  02:23:00  BASE  2.48136  333  3.35748  335  -0.7  75    -4.6  0     0     1001.6   NA       0.0000   9999     5940  0     0    
2019/07/15  02:24:00  BASE  2.66364  334  3.35748  335  -0.6  75    -4.6  0     0     1001.6   NA       0.0000   9999     5840  0     0    
2019/07/15  02:25:00  BASE  2.58132  337  3.35748  335  -0.6  75    -4.6  0     0     1001.6   NA       0.0000   9999     5870  0     0    
2019/07/15  02:26:00  BASE  2.45784  343  3.2046   337  -0.6  75    -4.5  0     0     1001.6   NA       0.0000   9999     5910  0     0    
2019/07/15  02:27:00  BASE  2.33436  347  3.2046   337  -0.6  75    -4.5  0     0     1001.6   NA       0.0000   9999     5870  0     0    
2019/07/15  02:28:00  BASE  2.11092  353  3.2046   337  -0.7  75    -4.5  0     0     1001.6   NA       0.0000   9999     5810  0     0    
2019/07/15  02:29:01  BASE  1.64052  9    3.2046   337  -0.7  76    -4.4  0     0     1001.6   NA       0.0000   9999     5810  0     0    
2019/07/15  02:30:00  BASE  1.32888  31   3.2046   337  -0.8  77    -4.4  0     0     1001.7   NA       0.0000   9999     5870  0     0    
2019/07/15  02:31:00  BASE  1.55232  49   3.2046   337  -0.8  77    -4.3  0     0     1001.7   NA       0.0000   9999     5840  0     0    
2019/07/15  02:32:00  BASE  1.83456  62   3.2046   337  -0.8  78    -4.2  0     0     1001.7   NA       0.0000   9999     5840  0     0    
2019/07/15  02:33:00  BASE  1.65228  66   3.1458   332  -0.7  77    -4.2  0     0     1001.7   NA       0.0000   9999     5840  0     0    
2019/07/15  02:34:00  BASE  1.45236  59   2.87532  349  -0.6  76    -4.2  0     0     1001.6   NA       0.0000   9999     5810  0     0    
2019/07/15  02:35:00  BASE  1.6464   48   2.87532  349  -0.4  75    -4.3  0     0     1001.6   NA       0.0000   9999     5770  0     0    
2019/07/15  02:36:00  BASE  1.86396  46   2.42256  342  -0.2  73    -4.5  0     0     1001.6   NA       0.0000   9999     5810  0     0    
2019/07/15  02:37:00  BASE  1.68168  47   2.21088  352  -0.1  71    -4.7  0     0     1001.6   NA       0.0000   9999     5840  0     0    
2019/07/15  02:38:00  BASE  1.1466   54   2.1462   49   -0.0  70    -4.9  0     0     1001.5   NA       0.0000   9999     5910  0     0    
2019/07/15  02:39:00  BASE  0.45864  78   2.1462   49   0.0   69    -4.9  0     0     1001.5   NA       0.0000   9999     5770  0     0    
2019/07/15  02:40:00  BASE  0.2352   109  2.1462   49   0.0   69    -5.0  0     0     1001.5   NA       0.0000   9999     5870  0     0    
2019/07/15  02:41:00  BASE  0.86436  119  2.1462   49   0.0   69    -5.1  0     0     1001.5   NA       0.0000   9999     5910  0     0    
2019/07/15  02:42:00  BASE  1.09368  106  2.1462   49   -0.1  69    -5.1  0     0     1001.5   NA       0.0000   9999     5940  0     0    
2019/07/15  02:43:00  BASE  0.87612  69   2.1462   49   -0.2  69    -5.2  0     0     1001.4   NA       0.0000   9999     5940  0     0    
2019/07/15  02:44:00  BASE  1.0584   17   2.1462   49   -0.3  70    -5.2  0     0     1001.4   NA       0.0000   9999     5810  0     0    
2019/07/15  02:45:00  BASE  1.21128  345  2.1462   49   -0.3  70    -5.0  0     0     1001.3   NA       0.0000   9999     5840  0     0    
2019/07/15  02:46:00  BASE  1.2054   323  1.93452  48   -0.2  71    -4.9  0     0     1001.3   NA       0.0000   9999     5840  0     0    
2019/07/15  02:47:00  BASE  1.31124  316  1.57584  310  -0.1  71    -4.8  0     0     1001.3   NA       0.0000   9999     5810  0     0    
2019/07/15  02:48:00  BASE  1.3818   319  1.57584  310  0.0   70    -4.8  0     0     1001.2   NA       0.0000   9999     5810  0     0    
2019/07/15  02:49:01  BASE  1.4112   321  1.57584  324  0.1   69    -4.9  0     0     1001.1   NA       0.0000   9999     5770  0     0    
2019/07/15  02:50:00  BASE  1.6464   319  1.96392  320  0.1   69    -5.0  0     0     1001.1   NA       0.0000   9999     5640  0     0    
2019/07/15  02:51:00  BASE  1.76988  315  1.96392  320  0.0   68    -5.1  0     0     1001.1   NA       0.0000   9999     5680  0     0    
2019/07/15  02:52:00  BASE  1.74048  319  2.0286   317  -0.0  69    -5.1  0     0     1001.2   NA       0.0000   9999     5770  0     0    
2019/07/15  02:53:00  BASE  1.5876   324  2.0286   317  -0.1  69    -5.1  0     0     1001.3   NA       0.0000   9999     5770  0     0    
2019/07/15  02:54:00  BASE  1.65816  323  2.21088  328  -0.1  69    -5.1  0     0     1001.3   NA       0.0000   9999     5710  0     0    
2019/07/15  02:55:00  BASE  2.06976  330  2.29908  344  -0.1  69    -5.1  0     0     1001.2   NA       0.0000   9999     5770  0     0    
2019/07/15  02:56:00  BASE  2.44608  340  3.02232  342  -0.2  70    -5.1  0     0     1001.1   NA       0.0000   9999     5740  0     0    
2019/07/15  02:57:00  BASE  2.95764  343  3.48096  343  -0.2  70    -5.0  0     0     1001.1   NA       0.0000   9999     5840  0     0    
2019/07/15  02:58:00  BASE  2.96352  345  3.48096  343  -0.3  71    -4.9  0     0     1001.2   NA       0.0000   9999     5840  0     0    
2019/07/15  02:59:00  BASE  2.24028  355  3.48096  343  -0.4  72    -4.8  0     0     1001.3   NA       0.0000   9999     5810  0     0    
2019/07/15  03:00:00  BASE  1.48176  1    3.48096  343  -0.4  73    -4.6  0     0     1001.3   NA       0.0000   9999     5840  0     0    
2019/07/15  03:01:00  BASE  1.08192  1    3.48096  343  -0.5  75    -4.5  0     0     1001.3   NA       0.0000   9999     5840  0     0    
2019/07/15  03:02:00  BASE  1.11132  6    3.48096  343  -0.6  76    -4.3  0     0     1001.3   NA       0.0000   9999     5840  0     0    
2019/07/15  03:03:00  BASE  1.47     5    3.48096  343  -0.6  76    -4.2  0     0     1001.3   NA       0.0000   9999     5840  0     0    
2019/07/15  03:04:00  BASE  1.76988  0    3.48096  343  -0.6  77    -4.1  0     0     1001.3   NA       0.0000   9999     5840  0     0    
2019/07/15  03:05:00  BASE  1.77576  2    3.48096  343  -0.6  77    -4.1  0     0     1001.3   NA       0.0000   9999     5840  0     0    
2019/07/15  03:06:00  BASE  1.75812  356  3.48096  343  -0.5  77    -4.1  0     0     1001.2   NA       0.0000   9999     5810  0     0    
2019/07/15  03:07:00  BASE  1.58172  355  3.2046   344  -0.5  77    -4.1  0     0     1001.2   NA       0.0000   9999     5870  0     0    
2019/07/15  03:08:00  BASE  1.42296  1    2.1756   352  -0.5  77    -4.1  0     0     1001.2   NA       0.0000   9999     5940  0     0    
2019/07/15  03:09:00  BASE  1.617    2    2.0874   360  -0.4  76    -4.1  0     0     1001.2   NA       0.0000   9999     5840  0     0    
2019/07/15  03:10:00  BASE  1.9404   4    2.54016  360  -0.3  76    -4.1  0     0     1001.3   NA       0.0000   9999     5770  0     0    
2019/07/15  03:11:00  BASE  2.31672  3    2.72244  2    -0.3  75    -4.2  0     0     1001.2   NA       0.0000   9999     5870  0     0    
2019/07/15  03:12:00  BASE  2.53428  1    2.90472  351  -0.3  74    -4.3  0     0     1001.1   NA       0.0000   9999     6170  0     0    
2019/07/15  03:13:00  BASE  2.34612  351  2.90472  351  -0.3  74    -4.4  0     0     1001.1   NA       0.0000   9999     6230  0     0    
2019/07/15  03:14:00  BASE  1.85808  344  2.90472  351  -0.3  74    -4.4  0     0     1001.1   NA       0.0000   9999     6530  0     0    
2019/07/15  03:15:00  BASE  1.25244  353  2.90472  351  -0.3  74    -4.4  0     0     1001.0   NA       0.0000   9999     6330  0     0    
2019/07/15  03:16:00  BASE  0.79968  12   2.90472  351  -0.3  73    -4.4  0     0     1001.0   NA       0.0000   9999     5910  0     0    
2019/07/15  03:17:00  BASE  0.57036  29   2.90472  351  -0.3  73    -4.5  0     0     1001.0   NA       0.0000   9999     5610  0     0    
2019/07/15  03:18:00  BASE  0.68796  36   2.90472  351  -0.3  73    -4.5  0     0     1001.0   NA       0.0000   9999     5770  0     0    
2019/07/15  03:19:00  BASE  1.04076  31   2.90472  351  -0.2  73    -4.5  0     0     1000.9   NA       0.0000   9999     5840  0     0    
2019/07/15  03:20:00  BASE  1.38768  26   2.90472  351  -0.2  73    -4.5  0     0     1000.9   NA       0.0000   9999     6300  0     0    
2019/07/15  03:21:00  BASE  1.64052  24   2.90472  351  -0.2  73    -4.5  0     0     1000.9   NA       0.0000   9999     6200  0     0    
2019/07/15  03:22:00  BASE  1.66404  21   2.48136  339  -0.1  73    -4.4  0     0     1000.9   NA       0.0000   9999     6100  0     0    
2019/07/15  03:23:00  BASE  1.46412  20   1.87572  346  -0.0  72    -4.4  0     0     1000.9   NA       0.0000   9999     6000  0     0    
2019/07/15  03:24:00  BASE  1.11132  21   1.72284  22   0.0   72    -4.4  0     0     1000.9   NA       0.0000   9999     6070  0     0    
2019/07/15  03:25:00  BASE  0.72912  23   1.72284  22   0.1   72    -4.4  0     0     1000.9   NA       0.0000   9999     6300  0     0    
2019/07/15  03:26:00  BASE  0.25872  26   1.72284  22   0.2   71    -4.4  0     0     1000.8   NA       0.0000   9999     6300  0     0    
2019/07/15  03:27:00  BASE  0        28   1.72284  22   0.3   70    -4.5  0     0     1000.8   NA       0.0000   9999     6140  0     0    
2019/07/15  03:28:00  BASE  0        26   1.72284  22   0.3   70    -4.6  0     0     1000.8   NA       0.0000   9999     6200  0     0    
2019/07/15  03:29:00  BASE  0.0294   2    1.72284  22   0.4   69    -4.6  0     0     1000.8   NA       0.0000   9999     6370  0     0    
2019/07/15  03:30:00  BASE  0.37632  322  1.72284  22   0.5   68    -4.6  0     0     1000.8   NA       0.0000   9999     6270  0     0    
2019/07/15  03:31:00  BASE  0.75264  314  1.72284  22   0.6   68    -4.7  0     0     1000.8   NA       0.0000   9999     6430  0     0    
2019/07/15  03:32:00  BASE  0.8232   317  1.42296  16   0.7   67    -4.7  0     0     1000.7   NA       0.0000   9999     6330  0     0    
2019/07/15  03:33:00  BASE  0.78792  313  1.1466   21   0.7   67    -4.8  0     0     1000.7   NA       0.0000   9999     6270  0     0    
2019/07/15  03:34:00  BASE  0.59976  313  0.93492  313  0.7   66    -4.9  0     0     1000.7   NA       0.0000   9999     6330  0     0    
2019/07/15  03:35:00  BASE  0.22932  313  0.93492  313  0.6   66    -4.9  0     0     1000.7   NA       0.0000   9999     6230  0     0    
2019/07/15  03:36:00  BASE  0        316  0.93492  313  0.6   66    -5.0  0     0     1000.7   NA       0.0000   9999     6690  0     0    
2019/07/15  03:37:00  BASE  0.41748  327  0.93492  336  0.5   67    -5.0  0     0     1000.7   NA       0.0000   9999     6630  0     0    
2019/07/15  03:38:00  BASE  0.93492  336  1.1172   336  0.5   67    -5.0  0     0     1000.7   NA       0.0000   9999     6760  0     0    
2019/07/15  03:39:00  BASE  1.09368  336  1.21128  335  0.5   67    -4.9  0     0     1000.7   NA       0.0000   9999     6760  0     0    
2019/07/15  03:40:00  BASE  1.19364  334  1.27008  332  0.5   67    -5.0  0     0     1000.6   NA       0.0000   9999     6560  0     0    
2019/07/15  03:41:00  BASE  1.21716  326  1.27008  316  0.5   67    -4.9  0     0     1000.5   NA       0.0000   9999     6630  0     0    
2019/07/15  03:42:00  BASE  1.10544  316  1.27008  316  0.4   67    -4.9  0     0     1000.6   NA       0.0000   9999     6630  0     0    
2019/07/15  03:43:00  BASE  0.90552  311  1.27008  316  0.4   68    -4.9  0     0     1000.7   NA       0.0000   9999     6730  0     0    
2019/07/15  03:44:00  BASE  0.83496  312  1.27008  316  0.4   68    -4.9  0     0     1000.6   NA       0.0000   9999     6690  0     0    
2019/07/15  03:45:00  BASE  0.95256  314  1.27008  316  0.4   68    -4.8  0     0     1000.6   NA       0.0000   9999     6760  0     0    
2019/07/15  03:46:00  BASE  1.08192  314  1.27008  316  0.4   68    -4.8  0     0     1000.5   NA       0.0000   9999     6630  0     0    
2019/07/15  03:47:00  BASE  1.22892  317  1.42296  321  0.4   68    -4.9  0     0     1000.5   NA       0.0000   9999     6730  0     0    
2019/07/15  03:48:00  BASE  1.39944  321  1.48176  324  0.2   68    -5.0  0     0     1000.5   NA       0.0000   9999     6730  0     0    
2019/07/15  03:49:00  BASE  1.31712  326  1.48176  324  -0.0  69    -5.0  0     0     1000.5   NA       0.0000   9999     6820  0     0    
2019/07/15  03:50:00  BASE  0.95256  327  1.48176  324  -0.3  71    -5.0  0     0     1000.6   NA       0.0000   9999     6430  0     0    
2019/07/15  03:51:00  BASE  0.35868  323  1.48176  324  -0.4  73    -4.7  0     0     1000.7   NA       0.0000   9999     6690  0     0    
2019/07/15  03:52:00  BASE  0        321  1.48176  324  -0.4  74    -4.5  0     0     1000.7   NA       0.0000   9999     6730  0     0    
2019/07/15  03:53:00  BASE  0        325  1.48176  324  -0.2  74    -4.3  0     0     1000.7   NA       0.0000   9999     6790  0     0    
2019/07/15  03:54:00  BASE  0        353  1.48176  324  0.0   73    -4.2  0     0     1000.7   NA       0.0000   9999     6890  0     0    
2019/07/15  03:55:00  BASE  0        15   1.48176  324  0.3   72    -4.2  0     0     1000.7   NA       0.0000   9999     6500  0     0    
2019/07/15  03:56:00  BASE  0.02352  22   1.48176  324  0.4   70    -4.5  0     0     1000.7   NA       0.0000   9999     6370  0     0    
2019/07/15  03:57:00  BASE  0.147    20   1.48176  324  0.3   69    -4.7  0     0     1000.7   NA       0.0000   9999     6660  0     0    
2019/07/15  03:58:00  BASE  0.69384  4    1.45236  8    0.3   69    -4.8  0     0     1000.7   NA       0.0000   9999     5840  0     0    
2019/07/15  03:59:00  BASE  1.323    7    1.57584  18   0.2   69    -4.9  0     0     1000.7   NA       0.0000   9999     5870  0     0    
2019/07/15  04:00:00  BASE  1.34652  12   1.57584  18   0.0   69    -4.9  0     0     1000.6   NA       0.0000   9999     6630  0     0    
2019/07/15  04:01:00  BASE  0.7938   355  1.57584  18   -0.2  70    -4.9  0     0     1000.5   NA       0.0000   9999     5940  0     0    
2019/07/15  04:02:00  BASE  0.19404  337  1.57584  18   -0.2  72    -4.7  0     0     1000.5   NA       0.0000   9999     5450  0     0    
2019/07/15  04:03:00  BASE  0.0294   341  1.57584  18   -0.2  72    -4.6  0     0     1000.6   NA       0.0000   9999     5640  0     0    
2019/07/15  04:04:00  BASE  0.51744  11   1.69344  27   -0.2  73    -4.5  0     0     1000.7   NA       0.0000   9999     6300  0     0    
2019/07/15  04:05:00  BASE  1.52292  28   2.48136  29   -0.1  73    -4.4  0     0     1000.7   NA       0.0000   9999     5870  0     0    
2019/07/15  04:06:00  BASE  2.13444  31   2.48136  29   -0.0  72    -4.4  0     0     1000.6   NA       0.0000   9999     6990  0     0    
2019/07/15  04:07:00  BASE  1.96392  28   2.48136  29   -0.1  72    -4.6  0     0     1000.5   NA       0.0000   9999     6730  0     0    
2019/07/15  04:08:00  BASE  1.27596  12   2.48136  29   -0.2  72    -4.7  0     0     1000.4   NA       0.0000   9999     6730  0     0    
2019/07/15  04:09:00  BASE  0.78204  359  2.48136  29   -0.4  73    -4.7  0     0     1000.4   NA       0.0000   9999     6690  0     0    
2019/07/15  04:10:00  BASE  0.82908  13   2.48136  29   -0.6  75    -4.5  0     0     1000.4   NA       0.0000   9999     6690  0     0    
2019/07/15  04:11:00  BASE  1.41708  32   2.48136  29   -0.6  76    -4.3  0     0     1000.4   NA       0.0000   9999     7050  0     0    
2019/07/15  04:12:00  BASE  2.10504  36   2.48136  29   -0.6  77    -4.1  0     0     1000.4   NA       0.0000   9999     7220  0     0    
2019/07/15  04:13:00  BASE  2.11092  26   2.48136  29   -0.6  78    -4.0  0     0     1000.4   NA       0.0000   9999     7050  0     0    
2019/07/15  04:14:00  BASE  1.69932  9    2.48136  29   -0.5  78    -3.8  0     0     1000.3   NA       0.0000   9999     6890  0     0    
2019/07/15  04:15:00  BASE  1.34652  348  2.45196  39   -0.5  78    -3.8  0     0     1000.3   NA       0.0000   9999     6660  0     0    
2019/07/15  04:16:00  BASE  1.176    336  2.45196  39   -0.5  79    -3.7  0     0     1000.3   NA       0.0000   9999     6730  0     0    
2019/07/15  04:17:00  BASE  1.15836  342  2.45196  39   -0.4  79    -3.6  0     0     1000.3   NA       0.0000   9999     6820  0     0    
2019/07/15  04:18:00  BASE  1.33476  358  2.45196  39   -0.3  80    -3.4  0     0     1000.3   NA       0.0000   9999     6630  0     0    
2019/07/15  04:19:00  BASE  1.56996  0    2.45196  39   -0.3  79    -3.4  0     0     1000.2   NA       0.0000   9999     6430  0     0    
2019/07/15  04:20:00  BASE  1.7052   353  2.45196  39   -0.3  79    -3.5  0     0     1000.2   NA       0.0000   9999     6140  0     0    
2019/07/15  04:21:00  BASE  1.66404  349  2.45196  39   -0.4  79    -3.6  0     0     1000.2   NA       0.0000   9999     5940  0     0    
2019/07/15  04:22:00  BASE  1.4112   358  2.1462   23   -0.5  80    -3.6  0     0     1000.3   NA       0.0000   9999     6100  0     0    
2019/07/15  04:23:00  BASE  1.11132  21   1.81692  350  -0.6  80    -3.6  0     0     1000.3   NA       0.0000   9999     6230  0     0    
2019/07/15  04:24:00  BASE  0.9702   43   1.81692  350  -0.7  81    -3.5  0     0     1000.3   NA       0.0000   9999     6170  0     0    
2019/07/15  04:25:00  BASE  0.98784  64   1.81692  350  -0.7  82    -3.4  0     0     1000.2   NA       0.0000   9999     6000  0     0    
2019/07/15  04:26:00  BASE  0.54684  57   1.81692  350  -0.6  82    -3.2  0     0     1000.2   NA       0.0000   9999     6100  0     0    
2019/07/15  04:27:00  BASE  0.27636  322  1.81692  350  -0.5  83    -3.1  0     0     1000.1   NA       0.0000   9999     6040  0     0    
2019/07/15  04:28:00  BASE  0.88788  285  1.81692  350  -0.4  82    -3.0  0     0     1000.1   NA       0.0000   9999     5810  0     0    
2019/07/15  04:29:00  BASE  1.4994   298  1.93452  309  -0.2  82    -3.0  0     0     1000.0   NA       0.0000   9999     5450  0     0    
2019/07/15  04:30:00  BASE  1.9404   314  2.35788  331  -0.1  81    -3.1  0     0     999.9    NA       0.0000   9999     5640  0     0    
2019/07/15  04:31:00  BASE  2.25204  330  2.48136  344  -0.1  79    -3.2  0     0     999.9    NA       0.0000   9999     5640  0     0    
2019/07/15  04:32:00  BASE  2.25204  341  2.48136  344  -0.0  78    -3.4  0     0     999.9    NA       0.0000   9999     5610  0     0    
2019/07/15  04:33:00  BASE  1.98156  349  2.48136  344  -0.1  77    -3.5  0     0     999.9    NA       0.0000   9999     5770  0     0    
2019/07/15  04:34:00  BASE  1.56408  354  2.48136  344  -0.1  77    -3.6  0     0     999.9    NA       0.0000   9999     5640  0     0    
2019/07/15  04:35:00  BASE  1.14072  353  2.48136  344  -0.1  77    -3.7  0     0     999.9    NA       0.0000   9999     5250  0     0    
2019/07/15  04:36:00  BASE  0.87612  2    2.48136  344  -0.1  77    -3.7  0     0     999.9    NA       0.0000   9999     5090  0     0    
2019/07/15  04:37:00  BASE  1.17012  36   2.48136  344  -0.1  77    -3.8  0     0     999.9    NA       0.0000   9999     5710  0     0    
2019/07/15  04:38:00  BASE  1.89924  51   2.56956  52   -0.1  77    -3.7  0     0     999.9    NA       0.0000   9999     5710  0     0    
2019/07/15  04:39:00  BASE  2.0874   43   2.56956  52   -0.1  77    -3.7  0     0     999.9    NA       0.0000   9999     5580  0     0    
2019/07/15  04:40:00  BASE  1.80516  21   2.56956  52   -0.1  77    -3.7  0     0     999.8    NA       0.0000   9999     5380  0     0    
2019/07/15  04:41:00  BASE  1.68756  5    2.56956  52   -0.1  77    -3.7  0     0     999.8    NA       0.0000   9999     5350  0     0    
2019/07/15  04:42:00  BASE  1.764    6    2.56956  52   -0.1  77    -3.6  0     0     999.7    NA       0.0000   9999     5220  0     0    
2019/07/15  04:43:00  BASE  1.84632  18   2.56956  52   -0.2  78    -3.6  0     0     999.7    NA       0.0000   9999     5320  0     0    
2019/07/15  04:44:00  BASE  1.84044  27   2.56956  52   -0.3  78    -3.7  0     0     999.7    NA       0.0000   9999     5640  0     0    
2019/07/15  04:45:00  BASE  1.82868  29   2.56956  52   -0.5  79    -3.6  0     0     999.7    NA       0.0000   9999     5810  0     0    
2019/07/15  04:46:00  BASE  1.75812  31   2.56956  52   -0.6  80    -3.6  0     0     999.7    NA       0.0000   9999     5480  0     0    
2019/07/15  04:47:00  BASE  1.76988  25   2.56956  52   -0.6  81    -3.5  0     0     999.7    NA       0.0000   9999     5320  0     0    
2019/07/15  04:48:00  BASE  1.7934   18   2.42256  48   -0.6  82    -3.3  0     0     999.7    NA       0.0000   9999     5150  0     0    
2019/07/15  04:49:00  BASE  1.8816   12   2.42256  2    -0.6  83    -3.1  0     0     999.7    NA       0.0000   9999     5020  0     0    
2019/07/15  04:50:00  BASE  2.09916  2    2.56956  2    -0.5  83    -3.0  0     0     999.7    NA       0.0000   9999     5350  0     0    
2019/07/15  04:51:00  BASE  1.8522   3    2.56956  2    -0.4  83    -3.0  0     0     999.6    NA       0.0000   9999     5540  0     0    
2019/07/15  04:52:00  BASE  1.50528  0    2.56956  2    -0.4  83    -2.9  0     0     999.6    NA       0.0000   9999     5540  0     0    
2019/07/15  04:53:00  BASE  1.39944  353  2.56956  2    -0.3  83    -2.9  0     0     999.6    NA       0.0000   9999     5380  0     0    
2019/07/15  04:54:00  BASE  1.51116  352  2.56956  2    -0.2  82    -2.9  0     0     999.5    NA       0.0000   9999     5450  0     0    
2019/07/15  04:55:00  BASE  1.75812  352  2.56956  2    -0.2  82    -2.9  0     0     999.5    NA       0.0000   9999     5610  0     0    
2019/07/15  04:56:00  BASE  1.72872  353  2.56956  2    -0.1  81    -3.0  0     0     999.5    NA       0.0000   9999     5510  0     0    
2019/07/15  04:57:00  BASE  1.3524   5    2.56956  2    -0.1  80    -3.1  0     0     999.5    NA       0.0000   9999     5410  0     0    
2019/07/15  04:58:00  BASE  0.75852  20   2.56956  2    -0.1  80    -3.2  0     0     999.4    NA       0.0000   9999     5480  0     0    
2019/07/15  04:59:00  BASE  0.60564  6    2.56956  2    -0.1  79    -3.2  0     0     999.4    NA       0.0000   9999     5350  0     0    
2019/07/15  05:00:00  BASE  0.74676  359  2.1462   354  -0.1  79    -3.2  0     0     999.4    NA       0.0000   9999     5350  0     0    
2019/07/15  05:01:00  BASE  0.81144  4    2.1462   354  -0.1  79    -3.2  0     0     999.4    NA       0.0000   9999     5410  0     0    
2019/07/15  05:02:00  BASE  1.029    360  2.1462   354  -0.0  79    -3.2  0     0     999.4    NA       0.0000   9999     5680  0     0    
2019/07/15  05:03:00  BASE  1.3818   1    2.1462   354  0.0   79    -3.2  0     0     999.4    NA       0.0000   9999     5710  0     0    
2019/07/15  05:04:00  BASE  1.69344  360  2.1462   354  0.0   79    -3.2  0     0     999.4    NA       0.0000   9999     5610  0     0    
2019/07/15  05:05:00  BASE  1.88748  357  2.29908  353  -0.0  79    -3.3  0     0     999.3    NA       0.0000   9999     6070  0     0    
2019/07/15  05:06:00  BASE  2.08152  354  2.35788  343  -0.0  79    -3.3  0     0     999.3    NA       0.0000   9999     5740  0     0    
2019/07/15  05:07:00  BASE  2.1462   348  2.48136  339  -0.1  79    -3.3  0     0     999.3    NA       0.0000   9999     5910  0     0    
2019/07/15  05:08:00  BASE  2.09328  340  2.48136  339  -0.2  79    -3.3  0     0     999.3    NA       0.0000   9999     5770  0     0    
2019/07/15  05:09:00  BASE  2.06976  334  2.48136  339  -0.3  80    -3.4  0     0     999.3    NA       0.0000   9999     5680  0     0    
2019/07/15  05:10:00  BASE  2.0874   331  2.48136  339  -0.4  80    -3.4  0     0     999.2    NA       0.0000   9999     5710  0     0    
2019/07/15  05:11:00  BASE  2.25792  332  2.48136  339  -0.6  81    -3.4  0     0     999.2    NA       0.0000   9999     5640  0     0    
2019/07/15  05:12:00  BASE  2.31084  336  2.48136  339  -0.7  82    -3.4  0     0     999.2    NA       0.0000   9999     5480  0     0    
2019/07/15  05:13:00  BASE  2.21088  339  2.48136  339  -0.8  83    -3.3  0     0     999.2    NA       0.0000   9999     5320  0     0    
2019/07/15  05:14:00  BASE  2.18148  339  2.48136  339  -0.9  84    -3.3  0     0     999.1    NA       0.0000   9999     5120  0     0    
2019/07/15  05:15:00  BASE  2.29908  337  2.63424  335  -0.9  84    -3.2  0     0     999.1    NA       0.0000   9999     5120  0     0    
2019/07/15  05:16:00  BASE  2.56956  336  2.81064  339  -0.8  85    -3.1  0     0     999.1    NA       0.0000   9999     5250  0     0    
2019/07/15  05:17:00  BASE  2.56368  338  2.81064  339  -0.8  85    -3.0  0     0     999.1    NA       0.0000   9999     5250  0     0    
2019/07/15  05:18:00  BASE  2.06976  335  2.81064  339  -0.8  86    -2.9  0     0     999.1    NA       0.0000   9999     5350  0     0    
2019/07/15  05:19:00  BASE  1.4112   327  2.81064  339  -0.8  86    -2.9  0     0     999.1    NA       0.0000   9999     5320  0     0    
2019/07/15  05:20:00  BASE  0.8232   313  2.81064  339  -0.8  86    -2.8  0     0     999.1    NA       0.0000   9999     5350  0     0    
2019/07/15  05:21:00  BASE  0.61152  297  2.81064  339  -0.8  86    -2.8  0     0     999.1    NA       0.0000   9999     4630  0     0    
2019/07/15  05:22:00  BASE  0.4998   277  2.81064  339  -0.8  87    -2.7  0     0     999.1    NA       0.0000   9999     0     0     0    
2019/07/15  05:23:00  BASE  0.24696  257  2.81064  339  -0.7  87    -2.6  0     0     999.1    NA       0.0000   9999     0     0     0    
2019/07/15  05:24:00  BASE  0.08232  264  2.81064  339  -0.7  87    -2.6  0     0     999.1    NA       0.0000   9999     5220  0     0    
2019/07/15  05:25:00  BASE  0.51156  295  2.81064  339  -0.6  87    -2.5  0     0     999.1    NA       0.0000   9999     0     0     0    
2019/07/15  05:26:00  BASE  1.34064  297  2.63424  338  -0.5  87    -2.4  0     0     999.1    NA       0.0000   9999     0     0     0    
2019/07/15  05:27:00  BASE  1.94628  296  2.81064  307  -0.4  87    -2.4  0     0     999.0    NA       0.0000   9999     0     0     0    
2019/07/15  05:28:00  BASE  2.5284   302  3.0576   306  -0.4  86    -2.4  0     0     998.9    NA       0.0000   9999     0     0     0    
2019/07/15  05:29:00  BASE  3.03996  306  3.44568  308  -0.3  86    -2.3  0     0     998.9    NA       0.0000   9999     5710  0     0    
2019/07/15  05:30:00  BASE  3.39276  313  3.62796  323  -0.2  86    -2.3  0     0     998.9    NA       0.0000   9999     6070  0     0    
2019/07/15  05:31:00  BASE  3.69852  323  3.93372  329  -0.2  86    -2.3  0     0     998.9    NA       0.0000   9999     6100  0     0    
2019/07/15  05:32:00  BASE  3.75732  328  3.96312  330  -0.2  85    -2.3  0     0     998.9    NA       0.0000   9999     6590  0     0    
2019/07/15  05:33:00  BASE  3.38688  328  3.96312  330  -0.2  85    -2.4  0     0     998.9    NA       0.0000   9999     6500  0     0    
2019/07/15  05:34:00  BASE  2.98116  326  3.96312  330  -0.2  85    -2.5  0     0     998.8    NA       0.0000   9999     6330  0     0    
2019/07/15  05:35:00  BASE  2.71068  318  3.96312  330  -0.3  85    -2.5  0     0     998.8    NA       0.0000   9999     6270  0     0    
2019/07/15  05:36:00  BASE  2.55192  307  3.96312  330  -0.4  85    -2.5  0     0     998.6    NA       0.0000   9999     6330  0     0    
2019/07/15  05:37:00  BASE  2.57544  309  3.96312  330  -0.4  85    -2.5  0     0     998.6    NA       0.0000   9999     6530  0     0    
2019/07/15  05:38:00  BASE  2.84004  324  3.96312  330  -0.4  86    -2.5  0     0     998.7    NA       0.0000   9999     6660  0     0    
2019/07/15  05:39:01  BASE  3.18696  338  3.96312  330  -0.4  86    -2.5  0     0     998.6    NA       0.0000   9999     6400  0     0    
2019/07/15  05:40:00  BASE  3.21048  342  3.96312  330  -0.4  86    -2.5  0     0     998.6    NA       0.0000   9999     6690  0     0    
2019/07/15  05:41:00  BASE  2.793    330  3.96312  330  -0.4  86    -2.5  0     0     998.6    NA       0.0000   9999     6560  0     0    
2019/07/15  05:42:00  BASE  2.34612  311  3.41628  344  -0.4  86    -2.5  0     0     998.5    NA       0.0000   9999     6690  0     0    
2019/07/15  05:43:00  BASE  2.09916  304  3.41628  344  -0.4  86    -2.5  0     0     998.5    NA       0.0000   9999     6690  0     0    
2019/07/15  05:44:00  BASE  1.84632  305  3.41628  344  -0.3  86    -2.4  0     0     998.5    NA       0.0000   9999     6330  0     0    
2019/07/15  05:45:00  BASE  1.43472  303  3.41628  344  -0.3  85    -2.4  0     0     998.5    NA       0.0000   9999     6430  0     0    
2019/07/15  05:46:00  BASE  1.03488  292  3.41628  344  -0.2  85    -2.4  0     0     998.5    NA       0.0000   9999     6820  0     0    
2019/07/15  05:47:00  BASE  0.51156  263  3.41628  344  -0.3  85    -2.5  0     0     998.5    NA       0.0000   9999     6460  0     0    
2019/07/15  05:48:00  BASE  0.0588   231  3.41628  344  -0.3  85    -2.5  0     0     998.5    NA       0.0000   9999     6730  0     0    
2019/07/15  05:49:00  BASE  0.25284  301  3.41628  344  -0.3  85    -2.5  0     0     998.5    NA       0.0000   9999     6920  0     0    
2019/07/15  05:50:00  BASE  0.78204  326  2.75184  324  -0.4  85    -2.5  0     0     998.5    NA       0.0000   9999     6820  0     0    
2019/07/15  05:51:00  BASE  1.19364  303  2.32848  302  -0.4  86    -2.5  0     0     998.4    NA       0.0000   9999     7090  0     0    
2019/07/15  05:52:00  BASE  1.47     291  2.1168   302  -0.5  86    -2.6  0     0     998.4    NA       0.0000   9999     7640  0     0    
2019/07/15  05:53:00  BASE  1.64052  299  1.90512  308  -0.5  86    -2.6  0     0     998.4    NA       0.0000   9999     7710  0     0    
2019/07/15  05:54:00  BASE  1.68168  309  2.058    306  -0.6  86    -2.6  0     0     998.4    NA       0.0000   9999     7810  0     0    
2019/07/15  05:55:00  BASE  1.68168  319  2.058    306  -0.6  86    -2.6  0     0     998.4    NA       0.0000   9999     7050  0     0    
2019/07/15  05:56:00  BASE  1.78752  325  2.1756   323  -0.7  87    -2.6  0     0     998.4    NA       0.0000   9999     7640  0     0    
2019/07/15  05:57:00  BASE  1.92276  327  2.1756   323  -0.7  87    -2.6  0     0     998.4    NA       0.0000   9999     7050  0     0    
2019/07/15  05:58:00  BASE  1.7052   329  2.1756   323  -0.6  87    -2.5  0     0     998.4    NA       0.0000   9999     6960  0     0    
2019/07/15  05:59:00  BASE  1.323    338  2.1756   323  -0.6  88    -2.4  0     0     998.4    NA       0.0000   9999     6990  0     0    
2019/07/15  06:00:00  BASE  1.18776  351  2.1756   323  -0.5  88    -2.3  0     0     998.3    NA       0.0000   9999     6920  0     0    
2019/07/15  06:01:00  BASE  1.2936   354  2.1756   323  -0.4  88    -2.2  0     0     998.3    NA       0.0000   9999     6860  0     0    
2019/07/15  06:02:00  BASE  1.38768  345  2.1756   323  -0.4  87    -2.2  0     0     998.2    NA       0.0000   9999     6860  0     0    
2019/07/15  06:03:00  BASE  1.21128  334  2.1756   323  -0.4  87    -2.3  0     0     998.2    NA       0.0000   9999     6920  0     0    
2019/07/15  06:04:00  BASE  0.92316  335  2.1756   323  -0.5  87    -2.3  0     0     998.2    NA       0.0000   9999     6890  0     0    
2019/07/15  06:05:00  BASE  0.75264  342  2.1756   323  -0.5  87    -2.4  0     0     998.2    NA       0.0000   9999     6990  0     0    
2019/07/15  06:06:00  BASE  0.55272  357  2.1168   331  -0.6  87    -2.4  0     0     998.2    NA       0.0000   9999     6690  0     0    
2019/07/15  06:07:00  BASE  0.2352   23   1.63464  324  -0.6  88    -2.4  0     0     998.2    NA       0.0000   9999     6590  0     0    
2019/07/15  06:08:00  BASE  0.09996  59   1.54056  349  -0.7  88    -2.5  0     0     998.2    NA       0.0000   9999     6820  0     0    
2019/07/15  06:09:00  BASE  0.07644  70   1.54056  349  -0.7  88    -2.4  0     0     998.1    NA       0.0000   9999     6760  0     0    
2019/07/15  06:10:00  BASE  0.11172  15   1.54056  349  -0.6  88    -2.3  0     0     998.0    NA       0.0000   9999     6790  0     0    
2019/07/15  06:11:00  BASE  0.37632  338  1.48176  344  -0.5  88    -2.2  0     0     998.0    NA       0.0000   9999     6170  0     0    
2019/07/15  06:12:00  BASE  0.2646   346  1.32888  335  -0.4  88    -2.1  0     0     998.0    NA       0.0000   9999     6790  0     0    
2019/07/15  06:13:00  BASE  0.0294   356  0.90552  339  -0.3  88    -2.0  0     0     998.0    NA       0.0000   9999     6760  0     0    
2019/07/15  06:14:00  BASE  0.4116   338  0.90552  318  -0.1  88    -1.9  0     0     997.9    NA       0.0000   9999     5180  0     0    
2019/07/15  06:15:00  BASE  0.95844  317  1.27008  312  -0.1  87    -2.0  0     0     997.9    NA       0.0000   9999     4920  0     0    
2019/07/15  06:16:00  BASE  1.24656  309  1.42296  306  -0.0  87    -2.0  0     0     997.9    NA       0.0000   9999     4920  0     0    
2019/07/15  06:17:00  BASE  1.31712  307  1.42296  306  0.0   86    -2.0  0     0     997.9    NA       0.0000   9999     4890  0     0    
2019/07/15  06:18:00  BASE  1.27008  307  1.42296  306  0.0   86    -2.0  0     0     997.9    NA       0.0000   9999     5020  0     0    
2019/07/15  06:19:00  BASE  1.24068  309  1.42296  306  -0.0  86    -2.1  0     0     997.9    NA       0.0000   9999     5050  0     0    
2019/07/15  06:20:00  BASE  1.21716  314  1.42296  306  -0.0  86    -2.1  0     0     997.9    NA       0.0000   9999     6530  0     0    
2019/07/15  06:21:00  BASE  1.24068  318  1.42296  322  -0.0  86    -2.1  0     0     997.8    NA       0.0000   9999     4820  0     0    
2019/07/15  06:22:00  BASE  1.34652  327  1.54056  346  -0.0  86    -2.1  0     0     997.8    NA       0.0000   9999     4720  0     0    
2019/07/15  06:23:00  BASE  1.4994   342  1.66404  348  -0.0  86    -2.1  0     0     997.9    NA       0.0000   9999     4430  0     0    
2019/07/15  06:24:00  BASE  1.51116  353  1.66404  348  -0.0  85    -2.2  0     0     997.9    NA       0.0000   9999     4690  0     0    
2019/07/15  06:25:00  BASE  1.40532  351  1.66404  348  -0.0  85    -2.2  0     0     997.9    NA       0.0000   9999     6500  0     0    
2019/07/15  06:26:00  BASE  1.323    355  1.66404  348  -0.0  85    -2.3  0     0     997.9    NA       0.0000   9999     5640  0     0    
2019/07/15  06:27:00  BASE  1.2936   352  1.66404  348  -0.1  85    -2.3  0     0     997.9    NA       0.0000   9999     5770  0     0    
2019/07/15  06:28:00  BASE  1.18188  344  1.66404  348  -0.1  85    -2.3  0     0     997.9    NA       0.0000   9999     4990  0     0    
2019/07/15  06:29:00  BASE  0.92316  335  1.66404  348  -0.1  85    -2.3  0     0     997.9    NA       0.0000   9999     5280  0     0    
2019/07/15  06:30:00  BASE  0.60564  320  1.66404  348  -0.2  85    -2.4  0     0     997.9    NA       0.0000   9999     5150  0     0    
2019/07/15  06:31:00  BASE  0.57036  311  1.66404  348  -0.2  85    -2.4  0     0     997.9    NA       0.0000   9999     5610  0     0    
2019/07/15  06:32:00  BASE  0.85848  312  1.66404  348  -0.2  86    -2.3  0     0     997.9    NA       0.0000   9999     5410  0     0    
2019/07/15  06:33:00  BASE  0.87612  321  1.54056  332  -0.2  86    -2.3  0     0     998.0    NA       0.0000   9999     5680  0     0    
2019/07/15  06:34:00  BASE  0.68796  345  1.54056  332  -0.2  86    -2.3  0     0     998.0    NA       0.0000   9999     5710  0     0    
2019/07/15  06:35:00  BASE  0.5586   9    1.54056  332  -0.2  86    -2.3  0     0     998.0    NA       0.0000   9999     5610  0     0    
2019/07/15  06:36:00  BASE  0.40572  351  1.54056  332  -0.2  86    -2.2  0     0     998.0    NA       0.0000   9999     5480  0     0    
2019/07/15  06:37:00  BASE  0.81732  326  1.60524  320  -0.2  86    -2.3  0     0     998.0    NA       0.0000   9999     5280  0     0    
2019/07/15  06:38:00  BASE  1.4994   322  1.75224  322  -0.2  86    -2.3  0     0     997.9    NA       0.0000   9999     5380  0     0    
2019/07/15  06:39:00  BASE  1.71696  322  1.87572  324  -0.2  86    -2.3  0     0     997.9    NA       0.0000   9999     5710  0     0    
2019/07/15  06:40:00  BASE  1.71696  321  1.87572  324  -0.2  86    -2.2  0     0     997.9    NA       0.0000   9999     5710  0     0    
2019/07/15  06:41:00  BASE  1.7346   326  1.90512  326  -0.1  86    -2.2  0     0     997.9    NA       0.0000   9999     5740  0     0    
2019/07/15  06:42:00  BASE  1.77576  334  1.96392  334  -0.2  86    -2.2  0     0     997.9    NA       0.0000   9999     5580  0     0    
2019/07/15  06:43:00  BASE  1.58172  353  1.96392  334  -0.2  86    -2.3  0     0     997.9    NA       0.0000   9999     5410  0     0    
2019/07/15  06:44:00  BASE  1.59936  19   1.96392  334  -0.3  86    -2.3  0     0     997.9    NA       0.0000   9999     5280  0     0    
2019/07/15  06:45:00  BASE  1.6464   29   1.96392  334  -0.3  86    -2.4  0     0     997.9    NA       0.0000   9999     5480  0     0    
2019/07/15  06:46:00  BASE  1.34064  31   1.96392  334  -0.5  86    -2.5  0     0     997.8    NA       0.0000   9999     5250  0     0    
2019/07/15  06:47:00  BASE  1.11132  29   1.96392  334  -0.6  86    -2.5  0     0     997.8    NA       0.0000   9999     5280  0     0    
2019/07/15  06:48:00  BASE  1.07016  21   1.96392  334  -0.6  87    -2.6  0     0     997.8    NA       0.0000   9999     5280  0     0    
2019/07/15  06:49:00  BASE  1.2642   28   1.96392  334  -0.6  87    -2.5  0     0     997.8    NA       0.0000   9999     5180  0     0    
2019/07/15  06:50:00  BASE  1.63464  37   2.1168   55   -0.7  88    -2.5  0     0     997.8    NA       0.0000   9999     5380  0     0    
2019/07/15  06:51:00  BASE  1.75224  24   2.1168   55   -0.6  88    -2.4  0     0     997.8    NA       0.0000   9999     5280  0     0    
2019/07/15  06:52:00  BASE  1.56408  10   2.1168   55   -0.5  88    -2.3  0     0     997.8    NA       0.0000   9999     5220  0     0    
2019/07/15  06:53:00  BASE  1.3524   2    2.1168   55   -0.4  88    -2.2  0     0     997.8    NA       0.0000   9999     5150  0     0    
2019/07/15  06:54:00  BASE  1.40532  10   2.1168   55   -0.4  88    -2.2  0     0     997.8    NA       0.0000   9999     5050  0     0    
2019/07/15  06:55:00  BASE  1.53468  19   2.1168   55   -0.3  88    -2.1  0     0     997.8    NA       0.0000   9999     4950  0     0    
2019/07/15  06:56:00  BASE  1.61112  8    2.21088  354  -0.2  87    -2.1  0     0     997.8    NA       0.0000   9999     4760  0     0    
2019/07/15  06:57:00  BASE  1.85808  5    2.21088  354  -0.2  87    -2.1  0     0     997.8    NA       0.0000   9999     4720  0     0    
2019/07/15  06:58:00  BASE  2.12856  16   2.56956  15   -0.3  87    -2.2  0     0     997.8    NA       0.0000   9999     4860  0     0    
2019/07/15  06:59:00  BASE  2.15796  18   2.56956  15   -0.4  87    -2.3  0     0     997.8    NA       0.0000   9999     4990  0     0    
2019/07/15  07:00:00  BASE  1.84044  8    2.56956  15   -0.5  87    -2.3  0     0     997.8    NA       0.0000   9999     4950  0     0    
2019/07/15  07:01:00  BASE  1.58172  352  2.56956  15   -0.5  88    -2.3  0     0     997.7    NA       0.0000   9999     4920  0     0    
2019/07/15  07:02:00  BASE  1.41708  342  2.56956  15   -0.5  88    -2.2  0     0     997.7    NA       0.0000   9999     4660  0     0    
2019/07/15  07:03:00  BASE  1.08192  347  2.56956  15   -0.5  88    -2.1  0     0     997.7    NA       0.0000   9999     4490  0     0    
2019/07/15  07:04:00  BASE  0.50568  16   2.56956  15   -0.4  88    -2.1  0     0     997.7    NA       0.0000   9999     4360  0     0    
2019/07/15  07:05:00  BASE  0.25284  61   2.56956  15   -0.4  88    -2.1  0     0     997.7    NA       0.0000   9999     4400  0     0    
2019/07/15  07:06:00  BASE  0.58212  71   2.56956  15   -0.4  88    -2.1  0     0     997.7    NA       0.0000   9999     4890  0     0    
2019/07/15  07:07:00  BASE  0.62916  76   2.56956  15   -0.4  88    -2.2  0     0     997.7    NA       0.0000   9999     5350  0     0    
2019/07/15  07:08:00  BASE  0.22344  148  2.24028  20   -0.4  88    -2.1  0     0     997.7    NA       0.0000   9999     5250  0     0    
2019/07/15  07:09:00  BASE  0        252  1.84632  10   -0.3  88    -2.0  0     0     997.7    NA       0.0000   9999     5250  0     0    
2019/07/15  07:10:00  BASE  0        247  1.69344  341  -0.2  88    -1.9  0     0     997.7    NA       0.0000   9999     5120  0     0    
2019/07/15  07:11:00  BASE  0        234  1.51116  78   -0.0  88    -1.8  0     0     997.7    NA       0.0000   9999     4790  0     0    
2019/07/15  07:12:00  BASE  0.13524  248  1.51116  78   0.1   87    -1.8  0     0     997.6    NA       0.0000   9999     4590  0     0    
2019/07/15  07:13:00  BASE  0.44688  236  1.51116  78   0.2   87    -1.8  0     0     997.6    NA       0.0000   9999     4920  0     0    
2019/07/15  07:14:00  BASE  0.84672  215  1.51116  78   0.2   86    -1.9  0     0     997.6    NA       0.0000   9999     4660  0     0    
2019/07/15  07:15:00  BASE  1.25244  200  1.84632  176  0.2   86    -2.0  0     0     997.6    NA       0.0000   9999     5250  0     0    
2019/07/15  07:16:00  BASE  2.06976  182  3.35748  166  0.1   85    -2.0  0     0     997.6    NA       0.0000   9999     5640  0     0    
2019/07/15  07:17:00  BASE  3.10464  176  3.72204  176  -0.0  85    -2.2  0     0     997.6    NA       0.0000   9999     5220  0     0    
2019/07/15  07:18:00  BASE  3.27516  181  3.72204  176  -0.2  85    -2.4  0     0     997.5    NA       0.0000   9999     3840  0     0    
2019/07/15  07:20:00  BASE  2.13444  190  3.72204  176  -0.4  86    -2.4  0     0     997.5    NA       0.0000   9999     3940  0     0    
2019/07/15  07:21:00  BASE  1.68168  202  3.72204  176  -0.5  87    -2.4  0     0     997.4    NA       0.0000   9999     3940  0     0    
2019/07/15  07:22:00  BASE  1.78752  203  3.72204  176  -0.6  88    -2.4  0     0     997.3    NA       0.0000   9999     3940  0     0    
2019/07/15  07:23:00  BASE  1.8522   192  3.72204  176  -0.7  89    -2.3  0     0     997.4    NA       0.0000   9999     5450  0     0    
2019/07/15  07:24:00  BASE  1.71108  188  3.72204  176  -0.6  89    -2.2  0     0     997.5    NA       0.0000   9999     5710  0     0    
2019/07/15  07:25:00  BASE  1.35828  179  3.72204  176  -0.6  89    -2.2  0     0     997.5    NA       0.0000   9999     5610  0     0    
2019/07/15  07:26:00  BASE  1.07604  161  3.72204  176  -0.7  90    -2.2  0     0     997.4    NA       0.0000   9999     5320  0     0    
2019/07/15  07:27:00  BASE  0.74088  160  3.62796  180  -0.7  90    -2.2  0     0     997.3    NA       0.0000   9999     5380  0     0    
2019/07/15  07:28:00  BASE  0.31752  212  3.087    183  -0.7  90    -2.1  0     0     997.3    NA       0.0000   9999     5410  0     0    
2019/07/15  07:29:00  BASE  0.65268  278  2.058    190  -0.7  91    -2.0  0     0     997.2    NA       0.0000   9999     5450  0     0    
2019/07/15  07:30:00  BASE  1.21128  311  2.058    190  -0.6  91    -1.9  0     0     997.2    NA       0.0000   9999     4860  0     0    
2019/07/15  07:31:00  BASE  1.36416  338  2.058    190  -0.6  91    -1.8  0     0     997.3    NA       0.0000   9999     5220  0     0    
2019/07/15  07:32:00  BASE  1.69344  6    2.24028  33   -0.5  91    -1.8  0     0     997.3    NA       0.0000   9999     5410  0     0    
2019/07/15  07:33:00  BASE  2.06388  23   2.32848  30   -0.5  91    -1.8  0     0     997.3    NA       0.0000   9999     5380  0     0    
2019/07/15  07:34:00  BASE  2.1756   32   2.32848  30   -0.6  90    -2.0  0     0     997.3    NA       0.0000   9999     5020  0     0    
2019/07/15  07:35:00  BASE  2.01684  28   2.32848  30   -0.7  91    -2.1  0     0     997.2    NA       0.0000   9999     5090  0     0    
2019/07/15  07:36:00  BASE  1.59348  23   2.32848  30   -0.9  91    -2.2  0     0     997.2    NA       0.0000   9999     4860  0     0    
2019/07/15  07:37:00  BASE  1.06428  15   2.32848  30   -1.0  92    -2.2  0     0     997.2    NA       0.0000   9999     4230  0     0    
2019/07/15  07:38:00  BASE  0.88788  10   2.32848  30   -1.1  93    -2.1  0     0     997.2    NA       0.0000   9999     4300  0     0    
2019/07/15  07:39:00  BASE  1.63464  36   2.69304  56   -1.2  94    -2.0  0     0     997.3    NA       0.0000   9999     4890  0     0    
2019/07/15  07:40:00  BASE  2.59308  54   2.96352  53   -1.2  95    -1.9  0     0     997.3    NA       0.0000   9999     5150  0     0    
2019/07/15  07:41:00  BASE  2.56368  51   2.96352  53   -1.1  95    -1.8  0     0     997.3    NA       0.0000   9999     4820  0     0    
2019/07/15  07:42:00  BASE  1.7934   43   2.96352  53   -1.1  96    -1.6  0     0     997.3    NA       0.0000   9999     4400  0     0    
2019/07/15  07:43:00  BASE  1.19952  27   2.96352  53   -1.0  96    -1.6  0     0     997.2    NA       0.0000   9999     4300  0     0    
2019/07/15  07:44:00  BASE  1.029    11   2.96352  53   -0.9  96    -1.5  0     0     997.2    NA       0.0000   9999     4530  0     0    
2019/07/15  07:45:00  BASE  0.89376  346  2.96352  53   -0.8  96    -1.4  0     0     997.1    NA       0.0000   9999     4330  0     0    
2019/07/15  07:46:00  BASE  0.96432  305  2.96352  53   -0.8  96    -1.3  0     0     997.0    NA       0.0000   9999     4000  0     0    
2019/07/15  07:47:00  BASE  1.28184  276  2.96352  53   -0.7  95    -1.4  0     0     997.0    NA       0.0000   9999     4170  0     0    
2019/07/15  07:48:00  BASE  1.24068  288  2.96352  53   -0.7  95    -1.5  0     0     997.0    NA       0.0000   9999     4720  0     0    
2019/07/15  07:49:00  BASE  0.9702   328  2.96352  53   -0.7  94    -1.5  0     0     997.1    NA       0.0000   9999     4820  0     0    
2019/07/15  07:50:00  BASE  0.82908  355  2.69304  51   -0.8  94    -1.6  0     0     997.1    NA       0.0000   9999     4590  0     0    
2019/07/15  07:51:00  BASE  0.39984  353  1.54056  269  -0.7  94    -1.5  0     0     997.0    NA       0.0000   9999     4590  0     0    
2019/07/15  07:52:00  BASE  0.0294   341  1.54056  269  -0.6  94    -1.4  0     0     997.0    NA       0.0000   9999     4590  0     0    
2019/07/15  07:53:00  BASE  0        335  1.54056  269  -0.4  93    -1.4  0     0     996.9    NA       0.0000   9999     4560  0     0    
2019/07/15  07:54:00  BASE  0        324  1.54056  269  -0.3  93    -1.4  0     0     996.8    NA       0.0000   9999     4560  0     0    
2019/07/15  07:55:00  BASE  0.31752  295  1.54056  269  -0.2  92    -1.4  0     0     996.8    NA       0.0000   9999     4660  0     0    
2019/07/15  07:56:00  BASE  0.8526   286  1.54056  269  -0.1  90    -1.5  0     0     996.7    NA       0.0000   9999     5020  0     0    
2019/07/15  07:57:00  BASE  1.2054   307  1.45236  331  -0.1  89    -1.7  0     0     996.8    NA       0.0000   9999     4950  0     0    
2019/07/15  07:58:00  BASE  1.4406   336  1.60524  352  -0.1  88    -1.8  0     0     996.9    NA       0.0000   9999     5050  0     0    
2019/07/15  07:59:00  BASE  1.54644  346  1.60524  352  -0.1  88    -2.0  0     0     996.9    NA       0.0000   9999     4920  0     0    
2019/07/15  08:00:00  BASE  1.62876  336  1.78752  326  -0.3  87    -2.1  0     0     996.8    NA       0.0000   9999     4790  0     0    
2019/07/15  08:01:00  BASE  1.77576  322  1.90512  315  -0.4  88    -2.2  0     0     996.7    NA       0.0000   9999     4890  0     0    
2019/07/15  08:02:00  BASE  1.84044  316  1.9992   313  -0.5  88    -2.2  0     0     996.7    NA       0.0000   9999     5150  0     0    
2019/07/15  08:03:00  BASE  1.83456  324  1.9992   313  -0.7  89    -2.3  0     0     996.8    NA       0.0000   9999     4990  0     0    
2019/07/15  08:04:00  BASE  1.8228   351  1.9992   345  -0.8  90    -2.2  0     0     997.0    NA       0.0000   9999     3250  0     0    
2019/07/15  08:05:00  BASE  1.78752  11   1.9992   345  -1.0  92    -2.2  0     0     996.9    NA       0.0000   9999     2620  0     0    
2019/07/15  08:06:00  BASE  1.95216  353  2.48136  335  -1.1  93    -2.1  0     0     996.8    NA       0.0000   9999     2360  0     0    
2019/07/15  08:07:00  BASE  2.27556  323  2.63424  307  -1.1  94    -2.0  0     0     996.7    NA       0.0000   9999     2890  0     0    
2019/07/15  08:08:00  BASE  2.19324  314  2.63424  307  -1.2  95    -1.9  0     0     996.8    NA       0.0000   9999     2660  0     0    
2019/07/15  08:09:00  BASE  2.33436  321  2.90472  329  -1.2  96    -1.8  0     0     996.8    NA       0.0000   9999     2850  0     0    
2019/07/15  08:10:00  BASE  2.89884  327  3.41628  329  -1.2  96    -1.7  0     0     996.8    NA       0.0000   9999     4860  0     0    
2019/07/15  08:11:00  BASE  3.25752  329  3.62796  327  -1.2  97    -1.6  0     0     996.8    NA       0.0000   9999     4890  0     0    
2019/07/15  08:12:00  BASE  3.10464  330  3.62796  327  -1.2  97    -1.5  0     0     996.7    NA       0.0000   9999     4990  0     0    
2019/07/15  08:13:00  BASE  2.60484  332  3.62796  327  -1.2  98    -1.5  0     0     996.7    NA       0.0000   9999     4950  0     0    
2019/07/15  08:14:00  BASE  2.26968  336  3.62796  327  -1.2  98    -1.4  0     0     996.7    NA       0.0000   9999     4950  0     0    
2019/07/15  08:15:00  BASE  2.30496  335  3.62796  327  -1.2  99    -1.3  0     0     996.7    NA       0.0000   9999     4820  0     0    
2019/07/15  08:16:00  BASE  2.97528  332  3.78084  336  -1.1  99    -1.2  0     0     996.7    NA       0.0000   9999     4560  0     0    
2019/07/15  08:17:00  BASE  3.51624  330  3.81024  331  -1.1  100   -1.2  0     0     996.7    NA       0.0000   9999     4360  0     0    
2019/07/15  08:18:00  BASE  3.46332  331  3.81024  326  -1.1  100   -1.1  0     0     996.7    NA       0.0000   9999     4430  0     0    
2019/07/15  08:19:00  BASE  3.4398   330  3.81024  326  -1.1  100   -1.1  0     0     996.7    NA       0.0000   9999     4590  0     0    
2019/07/15  08:20:00  BASE  3.36336  323  3.81024  326  -1.1  100   -1.1  0     0     996.6    NA       0.0000   9999     4760  0     0    
2019/07/15  08:21:00  BASE  3.2046   322  3.81024  326  -1.1  100   -1.1  0     0     996.6    NA       0.0000   9999     4920  0     0    
2019/07/15  08:22:00  BASE  3.19284  334  3.81024  326  -1.1  100   -1.1  0     0     996.7    NA       0.0000   9999     5050  0     0    
2019/07/15  08:23:00  BASE  3.12816  345  3.81024  326  -1.1  100   -1.1  0     0     996.7    NA       0.0000   9999     5150  0     0    
2019/07/15  08:24:00  BASE  3.03996  347  3.81024  326  -1.1  100   -1.1  0     0     996.6    NA       0.0000   9999     4460  0     0    
2019/07/15  08:25:00  BASE  2.66952  340  3.81024  326  -1.1  100   -1.1  0     0     996.6    NA       0.0000   9999     4330  0     0    
2019/07/15  08:26:00  BASE  1.86984  330  3.81024  326  -1.1  100   -1.1  0     0     996.6    NA       0.0000   9999     4360  0     0    
2019/07/15  08:27:00  BASE  1.18188  335  3.81024  326  -1.1  100   -1.1  0     0     996.6    NA       0.0000   9999     4720  0     0    
2019/07/15  08:28:00  BASE  1.03488  350  3.75144  325  -1.1  100   -1.1  0     0     996.6    NA       0.0000   9999     4560  0     0    
2019/07/15  08:29:00  BASE  1.37592  2    3.48096  316  -1.1  100   -1.1  0     0     996.7    NA       0.0000   9999     4720  0     0    
2019/07/15  08:30:00  BASE  1.68168  2    3.35748  350  -1.1  100   -1.1  0     0     996.7    NA       0.0000   9999     4690  0     0    
2019/07/15  08:31:00  BASE  2.06388  349  3.35748  350  -1.1  100   -1.1  0     0     996.6    NA       0.0000   9999     4630  0     0    
2019/07/15  08:32:00  BASE  2.08152  338  3.35748  350  -1.1  100   -1.1  0     0     996.6    NA       0.0000   9999     4860  0     0    
2019/07/15  08:33:00  BASE  2.058    338  3.35748  350  -1.0  100   -1.0  0     0     996.6    NA       0.0000   9999     2950  0     0    
2019/07/15  08:34:00  BASE  2.3226   343  2.96352  329  -1.0  100   -1.0  0     0     996.6    NA       0.0000   9999     4560  0     0    
2019/07/15  08:35:00  BASE  2.25792  344  2.96352  329  -0.9  100   -0.9  0     0     996.6    NA       0.0000   9999     4690  0     0    
2019/07/15  08:36:00  BASE  2.058    348  2.96352  329  -0.9  100   -0.9  0     0     996.6    NA       0.0000   9999     5050  0     0    
2019/07/15  08:37:00  BASE  1.45236  2    2.96352  329  -0.8  100   -0.8  0     0     996.6    NA       0.0000   9999     4920  0     0    
2019/07/15  08:38:00  BASE  1.05252  7    2.96352  329  -0.8  100   -0.9  0     0     996.6    NA       0.0000   9999     4920  0     0    
2019/07/15  08:39:00  BASE  1.029    6    2.96352  329  -0.8  100   -0.9  0     0     996.6    NA       0.0000   9999     4790  0     0    
2019/07/15  08:40:00  BASE  0.91728  20   2.96352  329  -0.8  99    -0.9  0     0     996.6    NA       0.0000   9999     4790  0     0    
2019/07/15  08:41:00  BASE  0.72912  45   2.96352  329  -0.7  99    -0.9  0     0     996.6    NA       0.0000   9999     4720  0     0    
2019/07/15  08:42:00  BASE  0.65268  59   2.96352  329  -0.7  98    -0.9  0     0     996.6    NA       0.0000   9999     4820  0     0    
2019/07/15  08:43:00  BASE  0.9408   46   2.93412  343  -0.6  98    -0.9  0     0     996.6    NA       0.0000   9999     4820  0     0    
2019/07/15  08:44:00  BASE  1.04076  28   2.93412  343  -0.5  97    -0.9  0     0     996.5    NA       0.0000   9999     4790  0     0    
2019/07/15  08:45:00  BASE  1.1172   19   2.29908  353  -0.3  96    -0.9  0     0     996.5    NA       0.0000   9999     4720  0     0    
2019/07/15  08:46:00  BASE  1.58172  14   2.24028  10   -0.2  95    -0.9  0     0     996.6    NA       0.0000   9999     4760  0     0    
2019/07/15  08:47:00  BASE  1.72872  10   2.24028  10   -0.2  94    -1.0  0     0     996.5    NA       0.0000   9999     4760  0     0    
2019/07/15  08:48:00  BASE  1.19952  355  2.24028  10   -0.1  93    -1.1  0     0     996.5    NA       0.0000   9999     4760  0     0    
2019/07/15  08:49:00  BASE  0.48216  343  2.24028  10   -0.2  92    -1.4  0     0     996.5    NA       0.0000   9999     4760  0     0    
2019/07/15  08:50:00  BASE  0.08232  341  2.24028  10   -0.3  91    -1.5  0     0     996.5    NA       0.0000   9999     4760  0     0    
2019/07/15  08:51:00  BASE  0        341  2.24028  10   -0.4  91    -1.6  0     0     996.5    NA       0.0000   9999     4760  0     0    
2019/07/15  08:52:00  BASE  0        3    2.24028  10   -0.3  92    -1.5  0     0     996.4    NA       0.0000   9999     4720  0     0    
2019/07/15  08:53:00  BASE  0        34   2.24028  10   -0.2  92    -1.4  0     0     996.3    NA       0.0000   9999     4890  0     0    
2019/07/15  08:54:00  BASE  0.39396  322  2.24028  10   -0.1  92    -1.3  0     0     996.2    NA       0.0000   9999     4690  0     0    
2019/07/15  08:55:00  BASE  1.0584   292  2.24028  10   -0.1  91    -1.4  0     0     996.2    NA       0.0000   9999     4690  0     0    
2019/07/15  08:56:00  BASE  1.31124  330  2.0286   12   -0.0  90    -1.4  0     0     996.4    NA       0.0000   9999     4790  0     0    
2019/07/15  08:57:00  BASE  1.11132  352  1.45236  324  -0.0  90    -1.5  0     0     996.3    NA       0.0000   9999     4690  0     0    
2019/07/15  08:58:00  BASE  0.91728  13   1.45236  324  -0.0  89    -1.6  0     0     996.3    NA       0.0000   9999     4690  0     0    
2019/07/15  08:59:00  BASE  1.07604  30   1.54056  31   -0.1  89    -1.7  0     0     996.3    NA       0.0000   9999     4720  0     0    
2019/07/15  09:00:00  BASE  1.45824  30   1.75224  28   -0.0  89    -1.7  0     0     996.3    NA       0.0000   9999     4760  0     0    
2019/07/15  09:01:00  BASE  1.65816  27   1.78752  27   -0.1  88    -1.8  0     0     996.2    NA       0.0000   9999     4820  0     0    
2019/07/15  09:02:00  BASE  1.81104  30   2.35788  38   -0.4  88    -2.1  0     0     996.2    NA       0.0000   9999     4890  0     0    
2019/07/15  09:03:00  BASE  2.21088  37   2.56956  37   -0.7  89    -2.2  0     0     996.3    NA       0.0000   9999     4720  0     0    
2019/07/15  09:04:00  BASE  2.21676  34   2.56956  37   -0.9  90    -2.3  0     0     996.2    NA       0.0000   9999     4690  0     0    
2019/07/15  09:05:00  BASE  1.83456  18   2.56956  37   -1.1  92    -2.3  0     0     996.1    NA       0.0000   9999     4590  0     0    
2019/07/15  09:06:00  BASE  1.77576  13   2.56956  37   -1.2  94    -2.1  0     0     996.1    NA       0.0000   9999     4820  0     0    
2019/07/15  09:07:00  BASE  1.59348  20   2.56956  37   -1.2  95    -1.8  0     0     996.1    NA       0.0000   9999     4790  0     0    
2019/07/15  09:08:00  BASE  1.2936   33   2.56956  37   -1.1  96    -1.7  0     0     996.1    NA       0.0000   9999     4720  0     0    
2019/07/15  09:09:00  BASE  1.19952  26   2.56956  37   -1.0  97    -1.4  0     0     996.1    NA       0.0000   9999     4720  0     0    
2019/07/15  09:10:00  BASE  1.16424  346  2.56956  37   -0.9  97    -1.2  0     0     996.0    NA       0.0000   9999     4950  0     0    
2019/07/15  09:11:00  BASE  1.50528  316  2.56956  37   -0.7  97    -1.1  0     0     995.9    NA       0.0000   9999     4720  0     0    
2019/07/15  09:12:00  BASE  1.75812  313  2.56956  37   -0.6  97    -1.0  0     0     996.0    NA       0.0000   9999     4630  0     0    
2019/07/15  09:13:00  BASE  1.97568  333  2.59896  349  -0.4  96    -1.0  0     0     996.0    NA       0.0000   9999     4590  0     0    
2019/07/15  09:14:00  BASE  2.3814   355  2.63424  3    -0.4  95    -1.1  0     0     996.1    NA       0.0000   9999     4660  0     0    
2019/07/15  09:15:00  BASE  2.34612  349  2.63424  3    -0.4  94    -1.3  0     0     996.0    NA       0.0000   9999     4720  0     0    
2019/07/15  09:16:00  BASE  1.89336  312  2.63424  3    -0.5  94    -1.4  0     0     995.8    NA       0.0000   9999     4630  0     0    
2019/07/15  09:17:00  BASE  1.68168  273  2.63424  3    -0.6  93    -1.5  0     0     995.8    NA       0.0000   9999     4590  0     0    
2019/07/15  09:18:00  BASE  1.37592  261  2.63424  3    -0.6  93    -1.6  0     0     995.9    NA       0.0000   9999     4530  0     0    
2019/07/15  09:19:00  BASE  0.5586   285  2.63424  3    -0.7  94    -1.6  0     0     996.0    NA       0.0000   9999     4560  0     0    
2019/07/15  09:20:00  BASE  0.27048  351  2.63424  3    -0.7  94    -1.5  0     0     996.1    NA       0.0000   9999     4560  0     0    
2019/07/15  09:21:00  BASE  0.588    15   2.63424  3    -0.7  94    -1.5  0     0     996.1    NA       0.0000   9999     4560  0     0    
2019/07/15  09:22:00  BASE  1.2348   344  2.63424  3    -0.6  95    -1.3  0     0     996.1    NA       0.0000   9999     4630  0     0    
2019/07/15  09:23:00  BASE  1.65816  326  2.63424  3    -0.5  95    -1.2  0     0     996.0    NA       0.0000   9999     4720  0     0    
2019/07/15  09:24:00  BASE  1.48176  309  2.45196  351  -0.4  95    -1.1  0     0     996.0    NA       0.0000   9999     4490  0     0    
2019/07/15  09:25:00  BASE  1.54056  293  2.35788  288  -0.3  95    -1.1  0     0     996.0    NA       0.0000   9999     4530  0     0    
2019/07/15  09:26:00  BASE  1.84044  294  2.35788  288  -0.3  94    -1.1  0     0     996.0    NA       0.0000   9999     4530  0     0    
2019/07/15  09:27:00  BASE  1.9404   314  2.35788  288  -0.4  94    -1.2  0     0     996.1    NA       0.0000   9999     4630  0     0    
2019/07/15  09:28:00  BASE  1.51116  333  2.35788  288  -0.4  94    -1.3  0     0     996.1    NA       0.0000   9999     4590  0     0    
2019/07/15  09:29:00  BASE  1.24656  330  2.35788  288  -0.5  94    -1.4  0     0     996.1    NA       0.0000   9999     4660  0     0    
2019/07/15  09:30:00  BASE  1.323    317  2.35788  288  -0.5  94    -1.4  0     0     996.0    NA       0.0000   9999     4590  0     0    
2019/07/15  09:31:00  BASE  1.24656  316  2.35788  288  -0.6  95    -1.3  0     0     996.0    NA       0.0000   9999     4660  0     0    
2019/07/15  09:32:00  BASE  1.06428  333  2.35788  288  -0.5  95    -1.2  0     0     996.0    NA       0.0000   9999     4720  0     0    
2019/07/15  09:33:00  BASE  0.57624  357  2.35788  288  -0.5  96    -1.1  0     0     996.0    NA       0.0000   9999     4660  0     0    
2019/07/15  09:34:00  BASE  0.19404  354  2.35788  288  -0.5  96    -1.1  0     0     996.0    NA       0.0000   9999     4590  0     0    
2019/07/15  09:35:00  BASE  0.61152  137  2.29908  326  -0.5  96    -1.1  0     0     996.0    NA       0.0000   9999     4590  0     0    
2019/07/15  09:36:00  BASE  0.59388  123  2.29908  326  -0.5  95    -1.1  0     0     996.0    NA       0.0000   9999     4530  0     0    
2019/07/15  09:37:00  BASE  0.08232  120  1.75224  316  -0.5  95    -1.1  0     0     996.0    NA       0.0000   9999     4460  0     0    
2019/07/15  09:38:00  BASE  0.14112  155  1.75224  316  -0.5  95    -1.1  0     0     995.9    NA       0.0000   9999     4590  0     0    
2019/07/15  09:39:00  BASE  0.2352   196  1.63464  333  -0.5  96    -1.1  0     0     995.9    NA       0.0000   9999     4630  0     0    
2019/07/15  09:40:00  BASE  0.4704   166  1.54056  331  -0.4  96    -1.0  0     0     996.0    NA       0.0000   9999     4660  0     0    
2019/07/15  09:41:00  BASE  0.61152  141  1.35828  144  -0.4  96    -1.0  0     0     995.9    NA       0.0000   9999     4590  0     0    
2019/07/15  09:42:00  BASE  0.2646   169  1.35828  144  -0.4  96    -1.0  0     0     995.9    NA       0.0000   9999     4560  0     0    
2019/07/15  09:43:00  BASE  0.05292  151  1.35828  144  -0.3  95    -1.0  0     0     995.9    NA       0.0000   9999     4590  0     0    
2019/07/15  09:44:00  BASE  0.75264  166  1.87572  213  -0.3  95    -1.0  0     0     995.8    NA       0.0000   9999     4590  0     0    
2019/07/15  09:45:00  BASE  1.46412  194  1.87572  214  -0.4  95    -1.1  0     0     995.8    NA       0.0000   9999     4630  0     0    
2019/07/15  09:46:00  BASE  1.43472  148  1.87572  214  -0.4  95    -1.1  0     0     996.0    NA       0.0000   9999     4720  0     0    
2019/07/15  09:47:00  BASE  1.92864  151  2.90472  213  -0.4  95    -1.1  0     0     995.8    NA       0.0000   9999     4590  0     0    
2019/07/15  09:48:00  BASE  2.72832  204  3.35748  222  -0.5  95    -1.2  0     0     995.7    NA       0.0000   9999     4760  6530  0    
2019/07/15  09:49:00  BASE  2.22264  232  3.35748  222  -0.6  95    -1.2  0     0     995.8    NA       0.0000   9999     4460  0     0    
2019/07/15  09:50:00  BASE  1.2348   210  3.35748  222  -0.7  95    -1.3  0     0     995.9    NA       0.0000   9999     4590  0     0    
2019/07/15  09:51:00  BASE  1.16424  188  3.35748  222  -0.7  96    -1.3  0     0     995.9    NA       0.0000   9999     4660  0     0    
2019/07/15  09:52:00  BASE  1.66992  194  3.35748  222  -0.8  96    -1.3  0     0     995.7    NA       0.0000   9999     4760  0     0    
2019/07/15  09:53:00  BASE  2.5872   196  3.53976  194  -0.9  97    -1.3  0     0     995.7    NA       0.0000   9999     4590  0     0    
2019/07/15  09:54:00  BASE  2.80476  201  3.53976  194  -0.9  98    -1.2  0     0     995.7    NA       0.0000   9999     4590  0     0    
2019/07/15  09:55:00  BASE  1.9698   202  3.53976  194  -0.9  98    -1.1  0     0     995.7    NA       0.0000   9999     4720  6000  0    
2019/07/15  09:56:00  BASE  1.81692  207  3.53976  194  -0.9  99    -1.1  0     0     995.6    NA       0.0000   9999     4460  6140  0    
2019/07/15  09:57:00  BASE  1.96392  211  3.53976  194  -0.9  99    -1.0  0     0     995.6    NA       0.0000   9999     4560  0     0    
2019/07/15  09:58:00  BASE  1.44648  213  3.53976  194  -0.8  99    -0.9  0     0     995.7    NA       0.0000   9999     4660  0     0    
2019/07/15  09:59:00  BASE  1.08192  223  3.53976  194  -0.7  100   -0.8  0     0     995.7    NA       0.0000   9999     4590  0     0    
2019/07/15  10:00:00  BASE  1.32888  236  3.53976  194  -0.7  100   -0.7  0     0     995.7    NA       0.0000   9999     4490  0     0    
2019/07/15  10:01:00  BASE  1.19952  259  3.53976  194  -0.6  100   -0.7  0     0     995.7    NA       0.0000   9999     4490  4990  5640 
2019/07/15  10:02:00  BASE  0.87024  304  3.53976  194  -0.6  100   -0.6  0     0     995.5    NA       0.0000   9999     4490  0     0    
2019/07/15  10:03:00  BASE  0.68208  319  3.1752   195  -0.5  100   -0.5  0     0     995.4    NA       0.0000   9999     4460  0     0    
2019/07/15  10:04:00  BASE  0.91728  319  2.63424  217  -0.4  100   -0.5  0     0     995.5    NA       0.0000   9999     4460  0     0    
2019/07/15  10:05:00  BASE  0.80556  320  2.63424  217  -0.3  99    -0.4  0     0     995.5    NA       0.0000   9999     4560  0     0    
2019/07/15  10:06:00  BASE  0.54684  265  2.42256  217  -0.3  99    -0.4  0     0     995.5    NA       0.0000   9999     4590  0     0    
2019/07/15  10:07:00  BASE  0.60564  254  1.87572  245  -0.2  99    -0.4  0     0     995.6    NA       0.0000   9999     4660  0     0    
2019/07/15  10:08:00  BASE  1.21128  181  4.02192  98   -0.2  99    -0.4  0     0     995.6    NA       0.0000   9999     4690  0     0    
2019/07/15  10:09:00  BASE  2.5578   135  4.02192  98   -0.2  99    -0.3  0     0     995.5    NA       0.0000   9999     4490  0     0    
2019/07/15  10:10:00  BASE  1.98744  130  4.02192  98   0.0   99    -0.1  0     0     995.5    NA       0.0000   9999     4630  0     0    
2019/07/15  10:11:00  BASE  1.27008  357  4.02192  98   0.2   99    0.1   0     0     995.5    NA       0.0000   9999     4720  0     0    
2019/07/15  10:12:00  BASE  1.66404  321  4.02192  98   0.4   99    0.3   0     0     995.5    NA       0.0000   9999     4590  0     0    
2019/07/15  10:13:00  BASE  2.0286   312  4.02192  98   0.7   98    0.4   0     0     995.4    NA       0.0000   9999     4560  6790  0    
2019/07/15  10:14:00  BASE  1.85808  307  4.02192  98   0.8   97    0.3   0     0     995.5    NA       0.0000   9999     4490  0     0    
2019/07/15  10:15:00  BASE  1.48764  327  4.02192  98   0.7   95    -0.0  0     0     995.5    NA       0.0000   9999     4560  0     0    
2019/07/15  10:16:00  BASE  2.03448  335  4.02192  98   0.5   94    -0.3  0     0     995.5    NA       0.0000   9999     4530  0     0    
2019/07/15  10:17:00  BASE  3.28692  313  4.41588  304  0.2   94    -0.7  0     0     995.4    NA       0.0000   9999     4630  0     0    
2019/07/15  10:18:00  BASE  3.75144  302  4.41588  304  -0.2  94    -1.0  0     0     995.4    NA       0.0000   9999     4630  0     0    
2019/07/15  10:19:00  BASE  2.68128  313  4.41588  304  -0.5  96    -1.1  0     0     995.4    NA       0.0000   9999     4660  0     0    
2019/07/15  10:20:00  BASE  1.45824  344  4.41588  304  -0.7  97    -1.1  0     0     995.4    NA       0.0000   9999     4560  0     0    
2019/07/15  10:21:00  BASE  1.17012  341  4.41588  304  -0.9  98    -1.1  0     0     995.4    NA       0.0000   9999     4490  0     0    
2019/07/15  10:22:00  BASE  1.40532  4    4.41588  304  -0.9  99    -1.0  0     0     995.5    NA       0.0000   9999     4720  6370  0    
2019/07/15  10:23:00  BASE  0.86436  40   4.41588  304  -0.9  100   -0.9  0     0     995.4    NA       0.0000   9999     4660  0     0    
2019/07/15  10:24:00  BASE  0.7056   316  4.41588  304  -0.9  100   -0.9  0     0     995.4    NA       0.0000   9999     6430  0     0    
2019/07/15  10:25:00  BASE  2.16384  320  4.41588  304  -0.8  100   -0.8  0     0     995.4    NA       0.0000   9999     6630  0     0    
2019/07/15  10:26:00  BASE  2.69304  337  4.41588  304  -0.8  100   -0.8  0     0     995.3    NA       0.0000   9999     6460  0     0    
2019/07/15  10:27:00  BASE  1.48764  4    4.2336   299  -0.8  100   -0.8  0     0     995.4    NA       0.0000   9999     6630  0     0    
2019/07/15  10:28:00  BASE  0.81732  350  3.78084  322  -0.8  100   -0.8  0     0     995.3    NA       0.0000   9999     6400  0     0    
2019/07/15  10:29:00  BASE  1.37004  272  3.78084  322  -0.8  100   -0.8  0     0     995.2    NA       0.0000   9999     4400  6140  0    
2019/07/15  10:30:00  BASE  1.37592  300  3.78084  322  -0.9  100   -0.9  0     0     995.3    NA       0.0000   9999     4270  5740  0    
2019/07/15  10:31:00  BASE  0.75264  337  3.78084  322  -0.9  100   -0.9  0     0     995.4    NA       0.0000   9999     4860  5540  0    
2019/07/15  10:32:00  BASE  1.60524  37   7.35     41   -0.9  100   -0.9  0     0     995.4    NA       0.0000   9999     4690  5770  0    
2019/07/15  10:33:00  BASE  3.18696  48   7.35     41   -0.7  100   -0.7  0     0     995.2    NA       0.0000   9999     4790  0     0    
2019/07/15  10:34:00  BASE  2.93412  360  7.35     41   -0.6  100   -0.6  0     0     995.1    NA       0.0000   9999     4860  0     0    
2019/07/15  10:35:00  BASE  2.79888  337  7.35     41   -0.3  100   -0.3  0     0     995.1    NA       0.0000   9999     4950  6140  0    
2019/07/15  10:36:00  BASE  4.45704  304  7.35     41   -0.2  100   -0.2  0     0     995.1    NA       0.0000   9999     4660  0     0    
2019/07/15  10:37:00  BASE  4.9098   285  7.35     41   -0.1  100   -0.1  0     0     995.2    NA       0.0000   9999     4430  0     0    
2019/07/15  10:38:00  BASE  3.9396   288  7.35     41   -0.2  100   -0.2  0     0     995.2    NA       0.0000   9999     4490  0     0    
2019/07/15  10:39:00  BASE  3.45156  285  7.35     41   -0.3  100   -0.3  0     0     995.1    NA       0.0000   9999     4360  5180  0    
2019/07/15  10:40:00  BASE  3.51624  284  7.35     41   -0.4  100   -0.4  0     0     995.2    NA       0.0000   9999     4270  0     0    
2019/07/15  10:41:00  BASE  3.86316  289  7.35     41   -0.5  100   -0.5  0     0     995.2    NA       0.0000   9999     4230  4890  0    
2019/07/15  10:42:00  BASE  4.01016  285  5.89764  291  -0.7  100   -0.7  0     0     995.2    NA       0.0000   9999     4400  0     0    
2019/07/15  10:43:00  BASE  3.93372  282  5.89764  291  -0.7  100   -0.7  0     0     995.1    NA       0.0000   9999     4360  0     0    
2019/07/15  10:44:00  BASE  4.66284  289  5.89764  291  -0.8  100   -0.8  0     0     995.0    NA       0.0000   9999     3970  0     0    
2019/07/15  10:45:00  BASE  5.02152  295  5.89764  291  -1.0  100   -1.0  0     0     995.3    NA       0.0000   9999     4100  0     0    
2019/07/15  10:46:00  BASE  3.63384  303  5.80944  291  -1.1  100   -1.1  0     0     995.4    NA       0.0000   9999     4130  0     0    
2019/07/15  10:47:00  BASE  2.62248  293  5.80944  291  -1.1  100   -1.1  0     0     995.3    NA       0.0000   9999     4490  0     0    
2019/07/15  10:48:00  BASE  3.29868  279  5.80944  291  -1.1  100   -1.1  0     0     995.2    NA       0.0000   9999     3970  0     0    
2019/07/15  10:49:00  BASE  4.56288  282  5.92704  286  -1.2  100   -1.2  0     0     995.1    NA       0.0000   9999     4070  0     0    
2019/07/15  10:50:00  BASE  5.09796  284  5.92704  286  -1.1  100   -1.1  0     0     995.1    NA       0.0000   9999     4170  0     0    
2019/07/15  10:51:00  BASE  4.92744  291  5.92704  286  -1.1  100   -1.1  0     0     995.2    NA       0.0000   9999     4000  0     0    
2019/07/15  10:52:01  BASE  4.76868  281  5.92704  286  -1.1  100   -1.1  0     0     995.1    NA       0.0000   9999     4100  0     0    
2019/07/15  10:53:00  BASE  4.39236  267  5.92704  286  -1.1  100   -1.1  0     0     995.1    NA       0.0000   9999     4100  0     0    
2019/07/15  10:54:00  BASE  3.48096  264  5.92704  286  -1.0  100   -1.0  0     0     995.2    NA       0.0000   9999     4040  0     0    
2019/07/15  10:55:00  BASE  2.97528  260  5.92704  286  -1.0  100   -1.0  0     0     995.0    NA       0.0000   9999     3940  0     0    
2019/07/15  10:56:00  BASE  2.21088  224  5.92704  286  -1.0  100   -1.0  0     0     995.1    NA       0.0000   9999     4000  0     0    
2019/07/15  10:57:00  BASE  1.34652  170  5.92704  286  -1.0  100   -1.0  0     0     994.6    NA       0.0000   9999     3970  0     0    
2019/07/15  10:58:00  BASE  1.2348   150  5.92704  286  -1.0  100   -1.0  0     0     994.7    NA       0.0000   9999     3770  0     0    
2019/07/15  10:59:00  BASE  0.94668  157  5.47428  283  -1.0  100   -1.0  0     0     995.1    NA       0.0000   9999     3870  0     0    
2019/07/15  11:00:00  BASE  0.45276  201  5.38608  302  -1.0  100   -1.0  0     0     995.2    NA       0.0000   9999     4170  0     0    
2019/07/15  11:01:00  BASE  0.65856  247  5.2626   265  -1.0  100   -1.0  0     0     995.1    NA       0.0000   9999     4130  0     0    
2019/07/15  11:02:00  BASE  1.68756  263  4.78044  268  -0.9  100   -0.9  0     0     995.0    NA       0.0000   9999     3840  0     0    
2019/07/15  11:03:00  BASE  2.61072  261  3.78084  287  -0.9  100   -0.9  0     0     994.9    NA       0.0000   9999     3940  0     0    
2019/07/15  11:04:00  BASE  3.03408  246  3.78084  287  -0.9  100   -0.9  0     0     995.0    NA       0.0000   9999     3870  0     0    
2019/07/15  11:05:00  BASE  2.01096  231  3.53976  238  -0.9  100   -0.9  0     0     995.1    NA       0.0000   9999     3870  0     0    
2019/07/15  11:06:00  BASE  1.43472  98   3.53976  238  -0.9  100   -0.9  0     0     994.9    NA       0.0000   9999     3870  0     0    
2019/07/15  11:07:00  BASE  1.32888  60   3.53976  238  -0.9  100   -0.9  0     0     994.5    NA       0.0000   9999     3710  0     0    
2019/07/15  11:08:00  BASE  1.31124  242  3.53976  238  -0.9  100   -0.9  0     0     994.9    NA       0.0000   9999     3670  0     0    
2019/07/15  11:09:00  BASE  1.21128  231  3.53976  238  -0.8  100   -0.8  0     0     995.0    NA       0.0000   9999     3970  0     0    
2019/07/15  11:10:00  BASE  0.77616  223  3.53976  238  -0.8  100   -0.8  0     0     995.1    NA       0.0000   9999     3810  0     0    
2019/07/15  11:11:00  BASE  1.75812  177  3.53976  238  -0.7  100   -0.7  0     0     995.1    NA       0.0000   9999     4040  0     0    
2019/07/15  11:12:00  BASE  2.28732  163  3.53976  238  -0.7  100   -0.7  0     0     995.0    NA       0.0000   9999     5120  0     0    
2019/07/15  11:13:00  BASE  1.94628  197  3.53976  238  -0.6  100   -0.6  0     0     995.0    NA       0.0000   9999     4460  0     0    
2019/07/15  11:14:00  BASE  2.09916  212  3.2046   132  -0.5  100   -0.5  0     0     994.9    NA       0.0000   9999     4950  0     0    
2019/07/15  11:15:00  BASE  2.32848  212  3.2046   132  -0.4  100   -0.4  0     0     994.9    NA       0.0000   9999     4720  0     0    
2019/07/15  11:16:00  BASE  2.33436  198  3.2046   132  -0.2  100   -0.2  0     0     995.0    NA       0.0000   9999     4590  0     0    
2019/07/15  11:17:01  BASE  2.352    194  3.2046   132  -0.2  100   -0.2  0     0     994.9    NA       0.0000   9999     4330  0     0    
2019/07/15  11:18:00  BASE  2.5284   196  3.2046   132  -0.1  100   -0.1  0     0     994.9    NA       0.0000   9999     4330  0     0    
2019/07/15  11:19:00  BASE  2.01096  215  3.26928  226  -0.0  100   -0.0  0     0     994.3    NA       0.0000   9999     4990  0     0    
2019/07/15  11:20:00  BASE  2.00508  32   4.53936  41   0.1   100   0.1   0     0     994.8    NA       0.0000   9999     4460  0     0    
2019/07/15  11:21:01  BASE  4.43352  69   7.3794   79   0.4   100   0.4   0     0     994.8    NA       0.0000   9999     3080  0     0    
2019/07/15  11:22:00  BASE  7.30884  75   9.4962   76   0.7   100   0.7   0     0     994.8    NA       0.0000   SQ       9999  4530  0    
2019/07/15  11:23:00  BASE  8.54364  76   9.86076  70   1.0   100   1.0   0     0     994.7    NA       0.0000   SQ       9999  4590  0    
2019/07/15  11:24:00  BASE  8.0262   82   9.86076  70   1.4   100   1.4   0     0     994.6    NA       0.0000   9999     4860  0     0    
2019/07/15  11:25:00  BASE  7.3794   86   9.86076  70   1.7   100   1.6   0     0     994.6    NA       0.0000   9999     4070  0     0    
2019/07/15  11:26:00  BASE  7.23828  84   9.86076  70   2.0   99    1.8   0     0     994.6    NA       0.0000   9999     4130  5250  0    
2019/07/15  11:27:00  BASE  7.03836  83   9.86076  70   2.2   96    1.6   0     0     994.7    NA       0.0000   9999     4130  0     0    
2019/07/15  11:28:00  BASE  6.30924  84   9.86076  70   2.4   93    1.4   0     0     994.6    NA       0.0000   9999     4040  5320  0    
2019/07/15  11:29:00  BASE  7.03248  79   10.0136  74   2.5   90    1.1   0     0     994.7    NA       0.0000   9999     4330  5150  0    
2019/07/15  11:30:00  BASE  8.62596  78   10.0136  74   2.6   87    0.6   0     0     994.7    NA       0.0000   9999     4000  5280  0    
2019/07/15  11:31:00  BASE  8.6142   81   10.0136  74   2.5   85    0.2   0     0     994.6    NA       0.0000   9999     4130  0     0    
2019/07/15  11:32:00  BASE  7.92624  83   10.0136  74   2.5   83    0.0   0     0     994.6    NA       0.0000   9999     4070  0     0    
2019/07/15  11:33:00  BASE  6.95016  83   10.0136  74   2.6   82    -0.1  0     0     994.6    NA       0.0000   9999     4000  0     0    
2019/07/15  11:34:00  BASE  6.59148  80   10.0136  74   2.7   81    -0.2  0     0     994.6    NA       0.0000   9999     3710  5350  0    
2019/07/15  11:35:00  BASE  7.84392  77   10.5252  69   2.8   80    -0.2  0     0     994.7    NA       0.0000   9999     5380  0     0    
2019/07/15  11:36:00  BASE  8.62596  77   10.5252  69   2.8   80    -0.3  0     0     994.6    NA       0.0000   9999     3610  0     0    
2019/07/15  11:37:00  BASE  8.54952  83   10.5252  69   2.8   80    -0.3  0     0     994.5    NA       0.0000   9999     4300  4860  0    
2019/07/15  11:38:00  BASE  8.43192  90   10.5252  69   2.8   80    -0.4  0     0     994.5    NA       0.0000   9999     4200  5180  0    
2019/07/15  11:39:00  BASE  7.66752  87   10.5252  69   2.7   80    -0.4  0     0     994.6    NA       0.0000   9999     4000  0     0    
2019/07/15  11:40:00  BASE  8.54952  69   12.2186  59   2.6   80    -0.5  0     0     994.6    NA       0.0000   9999     4170  0     0    
2019/07/15  11:41:00  BASE  9.03756  65   12.2186  59   2.6   80    -0.5  0     0     994.7    NA       0.0000   9999     3840  0     0    
2019/07/15  11:42:00  BASE  7.13832  81   12.2186  59   2.6   80    -0.5  0     0     994.5    NA       0.0000   9999     3940  0     0    
2019/07/15  11:43:00  BASE  6.24456  87   12.2186  59   2.7   79    -0.6  0     0     994.5    NA       0.0000   9999     3900  5020  0    
2019/07/15  11:44:00  BASE  8.14968  86   12.2186  59   2.7   78    -0.7  0     0     994.5    NA       0.0000   9999     4040  0     0    
2019/07/15  11:45:00  BASE  9.7902   87   12.2186  59   2.6   78    -0.8  0     0     994.5    NA       0.0000   9999     3940  0     0    
2019/07/15  11:46:00  BASE  8.93172  91   12.2186  59   2.6   78    -0.8  0     0     994.5    NA       0.0000   9999     3900  0     0    
2019/07/15  11:47:00  BASE  7.35     87   12.2186  59   2.8   78    -0.7  0     0     994.4    NA       0.0000   9999     3840  0     0    
2019/07/15  11:48:00  BASE  6.41508  83   12.2186  59   3.1   77    -0.6  0     0     994.5    NA       0.0000   9999     3740  0     0    
2019/07/15  11:49:00  BASE  6.53856  89   12.2186  59   3.3   76    -0.7  0     0     994.4    NA       0.0000   9999     3870  0     0    
2019/07/15  11:50:00  BASE  7.16772  93   11.3131  81   3.4   75    -0.7  0     0     994.4    NA       0.0000   9999     3710  0     0    
2019/07/15  11:51:00  BASE  8.13792  82   12.101   70   3.5   74    -0.7  0     0     994.5    NA       0.0000   9999     3740  0     0    
2019/07/15  11:52:00  BASE  9.09048  74   12.101   70   3.5   73    -0.9  0     0     994.6    NA       0.0000   9999     3870  0     0    
2019/07/15  11:53:00  BASE  8.10264  83   12.101   70   3.1   73    -1.2  0     0     994.6    NA       0.0000   9999     3710  0     0    
2019/07/15  11:54:00  BASE  6.81492  87   12.101   70   3.0   74    -1.3  0     0     994.5    NA       0.0000   9999     3480  0     0    
2019/07/15  11:55:00  BASE  8.07912  83   12.101   70   2.8   74    -1.4  0     0     994.5    NA       0.0000   9999     3610  0     0    
2019/07/15  11:56:00  BASE  9.07872  84   12.101   70   2.6   74    -1.5  0     0     994.4    NA       0.0000   9999     3020  0     0    
2019/07/15  11:57:00  BASE  8.83176  88   12.101   70   2.5   75    -1.5  0     0     994.4    NA       0.0000   9999     3540  0     0    
2019/07/15  11:58:01  BASE  9.85488  85   12.7067  69   2.4   75    -1.5  0     0     994.5    NA       0.0000   9999     2950  0     0    
2019/07/15  11:59:01  BASE  10.8427  81   12.7067  69   2.3   76    -1.5  0     0     994.5    NA       0.0000   9999     2990  0     0    
2019/07/15  12:00:01  BASE  10.2194  80   12.7067  69   2.2   76    -1.5  0     0     994.5    NA       0.0000   9999     3710  0     0    
2019/07/15  12:01:01  BASE  9.3492   79   12.7067  69   2.2   77    -1.5  0     0     994.5    NA       0.0000   9999     4100  0     0    
2019/07/15  12:02:01  BASE  9.13752  76   12.7067  69   2.2   77    -1.4  0     0     994.5    NA       0.0000   9999     3840  0     0    
2019/07/15  12:03:01  BASE  10.4605  72   12.7949  67   2.2   77    -1.4  0     0     994.6    NA       0.0000   9999     3770  0     0    
2019/07/15  12:04:01  BASE  11.2896  69   13.7004  65   2.3   77    -1.3  0     0     994.5    NA       0.0000   9999     3670  0     0    
2019/07/15  12:05:01  BASE  8.80236  75   13.7004  65   2.6   76    -1.2  0     0     994.4    NA       0.0000   9999     3580  0     0    
2019/07/15  12:06:01  BASE  6.75612  83   13.7004  65   2.8   75    -1.2  0     0     994.4    NA       0.0000   9999     3710  0     0    
2019/07/15  12:07:01  BASE  8.20848  77   13.7004  65   3.0   73    -1.4  0     0     994.4    NA       0.0000   9999     3220  0     0    
2019/07/15  12:08:00  BASE  8.86704  75   13.7004  65   3.0   72    -1.5  0     0     994.3    NA       0.0000   9999     4000  0     0    
2019/07/15  12:09:00  BASE  7.40292  88   13.7004  65   3.2   71    -1.5  0     0     994.2    NA       0.0000   9999     3810  0     0    
2019/07/15  12:10:01  BASE  6.81492  94   13.7004  65   3.2   71    -1.6  0     0     994.2    NA       0.0000   9999     3740  0     0    
2019/07/15  12:11:00  BASE  8.76708  88   13.7004  65   3.1   71    -1.6  0     0     994.3    NA       0.0000   9999     3670  0     0    
2019/07/15  12:12:01  BASE  9.69612  90   13.7004  65   3.1   71    -1.6  0     0     994.2    NA       0.0000   9999     3970  0     0    
2019/07/15  12:13:01  BASE  9.0846   90   13.7004  65   3.0   71    -1.6  0     0     994.3    NA       0.0000   9999     4070  0     0    
2019/07/15  12:14:00  BASE  10.3488  73   13.0066  62   2.8   72    -1.7  0     0     994.3    NA       0.0000   9999     4040  0     0    
2019/07/15  12:15:00  BASE  10.2488  75   13.0066  62   2.7   73    -1.6  0     0     994.3    NA       0.0000   9999     4130  0     0    
2019/07/15  12:16:00  BASE  8.9082   93   13.0066  62   2.7   73    -1.6  0     0     994.2    NA       0.0000   9999     4170  5610  0    
2019/07/15  12:17:00  BASE  8.07912  102  13.0066  62   2.7   74    -1.5  0     0     994.1    NA       0.0000   9999     4460  5740  0    
2019/07/15  12:18:00  BASE  7.65576  105  13.0066  62   2.8   74    -1.5  0     0     994.1    NA       0.0000   9999     6630  0     0    
2019/07/15  12:19:00  BASE  7.7028   103  13.0066  62   2.8   74    -1.4  0     0     994.1    NA       0.0000   9999     6590  0     0    
2019/07/15  12:20:00  BASE  8.232    97   13.0066  62   2.8   73    -1.5  0     0     994.2    NA       0.0000   9999     4300  6500  0    
2019/07/15  12:21:00  BASE  9.44916  87   14.1238  75   2.6   74    -1.6  0     0     994.3    NA       0.0000   9999     3970  4460  6230 
2019/07/15  12:22:00  BASE  11.0779  78   14.1238  75   2.4   75    -1.7  0     0     994.3    NA       0.0000   9999     3810  5740  0    
2019/07/15  12:23:00  BASE  10.7722  79   14.1238  75   2.3   75    -1.6  0     0     994.2    NA       0.0000   9999     5870  6660  0    
2019/07/15  12:24:00  BASE  8.89056  87   14.1238  75   2.3   76    -1.5  0     0     994.1    NA       0.0000   9999     6400  0     0    
2019/07/15  12:25:00  BASE  8.87292  92   14.1238  75   2.3   76    -1.5  0     0     994.2    NA       0.0000   9999     6170  7480  8200 
2019/07/15  12:26:00  BASE  9.2022   95   14.1238  75   2.3   76    -1.5  0     0     994.1    NA       0.0000   9999     6140  7320  8170 
2019/07/15  12:27:01  BASE  8.96112  88   14.1238  75   2.5   76    -1.4  0     0     994.1    NA       0.0000   9999     6890  8140  0    
2019/07/15  12:28:01  BASE  9.50208  80   14.1238  75   2.6   75    -1.4  0     0     994.2    NA       0.0000   9999     7250  8040  0    
2019/07/15  12:29:00  BASE  10.8839  78   14.1238  75   2.6   74    -1.5  0     0     994.3    NA       0.0000   9999     5710  6460  0    
2019/07/15  12:30:00  BASE  12.0952  82   14.1238  75   2.6   74    -1.6  0     0     994.3    NA       0.0000   9999     5740  6630  0    
2019/07/15  12:31:00  BASE  10.9368  93   13.8239  79   2.6   74    -1.5  0     0     994.1    NA       0.0000   9999     6660  0     0    
2019/07/15  12:32:00  BASE  8.85528  92   13.8239  79   2.9   73    -1.5  0     0     994.1    NA       0.0000   9999     6200  6760  8300 
2019/07/15  12:33:00  BASE  7.76748  85   13.8239  79   3.0   72    -1.6  0     0     994.1    NA       0.0000   9999     8330  0     0    
2019/07/15  12:34:00  BASE  8.75532  86   13.8239  79   3.1   71    -1.6  0     0     994.2    NA       0.0000   9999     6660  8070  0    
2019/07/15  12:35:00  BASE  9.74904  82   13.8239  79   3.1   71    -1.7  0     0     994.2    NA       0.0000   9999     8200  0     0    
2019/07/15  12:36:00  BASE  10.437   82   13.8239  79   3.1   70    -1.8  0     0     994.2    NA       0.0000   9999     6730  8200  0    
2019/07/15  12:37:00  BASE  11.0779  82   13.8239  79   2.8   71    -2.0  0     0     994.2    NA       0.0000   9999     5250  8270  0    
2019/07/15  12:38:00  BASE  10.0078  82   13.8239  79   2.5   72    -2.0  0     0     994.2    NA       0.0000   9999     6790  8400  0    
2019/07/15  12:39:00  BASE  9.59616  80   13.8239  79   2.4   73    -1.9  0     0     994.2    NA       0.0000   9999     6760  8200  0    
2019/07/15  12:40:00  BASE  11.1896  73   15.094   59   2.5   74    -1.8  0     0     994.3    NA       0.0000   9999     5150  8040  0    
2019/07/15  12:41:00  BASE  9.99012  70   15.094   59   2.6   74    -1.7  0     0     994.2    NA       0.0000   9999     6590  8010  0    
2019/07/15  12:42:00  BASE  7.97916  69   15.094   59   2.9   73    -1.6  0     0     994.2    NA       0.0000   9999     8010  0     0    
2019/07/15  12:43:00  BASE  9.82548  65   15.094   59   3.2   71    -1.6  0     0     994.2    NA       0.0000   9999     5710  6560  8040 
2019/07/15  12:44:00  BASE  8.87292  57   15.094   59   3.4   70    -1.6  0     0     994.2    NA       0.0000   9999     6400  0     0    
2019/07/15  12:45:00  BASE  8.57892  67   15.094   59   3.6   68    -1.8  0     0     994.2    NA       0.0000   9999     6270  0     0    
2019/07/15  12:46:00  BASE  9.69612  80   15.094   59   3.7   67    -2.0  0     0     994.3    NA       0.0000   9999     5910  0     0    
2019/07/15  12:47:00  BASE  9.19632  80   15.094   59   3.4   67    -2.2  0     0     994.2    NA       0.0000   9999     5940  0     0    
2019/07/15  12:48:00  BASE  10.3312  78   15.094   59   3.2   68    -2.2  0     0     994.3    NA       0.0000   9999     6760  0     0    
2019/07/15  12:49:00  BASE  9.64908  76   15.094   59   3.0   69    -2.2  0     0     994.3    NA       0.0000   9999     0     0     0    
2019/07/15  12:50:00  BASE  7.54992  72   14.065   68   2.9   70    -2.1  0     0     994.3    NA       0.0000   9999     4760  0     0    
2019/07/15  12:51:00  BASE  6.83844  71   14.065   68   3.0   70    -1.9  0     0     994.3    NA       0.0000   9999     4200  0     0    
2019/07/15  12:52:00  BASE  7.50876  76   14.065   68   3.3   69    -1.8  0     0     994.4    NA       0.0000   9999     3970  0     0    
2019/07/15  12:53:00  BASE  8.85528  80   13.7004  66   3.4   68    -1.9  0     0     994.4    NA       0.0000   9999     3580  0     0    
2019/07/15  12:54:00  BASE  8.91408  84   13.7004  66   3.4   67    -2.1  0     0     994.3    NA       0.0000   9999     7510  0     0    
2019/07/15  12:55:00  BASE  7.75572  88   13.7004  66   3.2   67    -2.3  0     0     994.2    NA       0.0000   9999     7510  0     0    
2019/07/15  12:56:00  BASE  7.46172  85   13.7004  66   3.0   68    -2.3  0     0     994.2    NA       0.0000   9999     7550  0     0    
2019/07/15  12:57:00  BASE  8.52012  80   13.7004  66   2.6   70    -2.4  0     0     994.3    NA       0.0000   9999     3840  0     0    
2019/07/15  12:58:00  BASE  8.90232  85   10.978   87   2.4   71    -2.3  0     0     994.2    NA       0.0000   9999     1350  0     0    
2019/07/15  12:59:00  BASE  8.232    93   10.978   87   2.2   73    -2.1  0     0     994.2    NA       0.0000   9999     0     0     0    
2019/07/15  13:00:00  BASE  8.01444  87   10.978   87   2.2   74    -2.0  0     0     994.2    NA       0.0000   9999     1380  0     0    
2019/07/15  13:01:00  BASE  9.5256   84   12.4303  90   2.2   74    -1.9  0     0     994.2    NA       0.0000   9999     0     0     0    
2019/07/15  13:02:00  BASE  9.65496  90   12.4303  90   2.2   75    -1.8  0     0     994.2    NA       0.0000   9999     0     0     0    
2019/07/15  13:03:00  BASE  8.37312  88   12.4303  90   2.3   75    -1.7  0     0     994.2    NA       0.0000   9999     7580  0     0    
2019/07/15  13:04:00  BASE  8.3202   84   12.4303  90   2.3   75    -1.6  0     0     994.2    NA       0.0000   9999     7420  0     0    
2019/07/15  13:05:00  BASE  7.9674   83   12.4303  90   2.3   75    -1.6  0     0     994.2    NA       0.0000   9999     7810  0     0    
2019/07/15  13:06:00  BASE  7.88508  82   12.4303  90   2.5   75    -1.4  0     0     994.2    NA       0.0000   9999     8010  0     0    
2019/07/15  13:07:00  BASE  8.22024  79   12.4303  90   2.6   75    -1.4  0     0     994.2    NA       0.0000   UP       9999  8330  0    
2019/07/15  13:08:00  BASE  7.60872  79   12.4303  90   2.8   74    -1.4  0     0     994.2    NA       0.0000   UP       9999  8200  0    
2019/07/15  13:09:00  BASE  7.47936  84   12.4303  90   2.9   73    -1.4  0     0     994.2    NA       0.0000   UP       9999  8270  0    
2019/07/15  13:10:00  BASE  8.30844  83   12.4303  90   2.9   73    -1.5  0     0     994.2    NA       0.0000   UP       9999  8300  0    
2019/07/15  13:11:00  BASE  8.97876  78   10.7369  78   2.9   72    -1.6  0     0     994.2    NA       0.0000   UP       9999  8170  8760 
2019/07/15  13:12:00  BASE  9.38448  79   10.7369  78   2.8   73    -1.6  1     0     994.2    NA       0.0000   UP       9999  8790  0    
2019/07/15  13:13:00  BASE  9.7608   81   11.8247  88   2.8   73    -1.6  1     0     994.2    NA       0.0000   UP       9999  8830  0    
2019/07/15  13:14:01  BASE  10.337   80   11.8247  88   2.8   73    -1.6  1     0     994.2    NA       0.0000   UP       9999  8560  0    
2019/07/15  13:15:01  BASE  9.89016  77   11.8247  88   2.8   73    -1.5  1     0     994.2    NA       0.0000   UP       9999  8430  9060 
2019/07/15  13:16:01  BASE  8.7906   74   11.8247  88   2.9   73    -1.5  1     0     994.2    NA       0.0000   UP       9999  8730  0    
2019/07/15  13:17:01  BASE  9.44328  72   12.6773  69   2.9   73    -1.5  1     0     994.1    NA       0.0000   UP       9999  8630  9420 
2019/07/15  13:18:01  BASE  10.4546  73   12.6773  69   3.0   72    -1.5  1     0     994.1    NA       0.0000   UP       9999  9020  9480 
2019/07/15  13:19:01  BASE  9.91368  73   12.6773  69   3.0   72    -1.5  1     0     994.1    NA       0.0000   UP       9999  9380  0    
2019/07/15  13:20:00  BASE  9.16692  76   12.6773  69   3.0   72    -1.6  1     0     994.2    NA       0.0000   UP       9999  9380  0    
2019/07/15  13:21:00  BASE  9.14928  74   12.6773  69   2.9   72    -1.6  1     0     994.2    NA       0.0000   UP       9999  9350  0    
2019/07/15  13:22:00  BASE  9.996    68   12.6773  69   2.9   72    -1.6  1     0     994.1    NA       0.0000   UP       9999  9320  0    
2019/07/15  13:23:00  BASE  10.6134  72   13.036   85   2.9   72    -1.7  1     0     994.1    NA       0.0000   9999     9320  0     0    
2019/07/15  13:24:00  BASE  9.79608  76   13.036   85   2.9   72    -1.7  1     0     994.1    NA       0.0000   9999     9350  0     0    
2019/07/15  13:25:00  BASE  9.16692  81   13.036   85   3.0   71    -1.7  1     0     994.1    NA       0.0000   9999     9290  0     0    
2019/07/15  13:26:00  BASE  9.32568  82   13.036   85   3.0   71    -1.8  1     0     994.1    NA       0.0000   9999     9290  0     0    
2019/07/15  13:27:00  BASE  9.44328  74   13.036   85   3.0   71    -1.8  1     0     994.1    NA       0.0000   9999     9150  0     0    
2019/07/15  13:28:00  BASE  9.8196   73   13.036   85   2.9   71    -1.9  1     0     994.1    NA       0.0000   9999     9190  0     0    
2019/07/15  13:29:00  BASE  9.7608   77   13.036   85   2.8   71    -1.9  1     0     994.1    NA       0.0000   9999     9090  0     0    
2019/07/15  13:30:00  BASE  9.48444  78   13.036   85   2.7   71    -1.9  1     0     994.1    NA       0.0000   9999     8860  0     0    
2019/07/15  13:31:00  BASE  9.89604  75   13.036   85   2.7   72    -1.9  1     0     994.1    NA       0.0000   9999     9150  0     0    
2019/07/15  13:32:00  BASE  10.8662  74   13.036   85   2.8   72    -1.8  2     0     994.0    NA       0.0000   9999     8890  0     0    
2019/07/15  13:33:00  BASE  11.7482  72   12.9184  73   2.8   72    -1.8  2     0     994.0    NA       0.0000   9999     8860  0     0    
2019/07/15  13:34:00  BASE  11.3954  69   12.9184  73   2.8   72    -1.8  2     0     994.0    NA       0.0000   9999     9090  0     0    
2019/07/15  13:35:00  BASE  10.6134  67   12.9184  73   2.8   72    -1.7  2     0     994.1    NA       0.0000   9999     9060  0     0    
2019/07/15  13:36:00  BASE  10.7839  65   12.9184  73   2.7   73    -1.7  2     0     994.0    NA       0.0000   9999     8790  0     0    
2019/07/15  13:37:00  BASE  11.4542  66   13.1006  61   2.6   73    -1.7  2     0     994.0    NA       0.0000   9999     8860  0     0    
2019/07/15  13:38:00  BASE  11.6071  66   13.1888  68   2.6   74    -1.6  2     0     994.0    NA       0.0000   9999     9150  0     0    
2019/07/15  13:39:00  BASE  11.6894  65   13.4005  67   2.6   74    -1.5  2     0     994.0    NA       0.0000   9999     9090  0     0    
2019/07/15  13:40:00  BASE  12.1951  67   13.4005  67   2.6   75    -1.5  2     0     993.9    NA       0.0000   9999     9190  0     0    
2019/07/15  13:41:00  BASE  11.8364  69   13.4005  67   2.6   75    -1.4  2     0     993.9    NA       0.0000   9999     9190  0     0    
2019/07/15  13:42:00  BASE  12.1128  68   13.5828  68   2.6   74    -1.5  2     0     993.9    NA       0.0000   9999     9150  0     0    
2019/07/15  13:43:00  BASE  12.6361  66   13.5828  68   2.6   74    -1.5  2     0     993.9    NA       0.0000   9999     9060  0     0    
2019/07/15  13:44:00  BASE  12.1128  62   13.5828  68   2.6   74    -1.6  2     0     993.9    NA       0.0000   9999     8920  0     0    
2019/07/15  13:45:00  BASE  12.3598  59   13.9768  60   2.6   74    -1.5  2     0     993.8    NA       0.0000   9999     8960  0     0    
2019/07/15  13:46:00  BASE  12.5362  56   13.9768  60   2.6   75    -1.5  2     0     993.8    NA       0.0000   9999     9120  0     0    
2019/07/15  13:47:00  BASE  12.1598  54   13.9768  60   2.6   75    -1.4  2     0     993.8    NA       0.0000   9999     9190  0     0    
2019/07/15  13:48:00  BASE  12.3304  53   14.9411  56   2.6   76    -1.2  2     0     993.7    NA       0.0000   9999     9090  0     0    
2019/07/15  13:49:00  BASE  13.3123  53   15.9995  48   2.6   77    -1.1  2     0     993.6    NA       0.0000   9999     8960  0     0    
2019/07/15  13:50:00  BASE  13.9591  52   15.9995  48   2.6   78    -0.9  2     0     993.6    NA       0.0000   9999     8790  0     0    
2019/07/15  13:51:00  BASE  14.2296  52   15.9995  48   2.6   78    -0.8  3     0     993.6    NA       0.0000   9999     9120  0     0    
2019/07/15  13:52:00  BASE  14.0591  53   15.9995  48   2.7   78    -0.7  3     0     993.6    NA       0.0000   9999     8960  0     0    
2019/07/15  13:53:00  BASE  13.5299  53   15.9995  48   2.7   78    -0.7  3     0     993.6    NA       0.0000   9999     8960  0     0    
2019/07/15  13:54:00  BASE  13.5769  53   15.9995  48   2.7   78    -0.7  3     0     993.6    NA       0.0000   UP       9999  8890  0    
2019/07/15  13:55:00  BASE  14.6177  52   17.787   51   2.7   78    -0.7  3     0     993.4    NA       0.0000   UP       9999  8890  0    
2019/07/15  13:56:00  BASE  15.7231  51   17.787   51   2.8   78    -0.7  3     0     993.4    NA       0.0000   UP       9999  9190  0    
2019/07/15  13:57:00  BASE  16.0877  50   17.787   51   2.8   78    -0.7  3     0     993.3    NA       0.0000   UP       9999  9250  0    
2019/07/15  13:58:00  BASE  16.6169  49   18.2104  46   2.8   78    -0.7  4     0     993.3    NA       0.0000   UP       9999  9120  0    
2019/07/15  13:59:00  BASE  16.9697  49   18.2104  46   2.8   78    -0.7  4     0     993.2    NA       0.0000   UP       9999  9150  0    
2019/07/15  14:00:00  BASE  17.005   49   18.9336  45   2.9   77    -0.7  4     0     993.1    NA       0.0000   UP       9999  9220  0    
2019/07/15  14:01:00  BASE  17.2696  48   18.9336  45   2.9   77    -0.7  5     0     993.0    NA       0.0000   UP       9999  9250  0    
2019/07/15  14:02:00  BASE  18.4162  48   21.268   48   2.9   77    -0.8  5     0     992.9    NA       0.0000   UP       9999  9060  0    
2019/07/15  14:03:00  BASE  18.5749  47   21.268   48   2.9   77    -0.8  6     0     992.9    NA       0.0000   UP       9999  9190  0    
2019/07/15  14:04:00  BASE  17.9281  46   21.268   48   2.9   76    -0.8  7     0     992.9    NA       0.0000   UP       9999  9250  0    
2019/07/15  14:05:00  BASE  18.1104  46   21.268   48   3.0   76    -0.8  8     0     992.9    NA       0.0000   UP       9999  9320  0    
2019/07/15  14:06:00  BASE  18.5279  45   21.268   48   3.0   76    -0.8  9     0     992.9    NA       0.0000   UP       9999  9250  0    
2019/07/15  14:07:00  BASE  18.1692  43   21.268   48   3.0   76    -0.8  9     0     993.0    NA       0.0000   UP       9999  9290  0    
2019/07/15  14:08:00  BASE  17.7988  38   21.268   48   2.9   76    -0.9  9     0     992.9    NA       0.0000   UP       9999  9250  0    
2019/07/15  14:09:00  BASE  17.4636  36   21.268   48   2.9   76    -0.9  9     0     993.1    NA       0.0000   UP       9999  9380  0    
2019/07/15  14:10:00  BASE  17.0873  37   21.268   48   3.0   76    -0.9  8     0     993.1    NA       0.0000   UP       9999  8990  0    
2019/07/15  14:11:00  BASE  17.2519  37   21.268   48   3.0   76    -0.9  7     0     993.1    NA       0.0000   UP       9999  9380  0    
2019/07/15  14:12:00  BASE  16.8344  36   20.7799  41   3.0   75    -0.9  6     0     993.2    NA       0.0000   UP       9999  8960  0    
2019/07/15  14:13:00  BASE  16.7168  37   20.7799  41   3.0   75    -1.0  5     0     993.3    NA       0.0000   UP       9999  9250  0    
2019/07/15  14:14:00  BASE  16.3758  39   20.7799  41   3.0   75    -1.0  5     0     993.3    NA       0.0000   UP       9999  8300  0    
2019/07/15  14:15:00  BASE  16.3523  38   20.7211  29   3.0   75    -1.0  5     0     993.3    NA       0.0000   UP       9999  9060  0    
2019/07/15  14:16:00  BASE  16.9814  40   20.7211  29   2.9   75    -1.0  4     0     993.3    NA       0.0000   UP       9999  8300  0    
2019/07/15  14:17:00  BASE  17.4342  41   20.7211  29   2.9   75    -1.0  4     0     993.3    NA       0.0000   UP       9999  0     0    
2019/07/15  14:18:00  BASE  18.3632  42   20.9034  41   2.9   76    -0.9  4     0     993.2    NA       0.0000   UP       9999  0     0    
2019/07/15  14:19:00  BASE  18.6396  43   20.9034  41   3.0   76    -0.9  5     0     993.2    NA       0.0000   UP       9999  0     0    
2019/07/15  14:20:00  BASE  18.1574  43   20.9034  41   3.0   76    -0.9  5     0     993.3    NA       0.0000   UP       9999  0     0    
2019/07/15  14:21:00  BASE  17.7694  44   20.9034  41   3.0   76    -0.8  6     0     993.4    NA       0.0000   UP       9999  0     0    
2019/07/15  14:22:00  BASE  17.1226  44   20.9034  41   3.1   76    -0.8  7     0     993.4    NA       0.0000   UP       9999  0     0    
2019/07/15  14:23:00  BASE  16.8638  44   20.9034  41   3.0   76    -0.8  7     0     993.4    NA       0.0000   UP       9999  0     0    
2019/07/15  14:24:00  BASE  17.1343  43   20.9034  41   3.0   76    -0.8  8     0     993.4    NA       0.0000   UP       9999  0     0    
2019/07/15  14:25:00  BASE  16.9756  42   20.9034  41   3.0   76    -0.8  8     0     993.4    NA       0.0000   UP       9999  2360  0    
2019/07/15  14:26:00  BASE  17.0755  43   20.9034  41   2.9   77    -0.8  8     0     993.4    NA       0.0000   UP       9999  0     0    
2019/07/15  14:27:00  BASE  17.493   43   20.9034  41   2.9   77    -0.7  9     0     993.3    NA       0.0000   UP       9999  430   0    
2019/07/15  14:28:00  BASE  17.3695  42   20.7799  43   2.9   77    -0.7  10    0     993.3    NA       0.0000   UP       9000  0     0    
2019/07/15  14:29:00  BASE  16.6169  41   20.7799  43   2.8   78    -0.7  11    0     993.4    NA       0.0000   -SN      7000  360   0    
2019/07/15  14:30:00  BASE  16.3699  43   20.7799  43   2.8   78    -0.7  12    0     993.4    NA       0.0000   -SN      9000  9250  0    
2019/07/15  14:31:00  BASE  16.805   46   20.7799  43   2.7   78    -0.6  13    0     993.3    NA       0.0000   -SN      9999  9220  0    
2019/07/15  14:32:00  BASE  16.4522  47   20.7799  43   2.7   79    -0.6  13    0     993.4    NA       0.0000   -SN      9999  9250  0    
2019/07/15  14:33:00  BASE  17.0932  46   20.7799  43   2.7   79    -0.6  14    0     993.3    NA       0.0000   -SN      7000  9250  0    
2019/07/15  14:34:00  BASE  18.0986  45   20.7799  43   2.6   79    -0.6  15    0     993.3    NA       0.0000   -SN      7000  9420  0    
2019/07/15  14:35:00  BASE  17.9458  46   20.7799  43   2.6   80    -0.6  16    0     993.3    NA       0.0000   -SN      9000  9510  0    
2019/07/15  14:36:00  BASE  17.7694  45   20.7799  43   2.6   80    -0.5  16    0     993.3    NA       0.0000   -SN      9999  9380  0    
2019/07/15  14:37:00  BASE  17.5812  41   20.6623  53   2.5   80    -0.5  17    0     993.2    NA       0.0000   -SN      9999  9250  0    
2019/07/15  14:38:00  BASE  17.5106  43   20.6623  53   2.6   80    -0.5  18    0     993.4    NA       0.0000   -SN      9999  9970  0    
2019/07/15  14:39:00  BASE  17.5988  46   20.6623  53   2.6   80    -0.4  18    0     993.3    NA       0.0000   -SN      9999  9840  0    
2019/07/15  14:40:00  BASE  18.1574  45   21.1739  43   2.6   80    -0.4  18    0     993.3    NA       0.0000   -SN      9999  9880  0    
2019/07/15  14:41:00  BASE  18.5044  45   21.1739  43   2.7   80    -0.4  19    0     993.3    NA       0.0000   -SN      9999  9970  0    
2019/07/15  14:42:00  BASE  17.7694  43   21.1739  43   2.7   79    -0.5  19    0     993.3    NA       0.0000   -SN      9999  9880  0    
2019/07/15  14:43:00  BASE  17.4342  43   21.1739  43   2.8   79    -0.5  20    0     993.4    NA       0.0000   -SN      9999  10010 0    
2019/07/15  14:44:00  BASE  16.9403  43   21.1739  43   2.8   78    -0.6  20    0     993.4    NA       0.0000   -SN      9999  9940  0    
2019/07/15  14:45:00  BASE  16.7639  41   21.1739  43   2.8   78    -0.6  20    0     993.3    NA       0.0000   -SN      9999  10010 0    
2019/07/15  14:46:00  BASE  17.4636  41   21.1739  43   2.8   78    -0.7  21    0     993.4    NA       0.0000   -SN      9999  10040 0    
2019/07/15  14:47:00  BASE  17.6812  42   21.1739  43   2.8   78    -0.7  21    0     993.3    NA       0.0000   -SN      9999  10070 0    
2019/07/15  14:48:00  BASE  18.0751  41   21.1739  43   2.8   78    -0.7  21    0     993.3    NA       0.0000   -SN      9999  10140 0    
2019/07/15  14:49:00  BASE  17.2931  39   21.1739  43   2.8   78    -0.8  20    0     993.4    NA       0.0000   9999     10140 0     0    
2019/07/15  14:50:00  BASE  16.3523  38   20.5094  37   2.8   77    -0.8  20    0     993.4    NA       0.0000   9999     10040 0     0    
2019/07/15  14:51:00  BASE  16.2817  36   20.5094  37   2.8   77    -0.8  20    0     993.3    NA       0.0000   9999     10270 0     0    
2019/07/15  14:52:00  BASE  16.0994  36   20.5094  37   2.8   77    -0.8  20    0     993.4    NA       0.0000   9999     10200 0     0    
2019/07/15  14:53:00  BASE  16.4228  37   20.5094  37   2.8   77    -0.8  20    0     993.3    NA       0.0000   9999     10200 0     0    
2019/07/15  14:54:00  BASE  16.805   35   20.5094  37   2.8   77    -0.8  21    0     993.3    NA       0.0000   9999     10140 0     0    
2019/07/15  14:55:00  BASE  16.511   34   20.5094  37   2.9   76    -0.9  21    0     993.4    NA       0.0000   9999     10070 0     0    
2019/07/15  14:56:00  BASE  15.5644  34   20.5094  37   2.9   76    -0.9  21    0     993.4    NA       0.0000   9999     10010 0     0    
2019/07/15  14:57:00  BASE  15.5056  34   20.5094  37   2.9   76    -1.0  21    0     993.3    NA       0.0000   9999     10170 0     0    
2019/07/15  14:58:00  BASE  15.5644  34   19.6627  35   2.9   75    -1.0  21    0     993.3    NA       0.0000   9999     10140 0     0    
2019/07/15  14:59:00  BASE  14.5001  33   19.5392  37   2.8   75    -1.1  20    0     993.4    NA       0.0000   9999     10140 0     0    
2019/07/15  15:00:00  BASE  14.4589  31   19.5392  37   2.8   76    -1.1  20    0     993.4    NA       0.0000   9999     10140 0     0    
2019/07/15  15:01:00  BASE  15.2821  32   19.5392  37   2.7   76    -1.1  19    0     993.3    NA       0.0000   9999     10170 0     0    
2019/07/15  15:02:00  BASE  15.2527  33   19.5392  37   2.6   77    -1.1  19    0     993.4    NA       0.0000   9999     10110 0     0    
2019/07/15  15:03:00  BASE  15.6055  33   19.5392  37   2.6   77    -1.0  18    0     993.3    NA       0.0000   9999     10110 0     0    
2019/07/15  15:04:00  BASE  16.217   31   19.5392  37   2.6   77    -1.0  18    0     993.3    NA       0.0000   9999     10270 0     0    
2019/07/15  15:05:00  BASE  15.5056  30   19.5392  37   2.6   78    -0.9  17    0     993.4    NA       0.0000   9999     10200 0     0    
2019/07/15  15:06:00  BASE  15.0763  30   19.5392  37   2.6   78    -0.9  17    0     993.4    NA       0.0000   9999     10140 0     0    
2019/07/15  15:07:00  BASE  15.2704  29   19.5392  37   2.6   78    -0.9  17    0     993.4    NA       0.0000   9999     10040 0     0    
2019/07/15  15:08:00  BASE  14.6824  31   19.3922  36   2.6   78    -0.8  17    0     993.5    NA       0.0000   9999     10110 0     0    
2019/07/15  15:09:00  BASE  14.6353  33   19.3922  36   2.6   78    -0.8  17    0     993.4    NA       0.0000   9999     10270 0     0    
2019/07/15  15:10:00  BASE  16.1347  32   19.4216  33   2.6   78    -0.8  17    0     993.3    NA       0.0000   9999     10140 0     0    
2019/07/15  15:11:00  BASE  16.6933  33   19.4216  33   2.6   79    -0.8  18    0     993.3    NA       0.0000   9999     10240 0     0    
2019/07/15  15:12:00  BASE  16.4228  33   20.1449  41   2.5   79    -0.7  18    0     993.2    NA       0.0000   9999     10140 0     0    
2019/07/15  15:13:00  BASE  16.952   34   20.1449  41   2.5   79    -0.7  18    0     993.2    NA       0.0000   9999     10140 0     0    
2019/07/15  15:14:00  BASE  17.5871  32   20.1449  41   2.5   80    -0.7  19    0     993.1    NA       0.0000   9999     10110 0     0    
2019/07/15  15:15:00  BASE  18.1868  31   20.1449  41   2.5   80    -0.6  19    0     993.0    NA       0.0000   9999     10070 0     0    
2019/07/15  15:16:00  BASE  18.3162  32   20.1449  41   2.5   80    -0.5  19    0     993.1    NA       0.0000   9999     10240 0     0    
2019/07/15  15:17:00  BASE  18.7219  32   20.7799  31   2.5   81    -0.5  20    0     993.0    NA       0.0000   9999     10110 0     0    
2019/07/15  15:18:00  BASE  18.8101  32   20.7799  31   2.5   81    -0.5  20    0     993.0    NA       0.0000   9999     10300 0     0    
2019/07/15  15:19:00  BASE  17.5165  33   20.7799  31   2.5   81    -0.5  20    0     993.1    NA       0.0000   9999     10270 0     0    
2019/07/15  15:20:00  BASE  16.9991  32   20.7799  31   2.4   81    -0.5  20    0     993.1    NA       0.0000   9999     10340 0     0    
2019/07/15  15:21:00  BASE  17.0814  32   20.7799  31   2.4   81    -0.4  20    0     993.2    NA       0.0000   9999     10400 0     0    
2019/07/15  15:22:00  BASE  17.1931  31   20.7799  31   2.4   82    -0.4  20    0     993.1    NA       0.0000   9999     10340 0     0    
2019/07/15  15:23:00  BASE  17.1461  29   20.7799  31   2.4   82    -0.4  19    0     993.2    NA       0.0000   9999     10400 0     0    
2019/07/15  15:24:00  BASE  17.4518  29   20.7799  31   2.4   82    -0.3  19    0     993.2    NA       0.0000   9999     10300 0     0    
2019/07/15  15:25:00  BASE  17.4283  30   20.7799  31   2.4   82    -0.4  20    0     993.3    NA       0.0000   9999     10340 0     0    
2019/07/15  15:26:00  BASE  17.1931  29   20.7799  31   2.4   82    -0.4  20    0     993.3    NA       0.0000   9999     10240 0     0    
2019/07/15  15:27:00  BASE  17.1931  28   20.5388  37   2.4   82    -0.4  20    0     993.3    NA       0.0000   9999     10240 0     0    
2019/07/15  15:28:00  BASE  16.8991  28   19.992   31   2.4   82    -0.4  21    0     993.3    NA       0.0000   9999     10240 0     0    
2019/07/15  15:29:00  BASE  16.7168  28   19.992   31   2.4   82    -0.4  21    0     993.4    NA       0.0000   9999     10070 0     0    
2019/07/15  15:30:00  BASE  16.2464  30   19.992   31   2.3   82    -0.3  21    0     993.5    NA       0.0000   9999     10040 0     0    
2019/07/15  15:31:00  BASE  16.7404  30   19.8744  24   2.3   83    -0.3  21    0     993.5    NA       0.0000   UP       9999  10270 0    
2019/07/15  15:32:00  BASE  17.0873  31   19.8156  30   2.3   83    -0.3  21    0     993.5    NA       0.0000   UP       9999  10240 0    
2019/07/15  15:33:00  BASE  17.346   33   19.8156  30   2.3   83    -0.3  21    0     993.4    NA       0.0000   UP       9999  10300 0    
2019/07/15  15:34:00  BASE  17.0344  33   19.8156  30   2.3   83    -0.3  22    0     993.6    NA       0.0000   UP       9999  10500 0    
2019/07/15  15:35:00  BASE  16.4581  32   19.6039  31   2.3   83    -0.3  22    0     993.6    NA       0.0000   UP       9999  10370 0    
2019/07/15  15:36:00  BASE  16.2758  31   19.5392  26   2.3   83    -0.3  22    0     993.6    NA       0.0000   UP       9999  7150  10300
2019/07/15  15:37:00  BASE  16.1994  32   19.5392  26   2.3   83    -0.3  22    0     993.6    NA       0.0000   UP       9999  10500 0    
2019/07/15  15:38:00  BASE  16.1465  30   19.1453  32   2.3   83    -0.3  22    0     993.6    NA       0.0000   UP       9999  10270 0    
2019/07/15  15:39:00  BASE  15.9054  29   19.1453  32   2.3   83    -0.3  23    0     993.7    NA       0.0000   UP       9999  10500 0    
2019/07/15  15:40:00  BASE  16.0759  31   19.1453  32   2.3   83    -0.3  23    0     993.7    NA       0.0000   UP       9999  10500 0    
2019/07/15  15:41:00  BASE  16.2229  30   19.1453  32   2.3   83    -0.3  24    0     993.7    NA       0.0000   UP       9999  10430 0    
2019/07/15  15:42:00  BASE  16.3934  28   19.1453  32   2.3   83    -0.3  24    0     993.7    NA       0.0000   UP       9999  10760 0    
2019/07/15  15:43:00  BASE  17.3401  27   21.1151  27   2.3   83    -0.3  25    0     993.5    NA       0.0000   UP       9999  10930 0    
2019/07/15  15:44:00  BASE  18.128   29   21.1151  27   2.3   83    -0.2  26    0     993.5    NA       0.0000   UP       9999  7910  0    
2019/07/15  15:45:01  BASE  18.3515  30   21.1151  27   2.3   84    -0.2  26    0     993.6    NA       0.0000   UP       9999  9610  10560
2019/07/15  15:46:00  BASE  18.375   31   21.1151  27   2.3   84    -0.2  26    0     993.7    NA       0.0000   UP       9999  9780  0    
2019/07/15  15:47:00  BASE  17.5106  32   21.1151  27   2.3   84    -0.1  26    0     993.7    NA       0.0000   UP       9999  10430 0    
2019/07/15  15:48:00  BASE  16.8756  31   21.1151  27   2.3   84    -0.1  25    0     993.8    NA       0.0000   UP       9999  10530 0    
2019/07/15  15:49:00  BASE  16.1994  29   21.1151  27   2.3   84    -0.1  24    0     993.9    NA       0.0000   UP       9999  10560 0    
2019/07/15  15:50:01  BASE  15.876   29   21.1151  27   2.2   85    -0.1  22    0     993.9    NA       0.0000   UP       9999  10790 0    
2019/07/15  15:51:00  BASE  15.9877  31   21.1151  27   2.2   85    -0.1  19    0     994.0    NA       0.0000   UP       9999  0     0    
2019/07/15  15:52:00  BASE  16.4287  31   21.1151  27   2.2   85    -0.1  18    0     993.8    NA       0.0000   UP       9999  0     0    
2019/07/15  15:53:00  BASE  15.6584  30   20.48    29   2.2   85    -0.0  20    0     994.1    NA       0.0000   UP       9999  0     0    
2019/07/15  15:54:00  BASE  14.5648  31   20.1743  31   2.2   85    -0.0  25    0     994.1    NA       0.0000   UP       9999  0     0    
2019/07/15  15:55:00  BASE  14.3002  30   19.8156  40   2.2   86    -0.0  27    0     994.1    NA       0.0000   UP       9999  0     0    
2019/07/15  15:56:00  BASE  14.3884  28   18.9336  33   2.1   86    0.0   27    0     994.0    NA       0.0000   UP       9999  0     0    
2019/07/15  15:57:00  BASE  14.8     29   18.8454  31   2.1   86    0.0   25    0     994.1    NA       0.0000   UP       9999  0     0    
2019/07/15  15:58:00  BASE  14.4295  27   18.8454  31   2.1   86    0.0   24    0     994.1    NA       0.0000   UP       9999  0     0    
2019/07/15  15:59:00  BASE  14.5001  26   18.8454  31   2.1   86    0.0   20    0     994.1    NA       0.0000   UP       9999  0     0    
2019/07/15  16:00:00  BASE  14.7529  27   18.8454  31   2.1   86    0.0   18    0     994.2    NA       0.0000   UP       9999  330   0    
2019/07/15  16:01:00  BASE  14.994   27   18.8454  31   2.1   87    0.1   22    0     994.2    NA       0.0000   UP       6000  200   0    
2019/07/15  16:02:00  BASE  14.7     27   17.5165  28   2.0   87    0.1   24    0     994.2    NA       0.0000   -SN      BR    3700  230  
2019/07/15  16:03:00  BASE  14.3766  28   17.5165  28   2.0   87    0.1   28    0     994.3    NA       0.0000   -SN      BR    3100  0    
2019/07/15  16:04:00  BASE  14.453   29   17.5165  28   2.0   87    0.1   30    0     994.3    NA       0.0000   -SN      BR    3600  330  
2019/07/15  16:05:00  BASE  13.8004  32   17.5165  28   1.9   88    0.1   31    0     994.3    NA       0.0000   -SN      BR    4800  0    
2019/07/15  16:06:00  BASE  13.6181  32   16.7286  34   1.9   88    0.2   31    0     994.2    NA       0.0000   -SN      BR    4700  0    
2019/07/15  16:07:00  BASE  13.4182  31   16.7286  34   1.9   89    0.2   30    0     994.2    NA       0.0000   -SN      BR    7000  0    
2019/07/15  16:08:00  BASE  14.5236  33   18.0869  34   1.9   89    0.3   29    0     994.1    NA       0.0000   -SN      BR    9999  0    
2019/07/15  16:09:00  BASE  15.9995  35   18.0869  34   1.8   90    0.4   28    0     994.1    NA       0.0000   -SN      BR    9999  0    
2019/07/15  16:10:00  BASE  15.7231  33   18.2692  30   1.8   91    0.5   26    0     994.1    NA       0.0000   -SN      BR    9999  0    
2019/07/15  16:11:00  BASE  15.6173  30   18.2692  30   1.9   91    0.6   26    0     994.1    NA       0.0000   -SN      BR    9999  0    
2019/07/15  16:12:00  BASE  15.7819  32   18.2692  30   1.9   92    0.7   27    0     994.1    NA       0.0000   -SN      BR    9999  0    
2019/07/15  16:13:00  BASE  15.7466  33   18.2692  30   1.9   92    0.8   29    0     994.1    NA       0.0000   -SN      BR    9999  0    
2019/07/15  16:14:00  BASE  14.6059  32   18.2692  30   1.9   93    0.9   31    0     994.2    NA       0.0000   -SN      BR    9999  0    
2019/07/15  16:15:00  BASE  14.5118  32   18.2692  30   1.9   93    0.9   33    0     994.1    NA       0.0000   -SN      9999  0     0    
2019/07/15  16:16:00  BASE  14.9293  33   18.2692  30   1.9   93    0.9   35    0     994.1    NA       0.0000   -SN      9999  0     0    
2019/07/15  16:17:00  BASE  14.0473  33   18.2692  30   1.9   93    0.9   37    0     994.2    NA       0.0000   -SN      9999  0     0    
2019/07/15  16:18:00  BASE  13.7533  30   18.2692  30   2.0   93    1.0   38    0     994.2    NA       0.0000   -SN      9999  0     0    
2019/07/15  16:19:00  BASE  15.1586  31   18.2692  30   2.0   93    1.0   37    0     994.0    NA       0.0000   -SN      9999  0     0    
2019/07/15  16:20:00  BASE  15.4174  29   18.2692  30   2.0   94    1.1   38    0     994.1    NA       0.0000   -SN      9999  0     0    
2019/07/15  16:21:00  BASE  14.5824  29   18.2692  30   2.0   94    1.1   41    0     994.0    NA       0.0000   -SN      9999  0     0    
2019/07/15  16:22:00  BASE  14.5589  30   18.2692  30   2.0   94    1.1   41    0     994.1    NA       0.0000   -SN      9999  0     0    
2019/07/15  16:23:00  BASE  14.6118  29   18.2692  30   2.0   94    1.2   39    0     994.1    NA       0.0000   -SN      9999  0     0    
2019/07/15  16:24:00  BASE  15.2527  31   18.2692  30   2.0   94    1.2   34    0     994.0    NA       0.0000   -SN      9999  0     0    
2019/07/15  16:25:00  BASE  15.0587  29   18.2692  30   2.0   95    1.2   28    0     994.1    NA       0.0000   -SN      9999  430   0    
2019/07/15  16:26:00  BASE  14.8823  27   18.2692  30   2.0   95    1.3   26    0     994.0    NA       0.0000   -SN      4800  330   0    
2019/07/15  16:27:00  BASE  14.3354  29   18.2692  30   2.0   95    1.3   29    0     994.1    NA       0.0000   -SN      BR    2800  330  
2019/07/15  16:28:00  BASE  13.3652  28   18.2692  30   2.0   95    1.3   34    0     994.1    NA       0.0000   -SN      BR    3400  0    
2019/07/15  16:29:00  BASE  13.3652  28   17.4224  40   2.0   95    1.3   35    0     994.1    NA       0.0000   -SN      BR    7000  0    
2019/07/15  16:30:00  BASE  13.4476  29   17.4224  40   1.9   95    1.3   39    0     994.1    NA       0.0000   -SN      BR    8000  390  
2019/07/15  16:31:00  BASE  13.8533  28   17.4224  40   1.9   96    1.3   47    0     994.0    NA       0.0000   -SN      BR    5000  360  
2019/07/15  16:32:00  BASE  14.1414  30   17.4224  40   1.9   96    1.4   51    0     994.0    NA       0.0000   -SN      BR    4200  360  
2019/07/15  16:33:00  BASE  14.3766  32   17.4224  40   1.9   97    1.4   54    0     993.9    NA       0.0000   -SN      BR    6000  0    
2019/07/15  16:34:00  BASE  14.7882  32   17.3048  28   1.9   97    1.5   58    0     993.9    NA       0.0000   -SN      BR    8000  0    
2019/07/15  16:35:00  BASE  14.7529  31   16.7874  23   1.9   97    1.5   59    0     993.8    NA       0.0000   -SN      BR    9999  0    
2019/07/15  16:36:00  BASE  15.0763  32   17.9987  43   1.9   98    1.6   61    0     993.8    NA       0.0000   -SN      BR    9999  6890 
2019/07/15  16:37:00  BASE  15.2468  35   17.9987  43   1.9   98    1.6   65    0     993.8    NA       0.0000   -SN      BR    9999  7020 
2019/07/15  16:38:00  BASE  14.7353  34   17.9987  43   2.0   98    1.7   69    0     993.9    NA       0.0000   -SN      BR    9999  7050 
2019/07/15  16:39:00  BASE  14.6177  31   17.9987  43   2.0   98    1.7   73    0     993.9    NA       0.0000   -SN      BR    9999  6530 
2019/07/15  16:40:00  BASE  14.4001  31   17.9987  43   2.0   98    1.7   78    0     994.0    NA       0.0000   -SN      BR    9999  0    
2019/07/15  16:41:00  BASE  13.5416  30   17.9987  43   2.0   98    1.7   82    0     994.1    NA       0.0000   -SN      9999  0     0    
2019/07/15  16:42:00  BASE  13.5475  30   17.9987  43   2.0   98    1.7   85    0     994.0    NA       0.0000   -SN      9999  0     0    
2019/07/15  16:43:00  BASE  14.1826  32   17.9987  43   2.0   97    1.7   86    0     994.1    NA       0.0000   9999     14760 0     0    
2019/07/15  16:44:00  BASE  13.671   33   17.9987  43   2.0   97    1.6   86    0     994.1    NA       0.0000   9999     18180 0     0    
2019/07/15  16:45:00  BASE  12.7831  34   17.9987  43   2.0   97    1.6   84    0     994.1    NA       0.0000   9999     14010 0     0    
2019/07/15  16:46:00  BASE  13.3241  35   17.7282  27   2.0   97    1.6   84    0     994.1    NA       0.0000   9999     13750 0     0    
2019/07/15  16:47:00  BASE  14.1884  33   17.7282  27   2.0   97    1.5   82    0     994.1    NA       0.0000   9999     13750 0     0    
2019/07/15  16:48:00  BASE  14.4707  31   17.7282  27   2.0   96    1.5   80    0     994.0    NA       0.0000   9999     13550 0     0    
2019/07/15  16:49:00  BASE  14.4766  30   17.7282  27   2.0   96    1.5   79    0     994.0    NA       0.0000   9999     13120 0     0    
2019/07/15  16:50:00  BASE  13.9768  30   17.7282  31   2.0   96    1.5   78    0     994.0    NA       0.0000   9999     0     0     0    
2019/07/15  16:51:00  BASE  14.1296  32   17.7282  31   2.0   96    1.5   77    0     993.9    NA       0.0000   9999     12930 0     0    
2019/07/15  16:52:00  BASE  14.4413  33   17.7282  31   2.0   96    1.5   75    0     994.0    NA       0.0000   9999     0     0     0    
2019/07/15  16:53:00  BASE  14.0532  31   17.7282  31   2.0   96    1.5   73    0     994.0    NA       0.0000   9999     13030 0     0    
2019/07/15  16:54:00  BASE  13.1888  29   17.7282  31   2.0   96    1.4   73    0     994.0    NA       0.0000   9999     0     0     0    
2019/07/15  16:55:00  BASE  12.5303  29   17.7282  31   2.0   96    1.4   72    0     994.0    NA       0.0000   9999     12890 0     0    
2019/07/15  16:56:00  BASE  13.2006  29   17.7282  31   2.0   96    1.4   71    0     994.0    NA       0.0000   9999     0     0     0    
2019/07/15  16:57:00  BASE  12.3186  30   17.7282  31   2.0   96    1.4   69    0     994.0    NA       0.0000   9999     12830 0     0    
2019/07/15  16:58:00  BASE  12.5185  30   17.7282  31   2.0   96    1.4   67    0     993.9    NA       0.0000   9999     0     0     0    
2019/07/15  16:59:00  BASE  14.3413  31   17.7282  31   1.9   96    1.4   64    0     993.9    NA       0.0000   9999     0     0     0    
2019/07/15  17:00:00  BASE  13.9591  29   17.2108  27   1.9   96    1.4   62    0     993.9    NA       0.0000   9999     13550 22970 0    
2019/07/15  17:01:00  BASE  13.718   31   16.2464  33   1.9   96    1.3   60    0     993.8    NA       0.0000   9999     13550 0     0    
2019/07/15  17:02:00  BASE  13.7886  35   16.2464  33   1.9   96    1.3   58    0     993.9    NA       0.0000   9999     0     0     0    
2019/07/15  17:03:00  BASE  13.8768  35   16.364   31   1.9   96    1.3   56    0     993.8    NA       0.0000   9999     12530 0     0    
2019/07/15  17:04:00  BASE  14.3825  33   17.5753  31   1.9   96    1.3   55    0     993.8    NA       0.0000   9999     12430 0     0    
2019/07/15  17:05:00  BASE  13.524   35   17.5753  31   1.9   95    1.3   55    0     993.9    NA       0.0000   9999     12570 0     0    
2019/07/15  17:06:00  BASE  13.865   36   18.422   41   1.9   95    1.2   54    0     993.7    NA       0.0000   -SN      9999  0     0    
2019/07/15  17:07:00  BASE  15.041   34   18.422   41   1.9   95    1.2   52    0     993.7    NA       0.0000   -SN      9999  0     0    
2019/07/15  17:08:00  BASE  13.7945  35   18.422   41   1.9   95    1.2   51    0     993.8    NA       0.0000   -SN      9999  0     0    
2019/07/15  17:09:00  BASE  14.0414  36   18.422   41   1.9   95    1.2   49    0     993.7    NA       0.0000   -SN      9999  12270 0    
2019/07/15  17:10:00  BASE  14.7235  34   18.422   41   2.0   95    1.2   47    0     993.7    NA       0.0000   -SN      9999  11610 0    
2019/07/15  17:11:00  BASE  13.6357  34   18.422   41   2.0   95    1.3   45    0     993.8    NA       0.0000   -SN      9999  0     0    
2019/07/15  17:12:00  BASE  12.889   34   18.422   41   2.0   95    1.3   44    0     993.7    NA       0.0000   -SN      9999  0     0    
2019/07/15  17:13:00  BASE  12.4303  33   18.422   41   2.0   95    1.2   44    0     993.5    NA       0.0000   -SN      9999  0     0    
2019/07/15  17:14:00  BASE  12.0716  35   18.422   41   2.0   95    1.2   45    0     993.8    NA       0.0000   -SN      9999  10890 0    
2019/07/15  17:15:00  BASE  12.8537  36   18.422   41   2.0   95    1.2   47    0     993.7    NA       0.0000   -SN      9999  10890 0    
2019/07/15  17:16:00  BASE  13.8121  37   17.7282  48   1.9   95    1.2   49    0     993.7    NA       0.0000   -SN      9999  10960 0    
2019/07/15  17:17:00  BASE  13.7474  39   17.7282  48   1.9   95    1.2   51    0     993.7    NA       0.0000   -SN      9999  11060 0    
2019/07/15  17:18:00  BASE  13.0066  35   17.7282  48   2.0   95    1.2   54    0     993.7    NA       0.0000   -SN      9999  10400 0    
2019/07/15  17:19:00  BASE  12.6655  34   16.3934  32   2.0   95    1.2   56    0     993.7    NA       0.0000   -SN      9999  10470 0    
2019/07/15  17:20:00  BASE  12.4303  37   16.3934  32   2.0   94    1.2   60    0     993.7    NA       0.0000   -SN      9999  9680  0    
2019/07/15  17:21:00  BASE  12.4832  36   16.3934  32   2.0   94    1.1   62    0     993.8    NA       0.0000   -SN      9999  0     0    
2019/07/15  17:22:00  BASE  12.4068  37   16.3934  32   2.0   94    1.1   64    0     993.8    NA       0.0000   -SN      9999  0     0    
2019/07/15  17:23:00  BASE  11.7659  36   16.3934  32   2.0   94    1.1   66    0     993.8    NA       0.0000   -SN      9999  0     0    
2019/07/15  17:24:00  BASE  12.642   33   16.6992  33   1.9   94    1.0   67    0     993.6    NA       0.0000   -SN      9999  0     0    
2019/07/15  17:25:00  BASE  14.0591  35   16.6992  33   1.9   93    1.0   67    0     993.6    NA       0.0000   -SN      9999  10830 0    
2019/07/15  17:26:00  BASE  14.4413  32   16.6992  33   1.9   93    0.9   66    0     993.6    NA       0.0000   -SN      9999  11160 0    
2019/07/15  17:27:00  BASE  14.5354  31   16.6992  33   1.9   93    0.9   66    0     993.6    NA       0.0000   -SN      9999  12830 0    
2019/07/15  17:28:00  BASE  14.5648  34   16.9403  36   1.9   92    0.8   66    0     993.6    NA       0.0000   -SN      9999  12800 0    
2019/07/15  17:29:00  BASE  14.4883  34   16.9403  36   1.9   92    0.8   66    0     993.6    NA       0.0000   -SN      9999  0     0    
2019/07/15  17:30:00  BASE  14.3766  33   16.9403  36   1.9   92    0.7   66    0     993.5    NA       0.0000   -SN      9999  12660 0    
2019/07/15  17:31:00  BASE  14.2296  33   16.9403  36   1.9   92    0.7   67    0     993.6    NA       0.0000   -SN      9999  12600 0    
2019/07/15  17:32:00  BASE  13.6945  35   16.9403  36   1.9   91    0.7   67    0     993.6    NA       0.0000   -SN      9999  0     0    
2019/07/15  17:33:00  BASE  13.3123  33   16.9403  36   2.0   91    0.6   69    0     993.6    NA       0.0000   -SN      9999  0     0    
2019/07/15  17:34:00  BASE  13.5828  34   16.9403  36   2.0   91    0.6   71    0     993.6    NA       0.0000   -SN      9999  0     0    
2019/07/15  17:35:00  BASE  13.5828  35   16.9403  36   1.9   91    0.6   73    0     993.7    NA       0.0000   -SN      9999  12170 0    
2019/07/15  17:36:00  BASE  13.2888  33   16.9403  36   1.9   91    0.6   74    0     993.7    NA       0.0000   -SN      9999  0     0    
2019/07/15  17:37:00  BASE  12.8654  31   16.9403  36   1.9   91    0.5   72    0     993.7    NA       0.0000   -SN      9999  12110 0    
2019/07/15  17:38:00  BASE  12.1775  31   16.3346  35   1.9   91    0.6   70    0     993.8    NA       0.0000   -SN      9999  11940 0    
2019/07/15  17:39:00  BASE  11.0662  34   16.3346  35   1.9   91    0.6   66    0     993.9    NA       0.0000   -SN      9999  11420 0    
2019/07/15  17:40:00  BASE  10.4076  36   16.3346  35   1.9   91    0.6   63    0     993.9    NA       0.0000   9999     11550 0     0    
2019/07/15  17:41:00  BASE  10.5605  34   15.9995  35   1.9   91    0.6   61    0     993.9    NA       0.0000   9999     11880 0     0    
2019/07/15  17:42:00  BASE  10.5605  32   15.9995  35   1.9   90    0.5   58    0     994.0    NA       0.0000   -SN      9999  11910 0    
2019/07/15  17:43:00  BASE  10.39    33   15.9995  35   2.0   90    0.5   56    0     994.0    NA       0.0000   -SN      9999  11750 0    
2019/07/15  17:44:00  BASE  10.5311  36   14.9411  33   2.0   90    0.5   54    0     993.9    NA       0.0000   -SN      9999  11750 0    
2019/07/15  17:45:00  BASE  10.684   34   14.9411  33   2.0   90    0.5   52    0     993.9    NA       0.0000   -SN      9999  11650 0    
2019/07/15  17:46:00  BASE  10.8956  32   14.9411  33   1.9   90    0.5   50    0     994.0    NA       0.0000   -SN      9999  11710 0    
2019/07/15  17:47:00  BASE  11.2896  34   14.9411  33   1.9   90    0.5   50    0     993.9    NA       0.0000   -SN      9999  11710 0    
2019/07/15  17:48:00  BASE  10.7663  34   13.9474  26   1.9   91    0.5   51    0     994.0    NA       0.0000   -SN      9999  11610 0    
2019/07/15  17:49:00  BASE  9.69024  32   13.9474  26   1.9   91    0.6   52    0     994.0    NA       0.0000   -SN      9999  11520 0    
2019/07/15  17:50:00  BASE  8.89056  35   13.9474  26   1.9   91    0.6   53    0     994.1    NA       0.0000   -SN      9999  11390 0    
2019/07/15  17:51:00  BASE  9.06108  36   13.9474  26   1.9   91    0.6   53    0     994.0    NA       0.0000   -SN      9999  11320 0    
2019/07/15  17:52:00  BASE  9.6138   33   13.9474  26   1.9   91    0.6   53    0     994.0    NA       0.0000   9999     11250 0     0    
2019/07/15  17:53:00  BASE  9.07872  37   13.9474  26   1.9   91    0.6   52    0     994.0    NA       0.0000   9999     11120 0     0    
2019/07/15  17:54:00  BASE  8.9964   40   13.9474  26   1.9   91    0.5   50    0     994.0    NA       0.0000   9999     11120 0     0    
2019/07/15  17:55:00  BASE  9.59028  38   13.9474  26   1.9   91    0.5   48    0     994.0    NA       0.0000   9999     11120 0     0    
2019/07/15  17:56:00  BASE  9.91956  38   13.9474  26   1.9   90    0.5   47    0     993.9    NA       0.0000   9999     11120 0     0    
2019/07/15  17:57:00  BASE  10.4723  38   12.9184  39   1.9   90    0.5   46    0     993.8    NA       0.0000   9999     11090 0     0    
2019/07/15  17:58:00  BASE  10.584   40   12.9184  39   1.9   90    0.5   44    0     993.8    NA       0.0000   9999     11090 0     0    
2019/07/15  17:59:00  BASE  10.831   43   13.3711  47   1.9   90    0.5   42    0     993.8    NA       0.0000   9999     11090 0     0    
2019/07/15  18:00:00  BASE  11.2602  48   13.3711  47   2.0   90    0.5   39    0     993.7    NA       0.0000   9999     11090 0     0    
2019/07/15  18:01:00  BASE  11.1426  48   13.3711  47   2.0   90    0.5   36    0     993.7    NA       0.0000   9999     10930 0     0    
2019/07/15  18:02:00  BASE  10.2018  44   13.3711  47   2.0   90    0.5   32    0     993.7    NA       0.0000   9999     9840  10860 0    
2019/07/15  18:03:00  BASE  10.29    42   13.7651  32   2.0   90    0.5   29    0     993.7    NA       0.0000   9999     10790 0     0    
2019/07/15  18:04:00  BASE  10.5193  46   13.7651  32   2.1   90    0.6   27    0     993.7    NA       0.0000   9999     10760 0     0    
2019/07/15  18:05:00  BASE  9.88428  50   13.7651  32   2.1   89    0.6   25    0     993.7    NA       0.0000   9999     10630 0     0    
2019/07/15  18:06:00  BASE  9.97248  48   13.7651  32   2.1   89    0.6   22    0     993.7    NA       0.0000   9999     10560 0     0    
2019/07/15  18:07:00  BASE  9.71964  48   13.7651  32   2.2   89    0.6   20    0     993.7    NA       0.0000   9999     10530 0     0    
2019/07/15  18:08:00  BASE  9.89016  46   13.7651  32   2.2   89    0.6   18    0     993.7    NA       0.0000   9999     10470 0     0    
2019/07/15  18:09:00  BASE  9.78432  49   13.7651  32   2.2   89    0.6   17    0     993.6    NA       0.0000   9999     10400 0     0    
2019/07/15  18:10:00  BASE  8.60832  50   13.7651  32   2.1   89    0.5   16    0     993.7    NA       0.0000   9999     10400 0     0    
2019/07/15  18:11:00  BASE  7.6734   52   13.7651  32   2.1   89    0.5   15    0     993.7    NA       0.0000   9999     10300 0     0    
2019/07/15  18:12:00  BASE  8.2908   56   13.7651  32   2.1   89    0.5   15    0     993.6    NA       0.0000   9999     10300 0     0    
2019/07/15  18:13:00  BASE  9.77256  55   13.4299  39   2.1   89    0.6   14    0     993.6    NA       0.0000   9999     10300 0     0    
2019/07/15  18:14:00  BASE  10.2841  61   13.4299  39   2.2   89    0.6   14    0     993.5    NA       0.0000   9999     10240 0     0    
2019/07/15  18:15:00  BASE  10.4782  62   13.4299  39   2.2   89    0.6   13    0     993.5    NA       0.0000   9999     10110 0     0    
2019/07/15  18:16:00  BASE  10.731   60   13.4299  39   2.2   89    0.6   13    0     993.5    NA       0.0000   9999     10040 0     0    
2019/07/15  18:17:00  BASE  10.9368  62   13.4299  39   2.3   89    0.7   12    0     993.5    NA       0.0000   9999     10140 0     0    
2019/07/15  18:18:00  BASE  10.8486  62   12.7067  57   2.3   89    0.7   12    0     993.5    NA       0.0000   9999     10070 0     0    
2019/07/15  18:19:00  BASE  10.5193  60   12.7067  57   2.3   89    0.7   12    0     993.4    NA       0.0000   9999     9810  0     0    
2019/07/15  18:20:00  BASE  10.1606  58   12.7067  57   2.3   89    0.7   12    0     993.4    NA       0.0000   9999     9420  0     0    
2019/07/15  18:21:00  BASE  10.5252  58   13.2182  41   2.4   89    0.7   12    0     993.3    NA       0.0000   9999     8960  0     0    
2019/07/15  18:22:00  BASE  11.125   55   13.2182  41   2.4   89    0.8   12    0     993.2    NA       0.0000   9999     9780  0     0    
2019/07/15  18:23:00  BASE  11.0838  56   13.2182  41   2.4   89    0.8   13    0     993.1    NA       0.0000   9999     9510  0     0    
2019/07/15  18:24:00  BASE  11.5542  57   15.4879  52   2.5   89    0.8   13    0     993.2    NA       0.0000   9999     9680  0     0    
2019/07/15  18:25:00  BASE  11.9717  56   15.4879  52   2.5   88    0.8   12    0     993.1    NA       0.0000   9999     9680  0     0    
2019/07/15  18:26:00  BASE  11.5954  58   15.4879  52   2.6   88    0.8   12    0     993.1    NA       0.0000   9999     9840  0     0    
2019/07/15  18:27:00  BASE  11.5777  60   15.4879  52   2.6   88    0.8   11    0     993.1    NA       0.0000   9999     9290  10010 0    
2019/07/15  18:28:00  BASE  11.6953  63   15.4879  52   2.7   87    0.8   10    0     993.1    NA       0.0000   9999     10010 0     0    
2019/07/15  18:29:00  BASE  10.7016  65   15.4879  52   2.8   87    0.8   10    0     993.2    NA       0.0000   9999     9970  0     0    
2019/07/15  18:30:00  BASE  9.1434   70   15.4879  52   2.8   86    0.8   9     0     993.3    NA       0.0000   9999     9780  0     0    
2019/07/15  18:31:00  BASE  8.4378   67   15.4879  52   2.9   86    0.8   9     0     993.2    NA       0.0000   9999     9610  0     0    
2019/07/15  18:32:00  BASE  8.48484  67   15.4879  52   3.0   85    0.7   9     0     993.2    NA       0.0000   9999     9420  0     0    
2019/07/15  18:33:00  BASE  8.39664  69   15.4879  52   3.0   85    0.7   9     0     993.3    NA       0.0000   9999     9150  0     0    
2019/07/15  18:34:00  BASE  8.26728  65   14.2472  55   3.0   84    0.6   9     0     993.3    NA       0.0000   9999     8990  0     0    
2019/07/15  18:35:00  BASE  7.87332  63   14.2472  55   3.0   84    0.6   9     0     993.3    NA       0.0000   9999     8960  0     0    
2019/07/15  18:36:00  BASE  7.24416  68   13.4005  60   3.0   84    0.5   9     0     993.3    NA       0.0000   9999     9150  0     0    
2019/07/15  18:37:00  BASE  7.66752  87   13.2476  55   2.9   84    0.5   9     0     993.3    NA       0.0000   9999     8690  0     0    
2019/07/15  18:38:00  BASE  7.13832  99   11.1602  62   2.9   84    0.4   9     0     993.4    NA       0.0000   9999     8730  0     0    
2019/07/15  18:39:00  BASE  5.95644  83   10.6487  63   2.8   84    0.4   9     0     993.4    NA       0.0000   9999     6300  0     0    
2019/07/15  18:40:00  BASE  6.55032  68   10.6487  63   2.7   84    0.3   9     0     993.3    NA       0.0000   9999     6300  0     0    
2019/07/15  18:41:00  BASE  7.19124  66   10.6487  63   2.7   84    0.4   9     0     993.4    NA       0.0000   9999     6270  0     0    
2019/07/15  18:42:00  BASE  6.79728  62   10.4958  59   2.7   84    0.4   9     0     993.3    NA       0.0000   9999     6270  0     0    
2019/07/15  18:43:00  BASE  6.53856  68   9.77256  89   2.8   84    0.4   8     0     993.3    NA       0.0000   9999     6230  0     0    
2019/07/15  18:44:00  BASE  6.82668  79   9.77256  89   2.8   84    0.4   8     0     993.3    NA       0.0000   9999     6200  0     0    
2019/07/15  18:45:00  BASE  6.468    83   9.77256  89   2.9   84    0.4   7     0     993.4    NA       0.0000   9999     6140  0     0    
2019/07/15  18:46:00  BASE  5.01564  94   9.77256  89   2.9   83    0.3   6     0     993.4    NA       0.0000   9999     6270  0     0    
2019/07/15  18:47:00  BASE  3.19872  102  8.83176  56   2.7   83    0.1   6     0     993.4    NA       0.0000   9999     6300  0     0    
2019/07/15  18:48:00  BASE  2.74008  82   8.83176  56   2.6   83    0.0   5     0     993.4    NA       0.0000   9999     6400  0     0    
2019/07/15  18:49:00  BASE  3.62796  66   8.83176  56   2.6   83    0.1   5     0     993.4    NA       0.0000   9999     6560  0     0    
2019/07/15  18:50:00  BASE  4.1454   73   8.83176  56   2.6   84    0.1   5     0     993.3    NA       0.0000   9999     6630  0     0    
2019/07/15  18:51:00  BASE  4.34532  78   8.74356  79   2.5   84    0.1   5     0     993.4    NA       0.0000   9999     6660  0     0    
2019/07/15  18:52:00  BASE  4.36296  65   8.74356  79   2.6   84    0.3   4     0     993.3    NA       0.0000   9999     6690  0     0    
2019/07/15  18:53:00  BASE  3.22224  74   8.74356  79   2.8   84    0.4   4     0     993.3    NA       0.0000   9999     6760  0     0    
2019/07/15  18:54:00  BASE  2.31084  73   8.74356  79   2.8   84    0.3   4     0     993.3    NA       0.0000   9999     6790  0     0    
2019/07/15  18:55:00  BASE  3.16932  35   7.2618   39   2.9   83    0.3   4     0     993.3    NA       0.0000   9999     6790  0     0    
2019/07/15  18:56:00  BASE  4.04544  41   7.2618   39   3.0   83    0.3   4     0     993.2    NA       0.0000   9999     6820  0     0    
2019/07/15  18:57:00  BASE  2.3226   15   7.2618   39   3.0   82    0.2   4     0     993.2    NA       0.0000   9999     6920  0     0    
2019/07/15  18:58:00  BASE  1.13484  347  7.2618   39   3.0   81    0.1   3     0     993.2    NA       0.0000   9999     7020  0     0    
2019/07/15  18:59:00  BASE  1.29948  213  7.2618   39   2.9   81    -0.1  3     0     993.2    NA       0.0000   9999     7050  0     0    
2019/07/15  19:00:00  BASE  0.89376  177  7.2618   39   2.8   81    -0.1  3     0     993.2    NA       0.0000   9999     7020  0     0    
2019/07/15  19:01:00  BASE  1.82868  56   7.2618   39   2.8   81    -0.1  3     0     993.3    NA       0.0000   9999     6890  0     0    
2019/07/15  19:02:00  BASE  3.28104  58   7.2618   39   2.8   81    -0.1  3     0     993.3    NA       0.0000   9999     6890  0     0    
2019/07/15  19:03:00  BASE  3.85728  107  7.2618   39   2.8   81    -0.1  3     0     993.3    NA       0.0000   9999     7020  0     0    
2019/07/15  19:04:00  BASE  3.05172  123  7.2618   39   2.7   82    -0.1  3     0     993.3    NA       0.0000   9999     6990  0     0    
2019/07/15  19:05:00  BASE  2.646    85   6.2622   45   2.6   82    -0.2  3     0     993.2    NA       0.0000   9999     6860  0     0    
2019/07/15  19:06:00  BASE  4.1748   62   6.44448  52   2.6   82    -0.2  3     0     993.2    NA       0.0000   9999     6790  0     0    
2019/07/15  19:07:00  BASE  4.31004  89   6.44448  52   2.6   82    -0.2  3     0     993.3    NA       0.0000   9999     6790  0     0    
2019/07/15  19:08:00  BASE  2.64012  123  6.44448  52   2.5   82    -0.3  2     0     993.3    NA       0.0000   9999     6890  0     0    
2019/07/15  19:09:00  BASE  1.59936  152  6.44448  52   2.5   82    -0.3  2     0     993.3    NA       0.0000   9999     6920  0     0    
2019/07/15  19:10:00  BASE  1.82868  212  6.44448  52   2.4   82    -0.3  2     0     993.3    NA       0.0000   9999     6990  0     0    
2019/07/15  19:11:00  BASE  2.40492  40   6.44448  52   2.4   83    -0.2  2     0     993.2    NA       0.0000   9999     6760  0     0    
2019/07/15  19:12:00  BASE  2.74008  44   6.44448  52   2.4   83    -0.2  2     0     993.2    NA       0.0000   9999     6690  0     0    
2019/07/15  19:13:00  BASE  2.26968  55   6.44448  52   2.6   84    0.1   2     0     993.2    NA       0.0000   9999     6730  0     0    
2019/07/15  19:14:00  BASE  1.24656  111  6.44448  52   2.8   84    0.3   2     0     993.2    NA       0.0000   9999     6630  0     0    
2019/07/15  19:15:00  BASE  0.9996   168  6.44448  52   2.9   83    0.3   2     0     993.2    NA       0.0000   9999     6730  0     0    
2019/07/15  19:16:00  BASE  1.10544  230  4.83924  92   2.9   82    0.2   2     0     993.2    NA       0.0000   9999     6630  0     0    
2019/07/15  19:17:00  BASE  1.39356  25   4.1454   28   3.0   82    0.2   2     0     993.2    NA       0.0000   9999     6530  7190  0    
2019/07/15  19:18:00  BASE  1.72872  135  4.1454   28   2.9   82    0.1   2     0     993.2    NA       0.0000   9999     6140  0     0    
2019/07/15  19:19:00  BASE  1.323    237  4.1454   28   2.8   82    -0.0  1     0     993.2    NA       0.0000   9999     6070  6560  0    
2019/07/15  19:20:00  BASE  1.62876  254  4.1454   28   2.7   82    -0.1  1     0     993.2    NA       0.0000   9999     5940  0     0    
2019/07/15  19:21:00  BASE  2.29908  240  3.75144  46   2.6   82    -0.2  1     0     993.2    NA       0.0000   9999     6100  0     0    
2019/07/15  19:22:00  BASE  2.66952  312  4.1454   342  2.5   82    -0.2  1     0     993.2    NA       0.0000   9999     6370  0     0    
2019/07/15  19:23:00  BASE  3.42216  359  4.41588  20   2.5   83    -0.1  1     0     993.2    NA       0.0000   9999     6330  0     0    
2019/07/15  19:24:00  BASE  3.10464  12   4.65696  34   2.6   84    0.2   1     0     993.2    NA       0.0000   9999     6430  0     0    
2019/07/15  19:25:00  BASE  2.74596  29   4.65696  34   2.8   84    0.4   1     0     993.2    NA       0.0000   9999     6530  0     0    
2019/07/15  19:26:00  BASE  2.36964  59   4.65696  34   3.0   84    0.6   1     0     993.2    NA       0.0000   9999     6530  0     0    
2019/07/15  19:27:00  BASE  1.64052  150  4.65696  34   3.1   84    0.7   1     0     993.2    NA       0.0000   9999     6630  0     0    
2019/07/15  19:28:00  BASE  1.8228   205  4.65696  34   3.1   84    0.7   1     0     993.3    NA       0.0000   9999     6560  7940  0    
2019/07/15  19:29:00  BASE  1.9404   190  4.65696  34   3.0   84    0.6   1     0     993.2    NA       0.0000   9999     6460  0     0    
2019/07/15  19:30:00  BASE  2.66952  160  4.65696  34   2.8   84    0.3   1     0     993.1    NA       0.0000   9999     6560  0     0    
2019/07/15  19:31:00  BASE  4.06896  166  6.07992  178  2.5   84    0.0   1     0     992.9    NA       0.0000   9999     6560  0     0    
2019/07/15  19:32:00  BASE  5.15088  177  6.2034   179  2.2   84    -0.3  1     0     992.9    NA       0.0000   9999     6690  7550  0    
2019/07/15  19:33:00  BASE  6.48564  174  8.16732  170  1.8   84    -0.6  1     0     992.8    NA       0.0000   9999     7450  0     0    
2019/07/15  19:34:00  BASE  7.59696  168  8.89056  159  1.5   85    -0.8  0     0     992.7    NA       0.0000   9999     7380  0     0    
2019/07/15  19:35:00  BASE  8.06148  162  8.95524  145  1.3   86    -0.8  0     0     992.8    NA       0.0000   9999     7350  0     0    
2019/07/15  19:36:00  BASE  8.06736  165  9.13752  158  1.3   87    -0.7  0     0     992.7    NA       0.0000   9999     7450  0     0    
2019/07/15  19:37:00  BASE  8.42604  164  9.4668   158  1.2   88    -0.6  0     0     992.8    NA       0.0000   9999     7550  0     0    
2019/07/15  19:38:00  BASE  8.6142   157  9.4668   158  1.2   89    -0.5  0     0     992.9    NA       0.0000   9999     7550  0     0    
2019/07/15  19:39:00  BASE  7.13244  159  9.4668   158  1.1   89    -0.4  0     0     992.9    NA       0.0000   9999     7550  0     0    
2019/07/15  19:40:00  BASE  5.86236  164  9.4668   158  1.1   90    -0.4  0     0     992.9    NA       0.0000   9999     7450  0     0    
2019/07/15  19:41:00  BASE  6.56796  166  9.4668   158  1.1   90    -0.3  0     0     992.9    NA       0.0000   9999     7420  0     0    
2019/07/15  19:42:00  BASE  7.3206   168  9.4668   158  1.1   91    -0.2  0     0     992.9    NA       0.0000   9999     7380  0     0    
2019/07/15  19:43:00  BASE  7.10892  169  9.4668   158  1.2   91    -0.1  0     0     993.0    NA       0.0000   9999     7280  0     0    
2019/07/15  19:44:00  BASE  7.16184  169  9.4668   158  1.2   91    -0.1  0     0     992.9    NA       0.0000   9999     7320  0     0    
2019/07/15  19:45:00  BASE  6.86196  171  9.4668   158  1.3   91    -0.1  0     0     992.9    NA       0.0000   9999     7150  0     0    
2019/07/15  19:46:00  BASE  6.32688  169  9.4668   158  1.4   90    -0.0  0     0     993.0    NA       0.0000   9999     7090  0     0    
2019/07/15  19:47:00  BASE  6.19164  151  9.19632  159  1.4   90    -0.1  0     0     993.1    NA       0.0000   9999     7220  0     0    
2019/07/15  19:48:00  BASE  4.75104  145  8.2908   162  1.5   89    -0.1  0     0     992.8    NA       0.0000   9999     6960  0     0    
2019/07/15  19:49:00  BASE  4.6452   154  8.2908   162  1.5   89    -0.2  0     0     991.7    NA       0.0000   9999     6860  0     0    
2019/07/15  19:50:00  BASE  6.97956  150  9.56088  155  1.5   88    -0.3  0     0     992.0    NA       0.0000   9999     6860  0     0    
2019/07/15  19:51:00  BASE  8.59656  147  9.95484  146  1.5   88    -0.4  0     0     992.8    NA       0.0000   9999     6790  0     0    
2019/07/15  19:52:00  BASE  8.16732  144  9.95484  146  1.5   87    -0.4  0     0     992.9    NA       0.0000   9999     6790  0     0    
2019/07/15  19:53:00  BASE  7.29708  140  9.95484  146  1.5   87    -0.4  0     0     992.9    NA       0.0000   9999     6820  0     0    
2019/07/15  19:54:00  BASE  7.67928  143  10.0724  147  1.5   87    -0.4  0     0     992.9    NA       0.0000   9999     6890  0     0    
2019/07/15  19:55:00  BASE  7.97916  145  10.0724  147  1.5   87    -0.4  0     0     992.9    NA       0.0000   9999     6920  0     0    
2019/07/15  19:56:00  BASE  7.94388  146  10.0724  147  1.5   87    -0.4  0     0     992.8    NA       0.0000   9999     6920  0     0    
2019/07/15  19:57:00  BASE  7.2912   145  10.0724  147  1.5   87    -0.4  0     0     992.9    NA       0.0000   9999     6990  0     0    
2019/07/15  19:58:00  BASE  6.07992  148  10.0724  147  1.4   87    -0.5  0     0     993.0    NA       0.0000   9999     6990  0     0    
2019/07/15  19:59:00  BASE  5.10972  155  10.0724  147  1.4   88    -0.5  0     0     993.1    NA       0.0000   9999     7120  0     0    
2019/07/15  20:00:00  BASE  4.7922   153  10.0724  147  1.3   88    -0.5  0     0     993.1    NA       0.0000   9999     0     0     0    
2019/07/15  20:01:00  BASE  4.13952  146  10.0724  147  1.3   88    -0.4  0     0     993.2    NA       0.0000   9999     0     0     0    
2019/07/15  20:02:00  BASE  3.00468  139  10.0724  147  1.3   89    -0.3  0     0     993.2    NA       0.0000   9999     0     0     0    
2019/07/15  20:03:00  BASE  2.75184  148  10.0724  147  1.3   89    -0.3  0     0     993.2    NA       0.0000   UP       9999  0     0    
2019/07/15  20:04:00  BASE  2.49312  152  9.01404  144  1.4   89    -0.3  0     0     993.2    NA       0.0000   UP       9999  0     0    
2019/07/15  20:05:00  BASE  1.88748  151  9.01404  144  1.4   89    -0.2  0     0     993.1    NA       0.0000   UP       9999  0     0    
2019/07/15  20:06:00  BASE  1.92864  170  7.47348  142  1.4   89    -0.2  0     0     993.0    NA       0.0000   UP       9999  430   0    
2019/07/15  20:07:00  BASE  2.06388  167  6.13872  149  1.5   89    -0.1  0     0     992.9    NA       0.0000   UP       7000  330   0    
2019/07/15  20:08:00  BASE  1.84632  149  5.2038   148  1.5   89    -0.0  0     0     992.9    NA       0.0000   -SN      4600  330   0    
2019/07/15  20:09:00  BASE  1.60524  125  5.2038   148  1.7   90    0.2   0     0     992.9    NA       0.0000   -SN      BR    3700  0    
2019/07/15  20:10:00  BASE  1.64052  70   4.2336   141  1.8   90    0.4   0     0     992.9    NA       0.0000   -SN      BR    4300  0    
2019/07/15  20:11:00  BASE  2.12268  15   3.51036  151  1.9   90    0.5   0     0     992.9    NA       0.0000   -SN      BR    9000  0    
2019/07/15  20:12:00  BASE  2.56368  344  3.69264  327  2.1   91    0.7   0     0     992.9    NA       0.0000   -SN      BR    9999  0    
2019/07/15  20:13:00  BASE  3.86904  343  5.3214   1    2.1   92    0.9   0     0     992.8    NA       0.0000   -SN      BR    9999  0    
2019/07/15  20:14:00  BASE  6.03288  8    9.13752  15   2.1   92    1.0   0     0     992.7    NA       0.0000   -SN      BR    9999  0    
2019/07/15  20:15:00  BASE  6.16812  25   9.13752  15   2.1   93    1.1   0     0     992.7    NA       0.0000   -SN      BR    9999  0    
2019/07/15  20:16:00  BASE  5.16852  22   9.13752  15   2.2   94    1.3   0     0     992.7    NA       0.0000   -SN      BR    9999  0    
2019/07/15  20:17:00  BASE  4.8216   24   9.13752  15   2.3   94    1.5   0     0     992.7    NA       0.0000   -SN      BR    9999  0    
2019/07/15  20:18:00  BASE  4.11012  30   9.13752  15   2.4   95    1.6   0     0     992.7    NA       0.0000   -SN      BR    9999  0    
2019/07/15  20:19:00  BASE  2.793    32   9.13752  15   2.5   95    1.7   0     0     992.7    NA       0.0000   -SN      BR    9999  0    
2019/07/15  20:20:00  BASE  1.4112   73   9.13752  15   2.5   94    1.7   0     0     992.7    NA       0.0000   -SN      9999  0     0    
2019/07/15  20:21:00  BASE  1.1172   127  9.13752  15   2.6   94    1.7   0     0     992.7    NA       0.0000   -SN      9999  0     0    
2019/07/15  20:22:00  BASE  1.7052   151  9.13752  15   2.6   93    1.6   0     0     992.6    NA       0.0000   9999     6200  0     0    
2019/07/15  20:23:00  BASE  1.8816   150  9.13752  15   2.5   93    1.5   0     0     992.6    NA       0.0000   9999     5840  0     0    
2019/07/15  20:24:00  BASE  1.58172  116  6.321    60   2.5   93    1.4   0     0     992.6    NA       0.0000   9999     5940  0     0    
2019/07/15  20:25:00  BASE  1.44648  100  6.2622   28   2.5   93    1.5   0     0     992.6    NA       0.0000   9999     6070  0     0    
2019/07/15  20:26:00  BASE  1.42884  118  6.13872  22   2.6   92    1.5   0     0     992.6    NA       0.0000   9999     5870  0     0    
2019/07/15  20:27:00  BASE  2.19324  138  4.41588  28   2.6   92    1.4   0     0     992.5    NA       0.0000   9999     6040  0     0    
2019/07/15  20:28:00  BASE  3.4986   124  4.56876  104  2.7   91    1.4   0     0     992.5    NA       0.0000   9999     5770  0     0    
2019/07/15  20:29:00  BASE  4.73928  98   6.44448  69   2.7   90    1.2   0     0     992.6    NA       0.0000   9999     5910  0     0    
2019/07/15  20:30:00  BASE  3.92784  79   6.44448  69   2.6   89    1.1   0     0     992.6    NA       0.0000   -SN      9999  460   0    
2019/07/15  20:31:00  BASE  3.18108  67   6.44448  69   2.6   89    0.9   0     0     992.6    NA       0.0000   -SN      8000  330   0    
2019/07/15  20:32:00  BASE  4.263    40   6.44448  69   2.5   89    0.8   0     0     992.5    NA       0.0000   -SN      5000  330   0    
2019/07/15  20:33:00  BASE  5.42136  24   8.86116  28   2.4   89    0.7   0     0     992.5    NA       0.0000   -SN      6000  330   0    
2019/07/15  20:34:00  BASE  6.69144  27   8.86116  28   2.3   89    0.7   0     0     992.4    NA       0.0000   -SN      BR    5000  390  
2019/07/15  20:35:00  BASE  5.89176  37   8.86116  28   2.3   89    0.7   0     0     992.5    NA       0.0000   -SN      BR    6000  0    
2019/07/15  20:36:00  BASE  5.733    43   8.86116  28   2.2   90    0.7   0     0     992.4    NA       0.0000   -SN      BR    9000  660  
2019/07/15  20:37:00  BASE  8.232    41   13.1006  54   2.1   91    0.8   0     0     992.2    NA       0.0000   -SN      BR    9999  620  
2019/07/15  20:38:00  BASE  10.8721  37   15.7878  50   2.1   93    1.0   0     0     992.0    NA       0.0000   -SN      BR    SQ    9999 
2019/07/15  20:39:00  BASE  11.7188  39   15.7878  50   2.0   94    1.2   0     0     992.0    NA       0.0000   -SN      BR    SQ    9000 
2019/07/15  20:40:00  BASE  11.419   45   15.7878  50   2.0   95    1.3   0     0     992.0    NA       0.0000   -SN      BR    9999  560  
2019/07/15  20:41:00  BASE  11.8952  48   15.7878  50   2.1   96    1.5   0     0     991.7    NA       0.0000   -SN      BR    9999  520  
2019/07/15  20:42:00  BASE  12.8654  48   15.7878  50   2.1   96    1.6   0     0     991.7    NA       0.0000   -SN      BR    9999  7380 
2019/07/15  20:43:00  BASE  13.3476  47   15.7878  50   2.1   97    1.6   0     0     991.7    NA       0.0000   -SN      BR    9999  7480 
2019/07/15  20:44:00  BASE  13.1242  50   15.7878  50   2.1   97    1.7   0     0     991.7    NA       0.0000   -SN      9999  6500  0    
2019/07/15  20:45:00  BASE  13.5946  51   16.2112  54   2.1   97    1.7   0     0     991.6    NA       0.0000   -SN      9999  6660  0    
2019/07/15  20:46:00  BASE  13.9356  51   16.2112  54   2.1   97    1.7   0     0     991.6    NA       0.0000   -SN      9999  7220  0    
2019/07/15  20:47:00  BASE  14.0944  49   16.2112  54   2.2   97    1.7   0     0     991.5    NA       0.0000   -SN      9999  8010  0    
2019/07/15  20:48:00  BASE  14.359   47   16.6992  48   2.2   97    1.7   0     0     991.6    NA       0.0000   -SN      9999  8960  0    
2019/07/15  20:49:00  BASE  14.0708  47   16.6992  48   2.2   96    1.7   0     0     991.6    NA       0.0000   -SN      9999  9090  0    
2019/07/15  20:50:00  BASE  14.4236  48   16.6992  48   2.2   96    1.6   0     0     991.5    NA       0.0000   -SN      9999  9450  0    
2019/07/15  20:51:00  BASE  13.9826  47   16.6992  48   2.3   95    1.6   0     0     991.5    NA       0.0000   -SN      9999  9940  0    
2019/07/15  20:52:00  BASE  13.2476  48   16.6992  48   2.3   95    1.5   0     0     991.5    NA       0.0000   -SN      9999  9740  0    
2019/07/15  20:53:00  BASE  12.5597  47   16.6992  48   2.3   94    1.4   0     0     991.6    NA       0.0000   -SN      9999  9510  0    
2019/07/15  20:54:00  BASE  11.4013  45   16.6992  48   2.3   93    1.3   0     0     991.6    NA       0.0000   -SN      9999  9510  0    
2019/07/15  20:55:00  BASE  10.5193  45   16.6992  48   2.3   93    1.2   0     0     991.6    NA       0.0000   -SN      9999  9350  0    
2019/07/15  20:56:00  BASE  10.9015  45   16.6992  48   2.3   92    1.1   0     0     991.5    NA       0.0000   -SN      9999  9550  0    
2019/07/15  20:57:00  BASE  11.7188  44   16.6992  48   2.3   92    1.1   0     0     991.5    NA       0.0000   -SN      9999  9510  0    
2019/07/15  20:58:00  BASE  12.5068  43   16.5463  49   2.3   92    1.1   0     0     991.3    NA       0.0000   -SN      9999  9510  0    
2019/07/15  20:59:00  BASE  12.8419  45   16.5463  49   2.3   92    1.1   0     0     991.4    NA       0.0000   -SN      9999  9550  0    
2019/07/15  21:00:00  BASE  12.2304  48   15.3644  44   2.3   92    1.1   0     0     991.4    NA       0.0000   -SN      9999  9680  0    
2019/07/15  21:01:00  BASE  12.7478  49   15.335   49   2.4   91    1.1   0     0     991.3    NA       0.0000   -SN      9999  9810  0    
2019/07/15  21:02:00  BASE  12.8008  48   15.335   49   2.4   91    1.1   0     0     991.3    NA       0.0000   -SN      9999  10730 0    
2019/07/15  21:03:00  BASE  12.4127  48   15.335   49   2.5   90    1.0   0     0     991.2    NA       0.0000   9999     10430 10960 0    
2019/07/15  21:04:00  BASE  12.4715  46   15.335   49   2.5   90    1.0   0     0     991.1    NA       0.0000   9999     10630 0     0    
2019/07/15  21:05:00  BASE  12.5009  41   15.335   49   2.5   89    0.9   0     0     991.2    NA       0.0000   9999     11290 0     0    
2019/07/15  21:06:00  BASE  13.13    42   16.6051  47   2.6   89    0.9   0     0     991.1    NA       0.0000   9999     11190 11810 0    
2019/07/15  21:07:00  BASE  13.23    45   16.6051  47   2.7   88    0.9   0     0     991.2    NA       0.0000   9999     11910 0     0    
2019/07/15  21:08:00  BASE  12.1128  43   16.6051  47   2.7   87    0.8   0     0     991.3    NA       0.0000   9999     12170 13520 0    
2019/07/15  21:09:00  BASE  10.8074  45   16.6051  47   2.8   87    0.8   0     0     991.4    NA       0.0000   9999     11420 12170 13450
2019/07/15  21:10:00  BASE  9.97836  50   16.6051  47   2.8   86    0.8   0     0     991.5    NA       0.0000   9999     11480 0     0    
2019/07/15  21:11:00  BASE  9.07284  54   16.6051  47   2.9   85    0.7   0     0     991.6    NA       0.0000   9999     13260 0     0    
2019/07/15  21:12:00  BASE  8.21436  54   16.6051  47   2.9   85    0.6   0     0     991.7    NA       0.0000   9999     13190 0     0    
2019/07/15  21:13:00  BASE  8.33196  53   16.6051  47   2.9   84    0.5   0     0     991.8    NA       0.0000   9999     13190 0     0    
2019/07/15  21:14:00  BASE  7.68516  54   16.6051  47   2.9   84    0.4   0     0     991.9    NA       0.0000   9999     13160 0     0    
2019/07/15  21:15:00  BASE  7.59696  54   16.6051  47   2.9   84    0.4   0     0     991.9    NA       0.0000   9999     13220 0     0    
2019/07/15  21:16:00  BASE  7.5264   54   15.3056  43   2.9   83    0.4   0     0     992.1    NA       0.0000   9999     13260 0     0    
2019/07/15  21:17:00  BASE  6.34452  52   12.642   41   2.9   83    0.3   0     0     992.2    NA       0.0000   9999     9380  12370 0    
2019/07/15  21:18:00  BASE  6.59148  47   11.4013  49   2.9   83    0.3   0     0     992.2    NA       0.0000   9999     9150  0     0    
2019/07/15  21:19:00  BASE  7.497    36   11.2543  53   3.0   82    0.3   0     0     992.2    NA       0.0000   -SN      9999  560   0    
2019/07/15  21:20:00  BASE  6.65028  26   10.6781  60   2.9   82    0.2   0     0     992.2    NA       0.0000   -SN      9999  460   9510 
2019/07/15  21:21:00  BASE  3.81612  35   10.6781  60   2.8   83    0.2   0     0     992.3    NA       0.0000   -SN      9999  9320  0    
2019/07/15  21:22:00  BASE  2.78712  39   10.6781  60   2.7   84    0.3   0     0     992.2    NA       0.0000   -SN      9999  9480  0    
2019/07/15  21:23:00  BASE  2.36376  19   10.6781  60   2.6   85    0.4   0     0     992.3    NA       0.0000   -SN      9999  9420  0    
2019/07/15  21:24:00  BASE  0.9114   351  10.6781  60   2.5   87    0.6   0     0     992.3    NA       0.0000   -SN      9999  9580  13060
2019/07/15  21:25:00  BASE  1.06428  242  10.1018  43   2.4   89    0.8   0     0     992.4    NA       0.0000   -SN      9999  9710  13090
2019/07/15  21:26:00  BASE  2.59896  214  10.1018  43   2.4   90    0.9   0     0     992.3    NA       0.0000   -SN      9999  9840  0    
2019/07/15  21:27:00  BASE  3.85728  217  10.1018  43   2.3   91    0.9   0     0     992.2    NA       0.0000   -SN      9999  12960 0    
2019/07/15  21:28:00  BASE  3.44568  231  8.80236  34   2.2   91    0.9   0     0     992.2    NA       0.0000   -SN      9999  12170 0    
2019/07/15  21:29:00  BASE  3.39276  240  6.92664  27   2.0   91    0.8   0     0     992.2    NA       0.0000   -SN      9999  13680 0    
2019/07/15  21:30:00  BASE  3.95136  233  5.08032  233  1.8   91    0.5   0     0     992.2    NA       0.0000   9999     10040 0     0    
2019/07/15  21:31:00  BASE  3.7338   227  5.08032  233  1.6   91    0.3   0     0     992.2    NA       0.0000   9999     10140 0     0    
2019/07/15  21:32:00  BASE  4.03956  222  5.2038   218  1.5   91    0.1   0     0     992.1    NA       0.0000   9999     10110 0     0    
2019/07/15  21:33:00  BASE  5.15676  211  6.98544  204  1.3   91    -0.0  0     0     992.0    NA       0.0000   9999     10400 0     0    
2019/07/15  21:34:00  BASE  6.1152   201  7.3206   199  1.2   91    -0.1  0     0     991.9    NA       0.0000   9999     10010 0     0    
2019/07/15  21:35:00  BASE  6.53268  194  7.3206   199  1.1   92    -0.1  0     0     991.8    NA       0.0000   9999     9840  10660 0    
2019/07/15  21:36:00  BASE  6.8208   188  7.50288  186  1.2   92    -0.0  0     0     991.7    NA       0.0000   9999     10830 11250 0    
2019/07/15  21:37:00  BASE  6.97956  189  7.50288  186  1.2   92    0.0   0     0     991.7    NA       0.0000   9999     12800 0     0    
2019/07/15  21:38:00  BASE  6.84432  186  7.50288  186  1.2   92    0.0   0     0     991.9    NA       0.0000   9999     13060 0     0    
2019/07/15  21:39:00  BASE  6.60324  178  7.50288  186  1.2   92    0.0   0     0     992.0    NA       0.0000   9999     10070 13120 0    
2019/07/15  21:40:00  BASE  7.056    164  9.59028  169  1.2   92    0.1   0     0     991.9    NA       0.0000   9999     10200 0     0    
2019/07/15  21:41:00  BASE  7.7616   144  9.95484  108  1.2   93    0.2   0     0     991.9    NA       0.0000   9999     13350 0     0    
2019/07/15  21:42:00  BASE  7.4676   131  9.95484  108  1.3   93    0.3   0     0     992.1    NA       0.0000   9999     2490  0     0    
2019/07/15  21:43:00  BASE  5.99172  127  9.95484  108  1.3   93    0.3   0     0     992.1    NA       0.0000   9999     3150  0     0    
2019/07/15  21:44:00  BASE  5.439    139  9.95484  108  1.4   93    0.3   0     0     992.0    NA       0.0000   9999     1180  0     0    
2019/07/15  21:45:00  BASE  6.5562   149  9.95484  108  1.4   92    0.3   0     0     991.9    NA       0.0000   9999     2950  0     0    
2019/07/15  21:46:00  BASE  8.2026   156  11.1602  155  1.3   92    0.1   0     0     991.6    NA       0.0000   9999     0     0     0    
2019/07/15  21:47:00  BASE  7.9086   162  11.1602  155  1.3   92    0.1   0     0     991.8    NA       0.0000   9999     0     0     0    
2019/07/15  21:48:00  BASE  6.17988  140  11.1602  155  1.4   92    0.2   0     0     991.9    NA       0.0000   -SN      7000  0     0    
2019/07/15  21:49:00  BASE  5.45664  128  11.1602  155  1.5   92    0.3   0     0     992.1    NA       0.0000   -SN      8000  2230  0    
2019/07/15  21:50:00  BASE  4.704    138  11.1602  155  1.5   91    0.3   0     0     992.2    NA       0.0000   -SN      9000  0     0    
2019/07/15  21:51:00  BASE  4.60992  146  11.1602  155  1.6   91    0.2   0     0     992.2    NA       0.0000   -SN      9999  890   0    
2019/07/15  21:52:00  BASE  4.95684  158  11.1602  155  1.6   90    0.1   0     0     992.1    NA       0.0000   -SN      9999  0     0    
2019/07/15  21:53:00  BASE  4.2042   163  11.1602  155  1.5   90    -0.0  0     0     992.2    NA       0.0000   -SN      9999  0     0    
2019/07/15  21:54:00  BASE  3.21636  161  11.1602  155  1.5   90    -0.1  0     0     992.3    NA       0.0000   -SN      9999  0     0    
2019/07/15  21:55:00  BASE  3.06936  148  11.1602  155  1.5   90    -0.0  0     0     992.2    NA       0.0000   -SN      9999  10200 0    
2019/07/15  21:56:00  BASE  3.68088  140  9.77256  164  1.6   90    0.1   0     0     992.2    NA       0.0000   -SN      9999  11250 0    
2019/07/15  21:57:00  BASE  4.19832  152  7.07952  138  1.6   90    0.1   0     0     992.1    NA       0.0000   -SN      9999  0     0    
2019/07/15  21:58:00  BASE  4.52172  169  6.44448  147  1.5   90    0.0   0     0     991.9    NA       0.0000   -SN      9999  0     0    
2019/07/15  21:59:00  BASE  4.88628  164  5.99172  153  1.5   90    -0.0  0     0     992.0    NA       0.0000   -SN      9999  0     0    
2019/07/15  22:00:00  BASE  4.18068  144  5.99172  153  1.5   90    0.1   0     0     992.1    NA       0.0000   -SN      9999  0     0    
2019/07/15  22:01:00  BASE  2.60484  162  5.99172  153  1.6   90    0.2   0     0     992.0    NA       0.0000   -SN      9999  0     0    
2019/07/15  22:02:00  BASE  2.72832  175  5.99172  153  1.7   90    0.3   0     0     991.9    NA       0.0000   -SN      9999  460   0    
2019/07/15  22:03:00  BASE  4.21596  133  6.02112  138  1.8   90    0.4   0     0     992.1    NA       0.0000   -SN      9999  0     0    
2019/07/15  22:04:00  BASE  4.25124  108  6.02112  138  1.9   90    0.5   0     0     992.1    NA       0.0000   -SN      6000  0     0    
2019/07/15  22:05:00  BASE  3.60444  81   6.02112  138  2.0   90    0.5   0     0     992.2    NA       0.0000   -SN      BR    4400  0    
2019/07/15  22:06:00  BASE  3.36924  41   6.02112  138  1.9   90    0.4   0     0     992.2    NA       0.0000   -SN      BR    4100  0    
2019/07/15  22:07:00  BASE  3.51036  39   6.02112  138  1.9   90    0.4   0     0     992.2    NA       0.0000   -SN      BR    4400  0    
2019/07/15  22:08:00  BASE  4.1454   35   6.02112  138  1.8   91    0.6   0     0     992.1    NA       0.0000   -SN      BR    3800  0    
2019/07/15  22:09:00  BASE  4.39236  33   7.10892  69   1.8   92    0.6   0     0     992.0    NA       0.0000   -SN      BR    3900  330  
2019/07/15  22:10:00  BASE  5.35668  43   8.4672   42   1.8   93    0.7   0     0     992.0    NA       0.0000   -SN      BR    4500  0    
2019/07/15  22:11:00  BASE  6.97368  49   10.2841  31   1.8   93    0.8   0     0     991.9    NA       0.0000   -SN      BR    3900  330  
2019/07/15  22:12:00  BASE  7.8792   48   10.2841  31   1.7   94    0.9   0     0     991.9    NA       0.0000   -SN      BR    4500  0    
2019/07/15  22:13:00  BASE  9.34332  45   13.6416  44   1.7   94    0.9   0     0     991.8    NA       0.0000   -SN      BR    5000  0    
2019/07/15  22:14:00  BASE  10.5605  45   13.6416  37   1.7   95    1.0   0     0     991.7    NA       0.0000   -SN      BR    4900  360  
2019/07/15  22:15:00  BASE  10.8251  45   13.6416  37   1.7   95    1.1   0     0     991.6    NA       0.0000   -SN      BR    3800  0    
2019/07/15  22:16:00  BASE  11.1779  49   13.6416  37   1.8   95    1.1   0     0     991.5    NA       0.0000   -SN      BR    4600  390  
2019/07/15  22:17:00  BASE  11.513   50   13.6416  37   1.8   95    1.1   0     0     991.4    NA       0.0000   -SN      BR    8000  0    
2019/07/15  22:18:00  BASE  11.9482  51   14.4883  54   1.8   96    1.2   0     0     991.4    NA       0.0000   -SN      BR    9999  13290
2019/07/15  22:19:00  BASE  12.4656  51   14.4883  54   1.8   96    1.2   0     0     991.3    NA       0.0000   -SN      BR    9999  0    
2019/07/15  22:20:00  BASE  11.8776  49   14.4883  54   1.8   96    1.2   0     0     991.3    NA       0.0000   -SN      BR    9999  0    
2019/07/15  22:21:00  BASE  12.3362  48   16.2758  39   1.8   96    1.3   0     0     991.1    NA       0.0000   -SN      BR    9999  13480
2019/07/15  22:22:00  BASE  13.8592  46   16.2758  39   1.9   96    1.3   0     0     991.1    NA       0.0000   -SN      BR    9999  13520
2019/07/15  22:23:00  BASE  12.7714  43   16.2758  39   1.9   96    1.3   0     0     991.1    NA       0.0000   -SN      BR    9999  11160
2019/07/15  22:24:00  BASE  11.7894  40   16.2758  39   1.9   96    1.3   0     0     991.1    NA       0.0000   -SN      BR    9999  10170
2019/07/15  22:25:00  BASE  12.4244  37   16.3346  32   1.9   96    1.3   0     0     991.0    NA       0.0000   -SN      9999  10500 0    
2019/07/15  22:26:00  BASE  12.4597  37   16.3346  32   1.9   96    1.3   0     0     991.1    NA       0.0000   -SN      9999  10600 0    
2019/07/15  22:27:00  BASE  12.2128  38   16.3346  32   1.9   96    1.3   0     0     991.1    NA       0.0000   -SN      9999  10760 0    
2019/07/15  22:28:00  BASE  13.1124  37   16.3346  32   2.0   95    1.3   0     0     991.0    NA       0.0000   -SN      9999  10630 11480
2019/07/15  22:29:00  BASE  12.983   39   16.3346  32   2.0   95    1.3   0     0     991.1    NA       0.0000   -SN      9999  10790 11680
2019/07/15  22:30:00  BASE  12.9184  41   16.3346  32   2.0   94    1.2   0     0     991.0    NA       0.0000   -SN      9999  11580 0    
2019/07/15  22:31:00  BASE  13.4299  40   16.3346  32   2.1   93    1.1   0     0     991.0    NA       0.0000   9999     11020 0     0    
2019/07/15  22:32:00  BASE  13.2594  40   16.3346  32   2.1   92    1.0   0     0     991.0    NA       0.0000   9999     11020 0     0    
2019/07/15  22:33:00  BASE  13.5887  36   16.3346  32   2.1   91    0.8   0     0     991.0    NA       0.0000   9999     12570 0     0    
2019/07/15  22:34:00  BASE  14.3237  33   17.0285  32   2.1   91    0.7   0     0     991.0    NA       0.0000   9999     11520 0     0    
2019/07/15  22:35:00  BASE  14.8411  35   17.4224  31   2.1   90    0.7   0     0     991.0    NA       0.0000   9999     10890 12400 0    
2019/07/15  22:36:00  BASE  14.553   34   17.4224  31   2.1   90    0.6   0     0     991.0    NA       0.0000   9999     10930 0     0    
2019/07/15  22:37:00  BASE  14.9411  34   17.4224  40   2.1   90    0.6   0     0     991.0    NA       0.0000   9999     11190 12700 0    
2019/07/15  22:38:00  BASE  14.9352  34   17.4224  40   2.1   90    0.6   0     0     991.1    NA       0.0000   9999     10600 0     0    
2019/07/15  22:39:00  BASE  14.0062  33   17.4224  40   2.1   90    0.6   0     0     991.1    NA       0.0000   9999     10700 0     0    
2019/07/15  22:40:00  BASE  14.3237  33   17.4812  35   2.1   90    0.6   0     0     991.1    NA       0.0000   9999     10730 0     0    
2019/07/15  22:41:00  BASE  15.4703  34   17.7576  37   2.1   90    0.6   0     0     991.0    NA       0.0000   9999     9190  12760 0    
2019/07/15  22:42:00  BASE  16.0406  33   17.9105  38   2.1   90    0.7   0     0     991.0    NA       0.0000   9999     8920  0     0    
2019/07/15  22:43:00  BASE  15.8231  31   17.9987  34   2.1   91    0.7   0     0     991.0    NA       0.0000   9999     9290  11810 0    
2019/07/15  22:44:00  BASE  15.5056  30   18.2692  19   2.1   91    0.8   0     0     991.0    NA       0.0000   9999     9420  0     0    
2019/07/15  22:45:00  BASE  16.2817  28   18.9983  27   2.1   91    0.9   0     0     991.0    NA       0.0000   9999     9580  0     0    
2019/07/15  22:46:00  BASE  16.1347  28   18.9983  27   2.2   92    0.9   0     0     991.1    NA       0.0000   9999     12340 20080 0    
2019/07/15  22:47:00  BASE  15.4938  29   18.9983  27   2.2   92    1.0   0     0     991.1    NA       0.0000   9999     9550  0     0    
2019/07/15  22:48:00  BASE  16.0877  29   18.9983  27   2.1   92    1.0   0     0     991.1    NA       0.0000   9999     9710  0     0    
2019/07/15  22:49:00  BASE  15.829   28   18.9983  27   2.1   93    1.0   0     0     991.1    NA       0.0000   9999     9780  20150 0    
2019/07/15  22:50:00  BASE  15.188   28   18.9983  27   2.1   93    1.1   0     0     991.1    NA       0.0000   9999     9780  20050 0    
2019/07/15  22:51:00  BASE  15.094   29   18.9983  27   2.0   93    1.1   0     0     991.2    NA       0.0000   9999     9810  20080 0    
2019/07/15  22:52:00  BASE  15.4291  27   18.9983  27   2.0   94    1.1   0     0     991.2    NA       0.0000   9999     9650  19950 0    
2019/07/15  22:53:00  BASE  15.7878  24   18.9983  27   1.9   94    1.1   0     0     991.2    NA       0.0000   9999     9610  19920 0    
2019/07/15  22:54:00  BASE  15.8348  23   18.9983  27   1.9   94    1.1   0     0     991.2    NA       0.0000   9999     19920 0     0    
2019/07/15  22:55:00  BASE  15.8348  22   18.7219  27   1.9   95    1.1   0     0     991.2    NA       0.0000   9999     9480  19850 0    
2019/07/15  22:56:00  BASE  15.4703  24   18.7219  27   1.9   95    1.1   0     0     991.2    NA       0.0000   9999     12530 0     0    
2019/07/15  22:57:00  BASE  14.9117  27   18.7219  27   1.9   95    1.2   0     0     991.4    NA       0.0000   9999     9450  0     0    
2019/07/15  22:58:00  BASE  14.6765  27   18.7219  27   1.9   95    1.2   0     0     991.4    NA       0.0000   9999     9220  12010 0    
2019/07/15  22:59:00  BASE  14.8294  26   18.7219  27   1.9   96    1.2   0     0     991.4    NA       0.0000   9999     9320  0     0    
2019/07/15  23:00:00  BASE  14.9117  25   18.7219  27   1.9   96    1.3   0     0     991.4    NA       0.0000   9999     9220  0     0    
2019/07/15  23:01:00  BASE  14.2649  27   18.7219  27   1.8   96    1.3   0     0     991.5    NA       0.0000   9999     9350  0     0    
2019/07/15  23:02:00  BASE  13.6769  27   17.5459  25   1.8   96    1.2   0     0     991.5    NA       0.0000   9999     8530  9380  0    
2019/07/15  23:03:00  BASE  14.1649  26   17.5459  25   1.8   96    1.2   0     0     991.4    NA       0.0000   9999     9220  0     0    
2019/07/15  23:04:00  BASE  14.7059  27   17.9399  28   1.7   96    1.2   0     0     991.4    NA       0.0000   9999     9350  0     0    
2019/07/15  23:05:00  BASE  15.1057  28   18.5749  30   1.7   97    1.2   0     0     991.3    NA       0.0000   9999     9320  0     0    
2019/07/15  23:06:00  BASE  15.0234  27   18.5749  30   1.7   97    1.3   0     0     991.4    NA       0.0000   9999     9350  0     0    
2019/07/15  23:07:00  BASE  14.8588  24   18.5749  30   1.7   97    1.3   0     0     991.3    NA       0.0000   9999     7810  0     0    
2019/07/15  23:08:00  BASE  16.0406  23   18.5749  30   1.7   97    1.3   0     0     991.1    NA       0.0000   9999     7940  0     0    
2019/07/15  23:09:00  BASE  16.0112  23   18.5749  30   1.7   97    1.4   0     0     991.4    NA       0.0000   9999     8730  0     0    
2019/07/15  23:10:00  BASE  14.5942  24   18.5749  30   1.7   98    1.4   0     0     991.4    NA       0.0000   9999     8860  0     0    
2019/07/15  23:11:00  BASE  14.8646  23   18.5749  30   1.7   98    1.4   0     0     991.3    NA       0.0000   9999     0     0     0    
2019/07/15  23:12:00  BASE  15.1704  23   18.5749  30   1.7   98    1.4   0     0     991.3    NA       0.0000   9999     7320  8860  0    
2019/07/15  23:13:00  BASE  14.4824  23   18.5749  30   1.6   98    1.4   0     0     991.4    NA       0.0000   9999     8240  0     0    
2019/07/15  23:14:00  BASE  13.8415  23   18.5749  30   1.6   98    1.4   0     0     991.5    NA       0.0000   9999     7250  8370  0    
2019/07/15  23:15:00  BASE  13.377   24   18.3632  25   1.6   98    1.4   0     0     991.5    NA       0.0000   9999     7220  0     0    
2019/07/15  23:16:00  BASE  13.6357  24   18.3632  25   1.6   99    1.4   0     0     991.4    NA       0.0000   9999     7280  0     0    
2019/07/15  23:17:00  BASE  14.5177  24   18.3632  25   1.6   99    1.4   0     0     991.5    NA       0.0000   9999     7910  0     0    
2019/07/15  23:18:00  BASE  14.8823  23   17.8752  25   1.6   99    1.4   0     0     991.4    NA       0.0000   9999     8830  0     0    
2019/07/15  23:19:00  BASE  15.0116  22   17.8752  25   1.6   99    1.4   0     0     991.4    NA       0.0000   UP       9999  8460  0    
2019/07/15  23:20:00  BASE  14.8999  23   17.8752  25   1.6   99    1.4   0     0     991.5    NA       0.0000   UP       9999  8370  0    
2019/07/15  23:21:00  BASE  14.6353  22   16.6345  25   1.6   99    1.4   0     0     991.5    NA       0.0000   UP       9999  8630  0    
2019/07/15  23:22:00  BASE  14.4472  23   16.5463  32   1.6   99    1.4   0     0     991.6    NA       0.0000   UP       9999  8690  0    
2019/07/15  23:23:00  BASE  14.3178  22   16.5463  32   1.5   99    1.4   0     0     991.6    NA       0.0000   UP       9999  430   8730 
2019/07/15  23:24:00  BASE  14.2825  20   16.5463  32   1.5   99    1.4   0     0     991.6    NA       0.0000   UP       9999  460   8760 
2019/07/15  23:25:00  BASE  13.9944  21   16.5463  32   1.5   99    1.4   0     0     991.6    NA       0.0000   UP       9999  520   8860 
2019/07/15  23:26:00  BASE  13.6298  22   16.5463  32   1.5   100   1.4   0     0     991.7    NA       0.0000   UP       9999  8990  0    
2019/07/15  23:27:00  BASE  13.3652  21   16.5463  32   1.5   100   1.4   0     0     991.7    NA       0.0000   UP       9999  8960  0    
2019/07/15  23:28:00  BASE  13.7122  20   16.4228  28   1.4   100   1.4   0     0     991.7    NA       0.0000   UP       9999  0     0    
2019/07/15  23:29:00  BASE  14.406   21   15.8525  25   1.4   100   1.4   0     0     991.6    NA       0.0000   9999     430   0     0    
2019/07/15  23:30:00  BASE  14.4883  22   15.8525  25   1.4   100   1.4   0     0     991.7    NA       0.0000   9999     0     0     0    
2019/07/15  23:31:00  BASE  14.3002  21   15.6996  23   1.4   100   1.4   0     0     991.7    NA       0.0000   9999     430   0     0    
2019/07/15  23:32:00  BASE  14.5589  22   16.2464  18   1.4   100   1.4   0     0     991.7    NA       0.0000   9999     0     0     0    
2019/07/15  23:33:00  BASE  14.4295  23   16.2464  18   1.4   100   1.4   0     0     991.7    NA       0.0000   9999     0     0     0    
2019/07/15  23:34:00  BASE  14.2472  22   16.2464  18   1.4   100   1.4   0     0     991.8    NA       0.0000   9999     1940  0     0    
2019/07/15  23:35:00  BASE  14.3178  22   16.2464  18   1.4   100   1.4   0     0     991.7    NA       0.0000   9999     0     0     0    
2019/07/15  23:36:00  BASE  13.8121  23   16.2464  18   1.4   100   1.4   0     0     991.8    NA       0.0000   9999     0     0     0    
2019/07/15  23:37:00  BASE  12.5244  24   16.2464  18   1.4   100   1.4   0     0     991.9    NA       0.0000   9999     9250  0     0    
2019/07/15  23:38:00  BASE  11.7776  26   16.2464  18   1.4   100   1.4   0     0     991.8    NA       0.0000   9999     0     0     0    
2019/07/15  23:39:00  BASE  12.1481  29   16.2464  18   1.4   100   1.4   0     0     991.8    NA       0.0000   9999     3810  0     0    
2019/07/15  23:40:00  BASE  12.2069  29   16.2464  18   1.4   100   1.4   0     0     991.8    NA       0.0000   9999     0     0     0    
2019/07/15  23:41:00  BASE  12.8066  23   16.2464  18   1.4   100   1.4   0     0     991.7    NA       0.0000   9999     4230  0     0    
2019/07/15  23:42:00  BASE  13.3946  22   15.9113  19   1.4   100   1.4   0     0     991.8    NA       0.0000   9999     3970  0     0    
2019/07/15  23:43:00  BASE  12.1128  23   15.9113  19   1.4   100   1.4   0     0     991.9    NA       0.0000   9999     4040  0     0    
2019/07/15  23:44:00  BASE  11.6365  23   15.4291  19   1.4   100   1.4   0     0     991.8    NA       0.0000   9999     4230  0     0    
2019/07/15  23:45:00  BASE  12.0893  23   15.4291  19   1.4   100   1.4   0     0     991.8    NA       0.0000   9999     4270  0     0    
2019/07/15  23:46:00  BASE  12.2657  24   15.4291  19   1.3   100   1.3   0     0     991.8    NA       0.0000   9999     3480  0     0    
2019/07/15  23:47:00  BASE  12.6185  24   15.4291  19   1.3   100   1.3   0     0     991.8    NA       0.0000   9999     3540  0     0    
2019/07/15  23:48:00  BASE  12.7243  26   15.4291  19   1.3   100   1.3   0     0     991.8    NA       0.0000   9999     0     0     0    
2019/07/15  23:49:00  BASE  12.5773  27   15.4291  19   1.4   100   1.3   0     0     991.8    NA       0.0000   9999     0     0     0    
2019/07/15  23:50:00  BASE  12.5303  25   15.4291  19   1.4   99    1.3   0     0     991.8    NA       0.0000   9999     4000  0     0    
2019/07/15  23:51:00  BASE  12.101   26   14.4883  39   1.4   99    1.3   0     0     991.9    NA       0.0000   9999     4430  0     0    
2019/07/15  23:52:00  BASE  12.0011  26   14.8529  26   1.4   99    1.2   0     0     991.8    NA       0.0000   9999     4270  0     0    
2019/07/15  23:53:00  BASE  12.4303  25   14.8529  26   1.4   98    1.2   0     0     991.8    NA       0.0000   9999     4360  0     0    
2019/07/15  23:54:00  BASE  12.2245  26   14.8529  26   1.4   98    1.2   0     0     991.9    NA       0.0000   9999     4530  0     0    
2019/07/15  23:55:00  BASE  11.6777  25   14.8529  26   1.4   98    1.1   0     0     991.9    NA       0.0000   9999     0     0     0    
2019/07/15  23:56:00  BASE  10.7251  24   14.8529  26   1.4   97    1.0   0     0     991.9    NA       0.0000   9999     0     0     0    
2019/07/15  23:57:00  BASE  10.1665  25   14.8529  26   1.4   97    1.0   0     0     992.0    NA       0.0000   9999     0     0     0    
2019/07/15  23:58:00  BASE  9.9666   27   14.8529  26   1.4   97    0.9   0     0     992.0    NA       0.0000   9999     4530  0     0    
2019/07/15  23:59:00  BASE  10.1018  29   14.8529  26   1.3   97    0.9   0     0     992.0    NA       0.0000   9999     4230  0     0